[[[{"header":{"parameterUnit":"kt","parameterCategory":2,"dx":1,"dy":1,"la1":29.285339999999998,"la2":30.599998999999997,"lo1":-89.70041500000002,"lo2":-87.6738589999976,"nx":112,"ny":82,"refTime":"2022-09-18T18:00:00:Z","depth":0,"parameterNumber":1,"parameterNumberName":"U-component_of_WINDS"},"data":[0.7989,0.7907,0.7899,0.7842,0.7775,0.7836,0.7865,0.7844,0.7773,0.7872,0.7733,0.7529,0.7529,0.7298,0.7008,0.6718,0.6574,0.6337,0.0,0.6146,0.6424,0.6324,0.7956,0.8981,0.8686,0.9583,1.0366,1.0816,1.1466,1.2086,1.2464,1.3356,1.3806,1.3703,1.4256,1.4658,1.4887,1.5021,1.5305,1.5755,1.6,1.6237,1.6466,1.6592,1.6655,1.6655,1.6655,1.6655,1.6655,1.6655,1.6476,1.5956,1.5956,1.5606,1.5263,1.5777,1.5085,1.3699,1.284,1.2496,1.233,1.1813,1.1813,1.164,1.1117,1.0945,1.0792,1.0007,0.98,0.9589,0.8608,0.8401,0.8358,0.8358,0.8358,0.8358,0.8531,0.9225,0.974,0.9913,1.0614,1.1144,1.1144,1.1144,1.1144,1.1144,1.1144,1.1144,1.1144,1.1144,1.1144,1.1144,1.1144,1.1144,1.1144,1.1144,1.1144,1.1144,1.1144,1.1144,1.1144,1.1144,1.1144,1.1144,1.1144,1.1144,1.1144,1.1144,1.1144,1.1144,1.1144,1.1144,0.8194,0.8002,0.786,0.7883,0.7871,0.7751,0.7761,0.7733,0.7661,0.7661,0.7437,0.7232,0.7232,0.7081,0.683,0.6348,0.6527,0.6573,0.0,0.6454,0.6849,0.7461,0.8883,0.9739,0.954,1.0366,1.1009,1.1342,1.2023,1.2582,1.2819,1.36,1.3987,1.3869,1.4429,1.4848,1.5231,1.5313,1.5661,1.6119,1.6237,1.6418,1.6655,1.6655,1.6655,1.6655,1.6655,1.6655,1.6655,1.6655,1.6655,1.6655,1.6655,1.6655,1.6655,1.6655,1.6127,1.5085,1.4228,1.3884,1.3878,1.3356,1.284,1.233,1.1985,1.1813,1.1468,1.009,1.0095,1.0095,0.8705,0.8358,0.8358,0.8358,0.8358,0.8358,0.8531,0.9225,0.974,0.9913,1.0614,1.1144,1.1144,1.1144,1.1144,1.1144,1.1144,1.1144,1.1144,1.1144,1.1144,1.1144,1.1144,1.1144,1.1144,1.1144,1.1144,1.1144,1.1144,1.1144,1.1144,1.1144,1.1144,1.1144,1.1144,1.1144,1.1144,1.1144,1.1144,1.1149,1.1302,1.1376,0.8246,0.8151,0.8139,0.8126,0.7911,0.7799,0.7793,0.7562,0.7357,0.7357,0.7146,0.6962,0.6968,0.6975,0.6784,0.621,0.6283,0.0,0.0,0.6593,0.7296,0.8863,0.9819,1.0336,1.0336,1.1059,1.1603,1.2057,1.2298,1.2811,1.3636,1.3869,1.4216,1.4556,1.4903,1.51,1.5116,1.5779,1.6119,1.6134,1.649,1.6655,1.6655,1.6655,1.6655,1.6655,1.6655,1.6655,1.6655,1.6655,1.6655,1.6655,1.6655,1.6655,1.6655,1.6655,1.6655,1.6655,1.6655,1.6655,1.6476,1.5078,1.3699,1.233,1.0955,1.0614,1.0268,0.8878,0.9398,1.0095,0.8705,0.8358,0.8358,0.8358,0.8358,0.8531,0.9056,0.9398,0.9913,1.0441,1.0792,1.1144,1.1144,1.1144,1.1144,1.1144,1.1144,1.1144,1.1144,1.1144,1.1144,1.1144,1.1144,1.1144,1.1144,1.1144,1.1144,1.1144,1.1144,1.1144,1.1144,1.1144,1.1144,1.1144,1.1144,1.1144,1.1144,1.1154,1.1154,1.1165,1.1619,1.183,0.8165,0.8061,0.7885,0.7667,0.7549,0.7437,0.7239,0.7133,0.7074,0.7074,0.7008,0.0,0.0,0.0,0.7272,0.7324,0.0,0.7882,0.7721,0.8244,0.9007,1.0242,1.0773,1.1161,1.1161,1.1556,1.2073,1.2306,1.289,1.3427,1.3877,1.4224,1.4571,1.4927,1.5037,1.5321,1.5826,1.6024,1.6245,1.6505,1.6608,1.6655,1.6655,1.6655,1.6655,1.6655,1.6655,1.6655,1.6655,1.6655,1.6655,1.6655,1.6655,1.6655,1.6655,1.6655,1.6655,1.6655,1.6655,1.6655,1.6476,1.5078,1.4386,1.3699,1.2324,1.1985,1.164,1.0263,1.0268,1.0095,0.8705,0.8358,0.8358,0.8358,0.8358,0.8358,0.8531,0.8882,0.9402,0.9402,1.0095,1.0619,1.0619,1.0971,1.1144,1.1144,1.1144,1.1144,1.1144,1.1144,1.1144,1.1144,1.1144,1.1144,1.1144,1.1144,1.1144,1.1144,1.1144,1.1144,1.1144,1.1144,1.1144,1.1144,1.1144,1.1144,1.1144,1.1307,1.1381,1.1392,1.1688,1.183,0.797,0.7852,0.7582,0.7417,0.7285,0.7153,0.6995,0.6962,0.6995,0.7107,0.0,0.0,0.0,0.0,0.0,0.0,0.8307,0.8584,0.8599,0.9212,0.9912,1.0446,1.0723,1.1081,1.1848,1.2322,1.2815,1.2898,1.3427,1.3829,1.4035,1.4508,1.4871,1.5231,1.5361,1.5708,1.6111,1.6261,1.645,1.6655,1.6655,1.6655,1.6655,1.6655,1.6655,1.6655,1.6655,1.6655,1.6655,1.6655,1.6655,1.6655,1.6655,1.6655,1.6655,1.6655,1.6655,1.6655,1.6655,1.6655,1.6655,1.5777,1.5078,1.4386,1.3528,1.3356,1.3012,1.164,1.13,1.0955,0.9571,0.8878,0.8358,0.8358,0.8358,0.8358,0.8358,0.8878,0.9402,0.9402,1.0095,1.0619,1.0441,1.0792,1.1175,1.127,1.1281,1.1318,1.1418,1.1434,1.1434,1.1434,1.1434,1.1434,1.1434,1.1434,1.1434,1.1434,1.1434,1.1434,1.1434,1.1434,1.1434,1.1434,1.1434,1.1434,1.1434,1.1561,1.1672,1.1778,1.201,1.2116,0.7674,0.7469,0.7272,0.7272,0.7113,0.7055,0.7088,0.0,0.7175,0.7455,0.0,0.7602,0.7909,0.0,0.0,0.789,0.8274,0.866,0.9007,0.9569,0.9975,0.9857,0.9958,1.0679,1.2149,1.3151,1.3529,1.343,1.3726,1.3922,1.3808,1.4729,1.51,1.514,1.5771,1.6134,1.6174,1.649,1.6655,1.6655,1.6655,1.6655,1.6655,1.6655,1.6655,1.6655,1.6655,1.6655,1.6655,1.6655,1.6655,1.6655,1.6655,1.6655,1.6655,1.6655,1.6655,1.6655,1.6655,1.6655,1.6655,1.6655,1.5777,1.4557,1.4557,1.4386,1.4043,1.284,1.2496,1.2157,1.0955,0.9744,0.8874,0.8874,0.87,0.87,0.87,0.922,0.974,0.974,1.0441,1.0986,1.1028,1.1043,1.1291,1.1487,1.1513,1.1593,1.1804,1.183,1.183,1.183,1.183,1.183,1.183,1.183,1.183,1.183,1.183,1.183,1.183,1.183,1.183,1.183,1.183,1.183,1.183,1.1857,1.1989,1.2227,1.2422,1.2512,0.6739,0.6635,0.6596,0.6761,0.6901,0.7108,0.0,0.0,0.0,0.833,0.849,0.8592,0.8817,0.8269,0.7992,0.8379,0.805,0.7943,0.8159,0.8875,0.932,0.9491,1.0531,1.1404,1.1795,1.2883,1.3344,1.2607,1.342,1.3725,1.3101,1.4398,1.5211,1.5471,1.589,1.6253,1.6545,1.6624,1.6655,1.6655,1.6655,1.6655,1.6655,1.6655,1.6655,1.6655,1.6655,1.6655,1.6655,1.6655,1.6655,1.6655,1.6655,1.6655,1.6655,1.6655,1.6655,1.6655,1.6655,1.6655,1.6655,1.6655,1.5777,1.4557,1.4557,1.3699,1.284,1.2496,1.2496,1.233,1.2157,1.1813,1.1635,1.1635,1.1117,1.0599,1.0599,1.0081,0.974,0.974,1.0263,1.1429,1.3779,1.2775,1.1714,1.1756,1.1762,1.1778,1.1825,1.183,1.183,1.183,1.183,1.183,1.183,1.183,1.183,1.183,1.183,1.183,1.183,1.183,1.183,1.183,1.183,1.183,1.183,1.2026,1.2232,1.2449,1.2491,1.2512,0.5297,0.5273,0.5285,0.5285,0.5474,0.0,0.0,0.5992,0.624,0.707,0.7216,0.7341,0.8058,0.7924,0.7837,0.8224,0.8051,0.7797,0.7503,0.7757,0.8196,0.884,1.0079,1.0918,1.1064,1.2208,1.2614,1.1599,1.2214,1.2731,1.3187,1.4133,1.5032,1.5842,1.6197,1.6474,1.6655,1.6655,1.6655,1.6655,1.6655,1.6655,1.6655,1.6655,1.6655,1.6655,1.6655,1.6655,1.6655,1.6655,1.6655,1.6655,1.6655,1.6655,1.6655,1.6655,1.6655,1.6655,1.6655,1.6655,1.6655,1.6655,1.6298,1.5606,1.5606,1.5092,1.4605,1.4751,1.437,1.3945,1.3945,1.3598,1.3065,1.3065,1.3059,1.3053,1.3053,1.3231,1.3579,1.3579,1.3939,1.4385,1.4877,1.4017,1.315,1.2175,1.201,1.2047,1.2158,1.2169,1.2169,1.2169,1.2169,1.2169,1.2169,1.2169,1.2169,1.2169,1.2169,1.2169,1.2169,1.2169,1.2169,1.2169,1.2169,1.2169,1.2169,1.229,1.2406,1.2512,1.2512,1.2512,0.3968,0.3954,0.403,0.4018,0.4195,0.0,0.461,0.4643,0.4906,0.5948,0.6099,0.6417,0.7228,0.7448,0.756,0.7802,0.7872,0.7713,0.6895,0.685,0.7146,0.8023,0.9173,0.9964,1.0174,1.1356,1.1759,1.0987,1.0898,1.1596,1.3155,1.3784,1.4619,1.6111,1.6466,1.6655,1.6655,1.6655,1.6655,1.6655,1.6655,1.6655,1.6655,1.6655,1.6655,1.6655,1.6655,1.6655,1.6655,1.6655,1.6655,1.6655,1.6655,1.6655,1.6655,1.6655,1.6655,1.6655,1.6655,1.6655,1.6655,1.6655,1.6703,1.675,1.675,1.6797,1.6908,1.7176,1.6548,1.6009,1.6009,1.5281,1.4735,1.4735,1.5274,1.5806,1.5806,1.6713,1.7666,1.853,1.8737,1.8189,1.6556,1.6011,1.5177,1.3725,1.3571,1.3451,1.3067,1.3089,1.2895,1.2512,1.2512,1.2512,1.2512,1.2512,1.2512,1.2512,1.2512,1.2512,1.2512,1.2512,1.2512,1.2512,1.2512,1.2512,1.2512,1.2512,1.2512,1.2512,1.2512,1.2512,0.3417,0.3548,0.3758,0.3891,0.4108,0.0,0.5626,0.583,0.6269,0.7559,0.7878,0.7901,0.8089,0.7466,0.72,0.7423,0.6868,0.6534,0.6945,0.702,0.708,0.7389,0.8458,0.9224,0.9249,1.0292,1.1151,1.1267,1.0211,1.0177,1.1873,1.3291,1.4619,1.6111,1.6466,1.6655,1.6655,1.6655,1.6655,1.6655,1.6655,1.6655,1.6655,1.6655,1.6655,1.6655,1.6655,1.6655,1.6655,1.6655,1.6655,1.6655,1.6655,1.6655,1.6655,1.6655,1.6655,1.6655,1.6655,1.6655,1.6655,1.6655,1.6853,1.7089,1.7089,1.7318,1.7579,1.761,1.7469,1.75,1.75,1.8036,1.8579,1.8579,1.8744,1.8899,1.8899,1.8349,1.9085,2.3161,2.2546,2.1206,2.1008,1.9501,1.8192,1.8039,1.8047,1.7288,1.5399,1.5206,1.4439,1.2701,1.2512,1.2512,1.2512,1.2512,1.2512,1.2512,1.2512,1.2512,1.2512,1.2512,1.2512,1.2512,1.2512,1.2512,1.2512,1.2512,1.2512,1.2512,1.2512,1.2512,0.2036,0.2129,0.2261,0.239,0.0,0.0,0.3883,0.4372,0.4942,0.5755,0.6141,0.6497,0.687,0.689,0.6782,0.6975,0.6886,0.6834,0.7159,0.7203,0.7231,0.7306,0.8376,0.8835,0.8224,0.9237,0.9811,0.9137,0.8889,0.8898,0.9645,1.1863,1.4215,1.6426,1.6576,1.6655,1.6655,1.6655,1.6655,1.6655,1.6655,1.6655,1.6655,1.6655,1.6655,1.6655,1.6655,1.6655,1.6655,1.6655,1.6655,1.6655,1.6655,1.6655,1.6655,1.6655,1.6655,1.6679,1.6876,1.6939,1.6971,1.7184,1.7342,1.746,1.746,1.7563,1.7729,1.7918,1.7973,1.8206,1.8974,1.9397,1.9958,2.0518,2.1253,2.1801,2.1801,2.1792,2.264,2.454,2.4225,2.3259,2.1912,2.1142,2.0007,1.8868,1.8676,1.8292,1.7517,1.7332,1.694,1.617,1.5977,1.5977,1.5977,1.5977,1.5977,1.5977,1.5977,1.5592,1.4246,1.4246,1.3665,1.2512,1.2512,1.2512,1.2512,1.2512,1.2512,1.2512,1.2512,1.2512,0.1142,0.0,0.0,0.0,0.0,0.0,0.3058,0.3512,0.4063,0.4643,0.5023,0.5516,0.5946,0.6369,0.6687,0.6909,0.7044,0.7167,0.7298,0.7314,0.7314,0.7314,0.8073,0.8398,0.7535,0.8274,0.8559,0.7719,0.7965,0.8131,0.8175,1.0861,1.3712,1.6655,1.6655,1.6655,1.6655,1.6655,1.6655,1.6655,1.6655,1.6655,1.6655,1.6655,1.6655,1.6655,1.6655,1.6655,1.6655,1.6655,1.6711,1.6789,1.6789,1.6853,1.6939,1.6939,1.6939,1.6971,1.7216,1.7295,1.7334,1.7602,1.7745,1.7824,1.7824,1.7895,1.8021,1.8266,1.8329,1.8573,1.96,2.0241,2.0996,2.1949,2.2899,2.3667,2.3667,2.4424,2.4812,2.4812,2.4812,2.4424,2.287,2.268,2.2111,2.0588,2.0398,2.0207,1.9625,1.9434,1.9243,1.8676,1.8676,1.8676,1.8676,1.8676,1.8676,1.8676,1.8676,1.7909,1.6555,1.6363,1.5399,1.3283,1.3283,1.3089,1.2512,1.2512,1.2512,1.2512,1.2512,1.2512,0.0,0.0,0.0,0.2303,0.2515,0.2843,0.4273,0.4457,0.4589,0.5755,0.5996,0.606,0.6234,0.6556,0.6905,0.7246,0.7306,0.731,0.7314,0.7314,0.7314,0.7314,0.7466,0.7535,0.7556,0.7576,0.7723,0.8072,0.8104,0.8179,0.8342,1.0945,1.3712,1.6655,1.6655,1.6655,1.6655,1.6655,1.6655,1.6655,1.6655,1.6655,1.6655,1.6655,1.6655,1.6655,1.6655,1.6655,1.6655,1.6655,1.6845,1.7129,1.7129,1.7342,1.7658,1.7658,1.7658,1.7658,1.7666,1.7666,1.7674,1.7681,1.7902,1.8171,1.8171,1.8416,1.8684,1.8692,1.87,1.87,1.8715,2.0241,2.1949,2.3098,2.4046,2.4812,2.4812,2.4812,2.4812,2.4812,2.4812,2.4812,2.4812,2.4812,2.4801,2.4613,2.4613,2.4036,2.1912,2.1713,2.0952,1.8868,1.8676,1.8676,1.8676,1.8676,1.8676,1.8676,1.8676,1.8676,1.8484,1.8484,1.7517,1.5592,1.5399,1.4439,1.2512,1.2512,1.2512,1.2512,1.2512,1.2512,0.1253,0.1671,0.2058,0.2482,0.3134,0.3878,0.4294,0.4961,0.5519,0.5818,0.6207,0.6556,0.6612,0.6909,0.7183,0.7298,0.7314,0.7314,0.7314,0.7314,0.7314,0.7314,0.7417,0.7516,0.7572,0.7794,0.7985,0.8104,0.8215,0.8298,0.8354,1.0945,1.2846,1.3878,1.5785,1.6655,1.6655,1.6655,1.6655,1.6655,1.6655,1.6655,1.6655,1.6655,1.6655,1.6655,1.6655,1.6774,1.6979,1.6979,1.7184,1.75,1.75,1.7579,1.7681,1.7681,1.7681,1.7721,1.7942,1.8021,1.8052,1.8289,1.8818,1.9484,1.8724,1.9567,2.0614,1.9858,2.0241,2.0805,2.0805,2.1759,2.3089,2.4046,2.4613,2.4812,2.4812,2.4812,2.4812,2.4812,2.4812,2.4812,2.4812,2.4812,2.4812,2.4812,2.4812,2.4613,2.3836,2.3836,2.3647,2.2889,2.2889,2.2889,2.2889,2.2889,2.2889,2.2889,2.2889,2.2111,2.077,2.0761,1.9808,1.7716,1.617,1.5977,1.6555,1.6555,1.6555,1.6555,1.6555,1.6555,0.1643,0.203,0.2564,0.3101,0.3857,0.449,0.4819,0.5432,0.5917,0.5929,0.6397,0.6822,0.6881,0.7123,0.7314,0.7314,0.7314,0.7314,0.7314,0.7314,0.7314,0.7314,0.7473,0.7604,0.7671,0.7941,0.8135,0.8195,0.8298,0.8531,0.9051,1.1295,1.2668,1.3184,1.5435,1.6655,1.6655,1.6655,1.6655,1.6655,1.6655,1.6655,1.6655,1.6655,1.6655,1.6663,1.6774,1.7026,1.7342,1.7342,1.7727,1.8404,1.8404,1.867,1.9154,1.9154,1.9154,1.9188,1.9414,1.9498,1.9531,1.9774,2.0241,2.0614,2.0049,2.0623,2.1568,2.0996,2.1187,2.1759,2.1759,2.2519,2.3478,2.4235,2.4613,2.4812,2.4812,2.4812,2.4812,2.4812,2.4812,2.4812,2.4812,2.4812,2.4812,2.4812,2.4812,2.4812,2.4812,2.4812,2.4812,2.4812,2.4812,2.4812,2.4812,2.4812,2.4812,2.4812,2.4812,2.4225,2.288,2.287,2.1921,1.9816,1.8469,1.8469,1.9816,1.9051,1.8676,1.8676,1.8676,1.8676,0.2155,0.2477,0.2925,0.4112,0.4364,0.4548,0.5545,0.5874,0.5869,0.6215,0.6568,0.6865,0.7032,0.7199,0.7314,0.7314,0.7314,0.7314,0.7314,0.7314,0.7318,0.7326,0.7485,0.7663,0.7842,0.802,0.8191,0.8346,0.8358,0.9051,1.0441,1.1813,1.3012,1.4557,1.5948,1.6655,1.6655,1.6655,1.6655,1.6655,1.6655,1.6655,1.6655,1.6655,1.6671,1.6726,1.7034,1.7374,1.7705,1.7887,1.8637,1.9686,1.9686,2.0659,2.1759,2.1759,2.1759,2.1759,2.1759,2.1759,2.1759,2.1759,2.1949,2.1949,2.1949,2.1949,2.1949,2.1949,2.1949,2.1949,2.1949,2.2709,2.3478,2.3478,2.4235,2.4812,2.4812,2.4812,2.4812,2.4812,2.4812,2.4812,2.4812,2.4812,2.4812,2.4812,2.4812,2.4812,2.4812,2.4812,2.4812,2.4812,2.4812,2.4812,2.4812,2.4812,2.4812,2.4812,2.4812,2.4812,2.4812,2.4812,2.4036,2.1912,2.1903,2.1903,2.1903,2.0007,1.9059,1.9059,1.9059,1.9059,0.2092,0.2723,0.3363,0.4346,0.4858,0.5253,0.5695,0.5949,0.6199,0.6425,0.6746,0.704,0.7215,0.7282,0.7314,0.7314,0.7314,0.7314,0.7314,0.7314,0.7366,0.7496,0.7671,0.7846,0.8028,0.8195,0.831,0.8354,0.8358,0.9051,1.0441,1.1813,1.3012,1.4557,1.5948,1.6655,1.6655,1.6655,1.6655,1.6655,1.6655,1.6655,1.6655,1.6655,1.6932,1.7429,1.8405,1.8827,1.9154,2.0076,2.0677,2.1224,2.1224,2.1477,2.1759,2.1759,2.1759,2.1759,2.1759,2.1759,2.1949,2.306,2.3806,2.4383,2.3617,2.4383,2.5346,2.3468,2.3478,2.4046,2.4046,2.4235,2.4424,2.4424,2.4613,2.4812,2.4812,2.4812,2.4812,2.4812,2.4812,2.4812,2.4812,2.4812,2.4812,2.4812,2.4812,2.4812,2.4812,2.4812,2.4812,2.4812,2.4812,2.4812,2.4812,2.4812,2.4812,2.4812,2.4812,2.4812,2.4812,2.4812,2.4613,2.4036,2.4036,2.4036,2.4036,2.3647,2.3278,2.3278,2.3278,2.3278,0.1867,0.2707,0.3717,0.4763,0.5318,0.5651,0.5818,0.6135,0.6441,0.6619,0.6925,0.7195,0.7298,0.7314,0.7314,0.7314,0.7314,0.7314,0.7314,0.7314,0.7381,0.756,0.7739,0.7913,0.8096,0.8258,0.8705,0.9225,0.9225,1.009,1.2157,1.3012,1.4043,1.5427,1.6305,1.6655,1.6655,1.6655,1.6655,1.6655,1.6655,1.6734,1.6868,1.6868,1.7778,1.9178,1.9901,2.0305,2.0659,2.1222,2.1924,2.2519,2.3069,2.3637,2.4204,2.477,2.5136,2.5136,2.5136,2.5136,2.5324,2.6064,2.6626,2.7,2.6439,2.7187,2.7583,2.5534,2.5346,2.5733,2.499,2.4812,2.4812,2.4812,2.4812,2.5189,2.6484,2.6847,2.6847,2.6847,2.6296,2.5545,2.5001,2.4812,2.4812,2.4812,2.4812,2.4812,2.4812,2.4812,2.4812,2.4812,2.4812,2.4812,2.4812,2.4812,2.4812,2.4812,2.4812,2.4812,2.4812,2.4812,2.4812,2.4812,2.4812,2.4812,2.4812,2.4812,2.4812,2.4812,2.4812,2.4812,0.154,0.2562,0.3959,0.5139,0.5619,0.5914,0.5996,0.6298,0.6596,0.6794,0.7092,0.7314,0.7314,0.7314,0.7314,0.7314,0.7314,0.7314,0.7314,0.7466,0.7696,0.7903,0.7907,0.8086,0.8461,0.8618,0.9225,1.0441,1.0614,1.1813,1.4386,1.4557,1.5256,1.6655,1.6655,1.6655,1.6655,1.6655,1.6655,1.6655,1.6866,1.7239,1.7569,1.7786,1.9242,2.1578,2.1764,2.1981,2.251,2.2519,2.3079,2.4214,2.5512,2.645,2.7397,2.8886,2.9257,2.9257,2.9257,2.9257,2.9442,2.9628,2.9628,2.9628,2.9628,2.9628,2.9257,2.777,2.7397,2.7034,2.5733,2.5555,2.5555,2.5555,2.5555,2.6108,2.87,2.9257,2.9257,2.9257,2.8328,2.7034,2.5733,2.5555,2.5555,2.5555,2.5555,2.5367,2.5179,2.5179,2.5179,2.4812,2.4812,2.4812,2.4812,2.4812,2.4812,2.4812,2.4812,2.4812,2.4812,2.4812,2.4812,2.4812,2.4812,2.4812,2.4812,2.4812,2.4812,2.4812,2.4812,2.4812,0.1544,0.2475,0.3742,0.5083,0.5619,0.5947,0.6151,0.6389,0.6627,0.6941,0.7171,0.7314,0.7314,0.7314,0.7314,0.7314,0.7314,0.7314,0.7314,0.8224,0.8974,0.9518,0.9434,0.9611,1.0004,1.0076,1.0268,1.0441,1.1473,1.284,1.4557,1.4557,1.5256,1.6655,1.6655,1.6655,1.6655,1.6655,1.6655,1.6655,1.7791,1.9005,2.0284,2.1664,2.2814,2.3497,2.4447,2.5426,2.6802,2.6263,2.7023,2.8328,2.8514,2.87,2.9072,2.9257,2.9257,2.9257,2.9257,2.9257,2.9628,3.0736,3.1104,3.1104,3.1104,3.1104,3.0736,2.9442,2.8886,2.8886,2.8712,2.8514,2.8514,2.8514,2.8514,2.87,2.9257,2.9257,2.9257,2.9257,2.9072,2.8886,2.87,2.8514,2.8514,2.8514,2.8514,2.8142,2.6847,2.666,2.6285,2.5001,2.4812,2.4812,2.4812,2.4812,2.4812,2.4812,2.4812,2.4812,2.4812,2.4812,2.4812,2.4812,2.4812,2.4812,2.4812,2.4812,2.4812,2.4812,2.4812,2.4812,0.1505,0.242,0.3567,0.4501,0.5396,0.5925,0.6096,0.6346,0.6635,0.6977,0.7191,0.7314,0.7314,0.7314,0.7314,0.7314,0.7921,0.8224,0.8224,0.9279,1.0209,1.0694,1.0754,1.0939,1.1424,1.1473,1.1813,1.2502,1.3184,1.4214,1.5599,1.5777,1.5956,1.6655,1.6655,1.6655,1.6655,1.6655,1.7086,1.7775,1.829,1.9454,2.0943,2.3927,2.5844,2.6802,2.7198,2.7932,2.8688,2.8328,2.87,2.9442,3.0182,3.0551,3.0551,3.1288,3.1655,3.1655,3.1655,3.1655,3.1655,3.2388,3.257,3.257,3.257,3.257,3.2388,3.092,3.0551,3.0367,2.9628,2.9257,2.9257,2.9257,3.0551,3.1655,3.1655,3.1655,3.1655,3.1655,3.092,3.0551,3.0551,2.9813,2.9257,2.9257,2.9257,2.9072,2.8328,2.8328,2.7956,2.7221,2.7221,2.6847,2.6108,2.5921,2.5733,2.5001,2.4812,2.4812,2.4812,2.4812,2.4812,2.4812,2.4812,2.4812,2.4812,2.4812,2.4812,2.4812,2.4812,2.4812,0.1525,0.2348,0.3418,0.3826,0.4781,0.5748,0.5981,0.6223,0.652,0.6865,0.7108,0.7421,0.7765,0.7769,0.7921,0.8068,0.8977,0.9587,0.9587,1.0482,1.1436,1.1986,1.2053,1.226,1.2785,1.284,1.3356,1.4557,1.4907,1.5606,1.6647,1.6655,1.6655,1.6655,1.6989,1.6989,1.6989,1.716,1.7839,1.8891,1.933,2.028,2.1787,2.569,2.8328,2.9813,2.9813,2.9997,3.0182,2.9997,2.9997,3.0367,3.1471,3.2021,3.2021,3.3132,3.3678,3.3678,3.3678,3.3678,3.3678,3.3678,3.3678,3.3678,3.3678,3.3678,3.3314,3.2205,3.2021,3.1655,3.0551,3.0182,3.0182,3.0182,3.2021,3.3678,3.3678,3.3678,3.3678,3.3678,3.2767,3.2021,3.2021,3.1104,3.0182,3.0182,3.0182,3.0182,2.9813,2.9813,2.9628,2.9442,2.9257,2.8886,2.7583,2.7583,2.7034,2.5921,2.5555,2.5367,2.5367,2.5367,2.5367,2.5367,2.499,2.4812,2.4812,2.4812,2.4812,2.4812,2.4812,2.4812,0.144,0.1971,0.2837,0.3509,0.4072,0.4742,0.5775,0.6032,0.6155,0.6512,0.6846,0.7419,0.8797,0.8987,0.9284,1.0331,1.0627,1.0777,1.0777,1.1843,1.2827,1.3588,1.3497,1.3729,1.4331,1.4386,1.4386,1.4557,1.5777,1.6655,1.6655,1.6655,1.6655,1.6655,1.7492,1.8003,1.8003,1.8844,1.9365,1.9931,2.1204,2.2859,2.4736,2.7869,2.9997,3.1288,3.1288,3.2021,3.3132,3.1838,3.2021,3.3314,3.3314,3.3496,3.3496,3.3496,3.3678,3.3678,3.3678,3.3678,3.3678,3.3678,3.3678,3.3678,3.3678,3.3678,3.3692,3.3496,3.3496,3.3314,3.3314,3.3314,3.3314,3.3314,3.3496,3.3678,3.3678,3.3678,3.3678,3.3678,3.3496,3.3496,3.3496,3.3314,3.3314,3.3314,3.3314,3.2767,3.1471,3.1288,3.0736,2.9442,2.9257,2.9257,2.9072,2.9072,2.9072,2.8886,2.7583,2.6847,2.6847,2.6847,2.6847,2.6847,2.5555,2.4812,2.4812,2.4812,2.4812,2.4812,2.4812,2.4812,0.1513,0.2025,0.2738,0.3459,0.3977,0.4534,0.5507,0.5699,0.5947,0.7064,0.7617,0.8385,0.9632,1.0086,1.0331,1.0777,1.1536,1.1993,1.1993,1.3051,1.4192,1.4699,1.4774,1.5036,1.571,1.5948,1.5948,1.5948,1.6981,1.7492,1.7492,1.7995,1.8335,1.8335,1.8674,1.8844,1.8844,1.9582,2.0763,2.2578,2.3577,2.5668,2.8911,3.0067,3.1471,3.2767,3.2767,3.3132,3.3496,3.2949,3.3132,3.3678,3.3678,3.3678,3.3678,3.3678,3.3678,3.3678,3.3678,3.3678,3.3678,3.3678,3.3678,3.3678,3.3678,3.3678,3.3678,3.3678,3.3678,3.3678,3.3678,3.3678,3.3678,3.3678,3.3678,3.3678,3.3678,3.3678,3.3678,3.3678,3.3678,3.3678,3.3678,3.3678,3.3678,3.3678,3.3678,3.3496,3.2767,3.2767,3.2584,3.2021,3.2021,3.1655,3.0736,3.0551,3.0182,2.9442,2.87,2.8886,2.9615,2.8886,2.8328,2.8328,2.7034,2.6108,2.6108,2.5367,2.4812,2.4812,2.4812,2.4812,0.1711,0.2104,0.2666,0.3635,0.4038,0.4436,0.5154,0.575,0.645,0.7669,0.8328,0.9201,1.0519,1.1082,1.1436,1.1967,1.2744,1.3387,1.3489,1.4252,1.4966,1.5653,1.574,1.5976,1.6592,1.6989,1.716,1.716,1.8003,1.8504,1.8504,1.9004,1.9512,1.9512,1.9681,1.9841,1.9841,2.0925,2.2569,2.4621,2.5658,2.8155,3.2205,3.2205,3.2767,3.3678,3.3678,3.3678,3.3678,3.3678,3.3678,3.3678,3.3678,3.3678,3.3678,3.3678,3.3678,3.3678,3.3678,3.3678,3.3678,3.3678,3.3678,3.3678,3.3678,3.3678,3.3678,3.3678,3.3678,3.3678,3.3678,3.439,3.5263,3.5263,3.5263,3.5263,3.5263,3.4918,3.4571,3.4571,3.4027,3.3678,3.3678,3.3678,3.3678,3.3678,3.3678,3.3678,3.3678,3.3678,3.3678,3.3678,3.3678,3.3132,3.2218,3.2205,3.1655,3.0736,3.0182,3.0551,3.2021,3.0736,2.9997,2.9997,2.8514,2.7397,2.7023,2.5921,2.5367,2.4812,2.4812,2.4812,0.2204,0.2314,0.2673,0.3895,0.4136,0.428,0.5083,0.6526,0.7784,0.8148,0.8716,0.9682,1.1326,1.1945,1.2676,1.4336,1.4548,1.4666,1.5029,1.5077,1.5337,1.6032,1.6111,1.6253,1.6616,1.7492,1.8003,1.8003,1.8844,1.9343,1.9343,1.9512,1.9512,1.9512,2.0179,2.0506,2.0506,2.3492,2.5198,2.5692,2.7658,3.0371,3.3678,3.3678,3.3678,3.3678,3.3678,3.3678,3.3678,3.3678,3.3678,3.3678,3.3678,3.3678,3.3678,3.3678,3.3678,3.3678,3.3678,3.3678,3.3678,3.3678,3.3678,3.3678,3.3678,3.3678,3.3678,3.3678,3.3678,3.3678,3.3678,3.6326,3.9151,3.9151,3.9151,3.9151,3.9151,3.7753,3.6536,3.6536,3.4918,3.3678,3.3678,3.3678,3.3678,3.3678,3.3678,3.3678,3.3678,3.3678,3.3678,3.3678,3.3678,3.3678,3.3678,3.3678,3.3678,3.3496,3.2205,3.2021,3.3496,3.2205,3.1471,3.1471,2.9997,2.8514,2.7023,2.7023,2.6285,2.4812,2.4812,2.4812,0.3183,0.3455,0.41,0.5721,0.5663,0.5468,0.6722,0.7385,0.784,0.7923,0.8729,1.0051,1.1681,1.258,1.3289,1.3822,1.424,1.4666,1.5037,1.5239,1.5337,1.6032,1.6119,1.6253,1.6624,1.7492,1.8003,1.8003,1.9334,2.0169,2.0169,2.0862,2.1535,2.2531,2.2854,2.3689,2.5054,2.6074,2.7475,2.9086,3.1107,3.2587,3.3678,3.3678,3.3678,3.3678,3.3678,3.3678,3.3678,3.3678,3.3678,3.3678,3.3678,3.3678,3.386,3.5098,3.5638,3.5818,3.7041,3.7559,3.7559,3.7559,3.7559,3.7559,3.7559,3.7559,3.7559,3.7559,3.7559,3.7559,3.7559,3.8446,3.9327,3.9327,3.9327,3.9327,3.9327,3.8815,3.8462,3.8462,3.7914,3.7041,3.5818,3.5638,3.5098,3.386,3.3678,3.3678,3.3678,3.3678,3.3678,3.3678,3.3678,3.3678,3.3678,3.3678,3.3678,3.3678,3.3132,3.3132,3.3678,3.3132,3.2949,3.2949,3.1471,3.0551,2.9985,2.9072,2.777,2.6285,2.6285,2.5733,0.4146,0.4533,0.5123,0.6705,0.7093,0.7244,0.8326,0.871,0.865,0.8643,0.9282,1.0326,1.1446,1.2432,1.319,1.3589,1.4019,1.4374,1.4998,1.5187,1.5479,1.6047,1.6562,1.6907,1.6802,1.8165,1.8835,1.8674,2.0188,2.1189,2.1189,2.2217,2.321,2.4032,2.4542,2.5623,2.7017,2.8071,2.9613,3.1854,3.3131,3.3678,3.3678,3.3678,3.3678,3.3678,3.3678,3.3678,3.3678,3.439,3.4752,3.4752,3.5459,3.5803,3.5983,3.7041,3.7575,3.7753,3.8799,3.9327,3.9327,3.9327,3.9327,3.9327,3.9327,3.9327,3.9327,3.9327,3.9327,3.9679,4.1095,4.1442,4.1442,4.1442,4.1442,4.1442,4.1442,4.092,4.0397,4.0397,3.9679,3.8975,3.7753,3.7575,3.7219,3.5983,3.5803,3.5803,3.5803,3.5098,3.4752,3.4752,3.4041,3.3678,3.3678,3.3678,3.3678,3.3678,3.3678,3.3678,3.3678,3.3678,3.3678,3.3678,3.2753,3.2021,3.1471,3.0551,2.9442,2.7956,2.7956,2.7408,0.5108,0.5546,0.6089,0.7204,0.8341,0.9355,0.978,1.0151,1.0172,0.9946,1.0143,1.0459,1.0775,1.1499,1.2438,1.3397,1.362,1.4027,1.5088,1.5369,1.5708,1.6236,1.7268,1.7833,1.716,1.9334,2.0506,1.9841,2.1377,2.2227,2.2227,2.3544,2.4198,2.4364,2.5536,2.6649,2.7419,2.9133,3.1211,3.3678,3.3678,3.3678,3.3678,3.3678,3.3678,3.386,3.386,3.386,3.4223,3.5998,3.6699,3.6878,3.8622,3.9327,3.9327,3.9503,3.9503,3.9503,3.9679,3.9679,3.9679,3.9679,3.9679,3.9679,3.9679,3.9679,3.9679,3.9679,3.9679,4.038,4.3928,4.497,4.497,4.497,4.497,4.497,4.497,4.3567,4.2344,4.2344,4.092,3.9679,3.9503,3.9503,3.9503,3.9327,3.9327,3.9327,3.9327,3.7753,3.6699,3.6699,3.5098,3.4041,3.386,3.386,3.386,3.386,3.3678,3.3678,3.3678,3.3678,3.3678,3.3678,3.3678,3.2949,3.1655,3.1655,3.092,2.9442,2.9442,2.9442,0.5782,0.6456,0.7371,0.8563,0.9427,1.0068,1.0195,1.0135,0.9977,0.9891,1.0549,1.094,1.0311,1.1209,1.2199,1.2632,1.3715,1.4605,1.5088,1.585,1.6682,1.7051,1.7764,1.8674,2.0179,2.1515,2.2509,2.3488,2.4518,2.5039,2.5039,2.537,2.6031,2.6993,2.7333,2.8659,3.0733,3.1229,3.209,3.3678,3.3678,3.3678,3.3678,3.3678,3.439,3.5818,3.5818,3.6699,3.7914,3.8462,3.8622,3.8622,3.9151,3.9327,3.9503,4.092,4.146,4.1633,4.3034,4.3567,4.3567,4.3567,4.3567,4.3567,4.3567,4.3567,4.3567,4.3567,4.3567,4.3739,4.463,4.497,4.497,4.497,4.497,4.497,4.497,4.463,4.427,4.427,4.391,4.3206,4.1807,4.146,4.0938,3.952,3.9327,3.9327,3.9327,3.8992,3.8622,3.8622,3.8269,3.7397,3.5983,3.5818,3.5818,3.5818,3.439,3.3678,3.3678,3.3678,3.3678,3.3678,3.3678,3.3496,3.3132,3.3132,3.2388,3.092,3.092,3.0367,0.648,0.7259,0.8438,1.0325,1.1371,1.183,1.1641,1.1681,1.1599,1.1508,1.1782,1.204,1.1729,1.2084,1.2576,1.2985,1.4635,1.6055,1.6388,1.7956,1.9139,1.9361,2.0437,2.1494,2.2164,2.3521,2.4341,2.4637,2.5511,2.6043,2.6043,2.669,2.7333,2.7974,2.8654,2.9888,3.1801,3.2657,3.3807,3.4932,3.5803,3.6162,3.6162,3.6162,3.6862,3.7753,3.7753,3.8269,3.9327,4.0222,4.0571,4.0746,4.1442,4.1807,4.198,4.3034,4.3396,4.3567,4.463,4.497,4.497,4.497,4.497,4.497,4.497,4.497,4.497,4.497,4.497,4.497,4.497,4.497,4.497,4.497,4.497,4.497,4.497,4.497,4.497,4.497,4.497,4.463,4.3567,4.3396,4.3034,4.198,4.1807,4.1807,4.1807,4.1095,4.0571,4.0571,3.9854,3.8799,3.793,3.7753,3.7397,3.6536,3.6341,3.5803,3.4932,3.4932,3.4571,3.3692,3.3678,3.3678,3.3678,3.3678,3.3314,3.2401,3.2401,3.2021,0.7412,0.8257,0.9582,1.2057,1.3312,1.3667,1.336,1.3528,1.3644,1.3244,1.317,1.3275,1.35,1.3343,1.328,1.3615,1.5373,1.7029,1.7976,2.0264,2.1934,2.2012,2.3462,2.4379,2.4117,2.5499,2.6183,2.5475,2.6171,2.669,2.669,2.7674,2.8314,2.8314,2.9318,3.0908,3.2643,3.4144,3.5678,3.7056,3.8446,3.9327,3.9327,3.9327,3.9503,3.9679,3.9679,3.9854,4.0205,4.198,4.2517,4.2689,4.4289,4.497,4.497,4.497,4.497,4.497,4.497,4.497,4.497,4.497,4.497,4.497,4.497,4.497,4.497,4.497,4.4989,4.4989,4.4989,4.4989,4.497,4.514,4.5159,4.5159,4.5159,4.497,4.4989,4.4989,4.4989,4.497,4.497,4.497,4.497,4.497,4.497,4.497,4.497,4.3586,4.2517,4.2517,4.1095,4.003,3.9679,3.9679,3.8975,3.7591,3.8815,3.8799,3.7056,3.6878,3.5983,3.4027,3.386,3.3678,3.3678,3.3678,3.3678,3.3678,3.3678,3.3678,0.881,1.0302,1.2213,1.2917,1.3465,1.3751,1.3677,1.3507,1.3244,1.3269,1.3963,1.4266,1.294,1.3964,1.4568,1.3238,1.418,1.5806,1.7746,2.0413,2.2315,2.291,2.347,2.4804,2.7092,2.7484,2.8151,2.8979,2.9318,2.9332,2.9332,2.9494,2.9656,2.9656,2.9833,3.2028,3.6314,3.6664,3.737,3.8815,3.9151,3.9327,3.9327,3.9327,4.0205,4.1825,4.1825,4.2689,4.4099,4.4289,4.446,4.446,4.48,4.497,4.497,4.497,4.497,4.497,4.497,4.497,4.497,4.497,4.497,4.497,4.497,4.497,4.497,4.497,4.5159,4.5518,4.5518,4.5518,4.5668,4.6005,4.6005,4.6005,4.6005,4.5837,4.5518,4.5518,4.5159,4.497,4.497,4.497,4.497,4.497,4.497,4.497,4.497,4.463,4.446,4.446,4.427,4.3396,4.1807,4.1825,4.1633,4.1286,4.1633,4.092,3.8975,3.8815,3.793,3.6177,3.439,3.3678,3.3678,3.3678,3.3678,3.3678,3.3678,3.3678,1.0548,1.2342,1.4148,1.4279,1.474,1.513,1.513,1.5266,1.5207,1.4921,1.5365,1.5499,1.4841,1.5488,1.5934,1.5669,1.6082,1.7412,1.9925,2.299,2.512,2.5861,2.6269,2.7163,2.8924,2.8993,2.9318,2.9833,2.9995,2.9995,2.9995,2.9995,3.0289,3.1226,3.1226,3.3139,3.7147,3.8158,3.9432,4.092,4.1807,4.2326,4.2326,4.2326,4.2862,4.3586,4.3586,4.4099,4.497,4.497,4.497,4.497,4.497,4.497,4.497,4.497,4.497,4.497,4.497,4.497,4.497,4.497,4.497,4.497,4.497,4.5329,4.5648,4.5648,4.5837,4.6005,4.6005,4.6005,4.6025,4.6174,4.6342,4.6342,4.6342,4.6174,4.6005,4.6005,4.5837,4.5648,4.5648,4.5498,4.5329,4.5329,4.5159,4.497,4.497,4.497,4.497,4.497,4.497,4.463,4.3739,4.3586,4.3586,4.3586,4.3586,4.3224,4.2326,4.1286,4.0397,3.9696,3.6699,3.5278,3.5278,3.4223,3.3678,3.3678,3.3678,3.3678,1.3069,0.0,1.6155,1.5982,1.6504,1.6937,0.0,1.719,1.7479,1.7116,1.7021,1.7076,1.7212,1.7184,1.7379,1.8276,1.8375,1.9356,2.2345,2.5092,2.7425,2.9135,2.959,3.0195,3.1007,3.1081,3.1081,3.1081,3.1081,3.1081,3.1081,3.1081,3.1707,3.2936,3.3411,3.5203,3.8323,3.9854,4.1322,4.288,4.427,4.497,4.497,4.497,4.497,4.497,4.497,4.497,4.497,4.497,4.497,4.497,4.497,4.497,4.497,4.497,4.497,4.497,4.531,4.5479,4.5479,4.5479,4.531,4.5159,4.5159,4.6155,4.7161,4.6174,4.6323,4.6659,4.6342,4.6342,4.6342,4.6511,4.6511,4.6511,4.6511,4.6511,4.6511,4.6511,4.6342,4.6342,4.6342,4.6005,4.5687,4.5687,4.5159,4.497,4.497,4.497,4.497,4.497,4.497,4.497,4.497,4.497,4.497,4.497,4.497,4.497,4.497,4.3567,4.2707,4.2171,3.9344,3.7591,3.7235,3.5638,3.4752,3.4404,3.4404,3.4041,0.0,1.8125,1.8628,1.7898,1.8293,1.8703,1.7955,1.8367,0.0,1.9177,1.9256,1.9149,1.8767,1.8478,1.8712,1.9851,1.9884,2.0755,2.3859,2.5329,2.7561,3.2031,3.2576,3.3153,3.4538,3.467,3.467,3.467,3.467,3.467,3.467,3.467,3.467,3.4827,3.6402,3.8756,4.2181,4.2361,4.3193,4.463,4.4819,4.497,4.497,4.497,4.497,4.497,4.497,4.497,4.497,4.497,4.497,4.497,4.497,4.497,4.497,4.497,4.497,4.514,4.6787,4.7455,4.7455,4.7455,4.6659,4.5687,4.6005,4.8305,4.9763,4.6135,4.6471,4.7787,4.6491,4.6342,4.6511,4.7368,4.7535,4.7535,4.7535,4.7201,4.7033,4.7033,4.6511,4.6342,4.6342,4.6005,4.5687,4.5687,4.5159,4.497,4.497,4.497,4.497,4.497,4.497,4.497,4.497,4.497,4.497,4.497,4.497,4.497,4.497,4.48,4.3928,4.2171,4.1998,4.092,3.9151,3.8975,3.793,3.6341,3.6341,3.5278,1.8136,1.8547,1.873,1.8456,1.8456,1.8456,1.8196,1.8196,1.8456,1.8912,1.9241,1.9538,1.9914,1.9774,1.9924,2.1033,2.0676,2.1379,2.4399,2.5566,2.7255,3.0271,3.1988,3.3386,3.4851,3.4984,3.4984,3.4984,3.4984,3.4984,3.4984,3.4984,3.592,3.8097,3.8726,4.0176,4.2522,4.254,4.3357,4.497,4.497,4.497,4.497,4.497,4.497,4.497,4.497,4.497,0.0,4.497,4.5629,4.6471,4.531,4.6432,4.8347,4.7101,4.7415,4.8512,4.9046,4.9231,4.9231,4.9231,4.8902,4.8429,4.8573,5.0047,5.134,5.0188,5.035,5.0674,4.9067,4.8759,4.8449,4.7848,4.7701,4.7701,4.7701,4.7535,4.7388,4.7388,4.7201,4.7201,4.7201,4.6866,4.653,4.653,4.6826,4.6954,4.6954,4.7601,4.7747,4.6787,4.6619,4.6619,4.6619,4.6619,4.6135,4.4989,4.497,4.497,4.497,4.497,4.463,4.3928,4.3928,4.288,4.1095,4.1095,4.0047,3.8269,3.8269,3.793,1.9344,1.9589,1.9769,1.9499,1.9499,1.954,1.9029,1.8965,1.9166,1.9286,1.9865,2.0379,2.0752,2.1089,2.1691,2.268,2.2397,2.3122,2.6269,2.7041,2.8283,3.0465,3.289,3.468,3.5723,3.6262,3.654,3.654,3.654,3.654,3.654,3.654,3.7637,3.9978,3.9978,4.0794,4.2522,4.254,4.3357,4.497,4.497,4.497,4.497,4.5479,4.5798,4.5798,4.6284,4.66,4.66,4.66,4.7415,4.8553,4.7228,4.8347,5.061,4.9189,4.9516,5.0631,5.0835,5.1018,5.1018,5.1018,5.1018,5.1018,5.0534,5.1479,5.2912,5.3746,5.3566,5.2776,5.1158,5.0835,5.0512,4.9436,4.9293,4.9293,4.9293,4.9293,4.9293,4.9293,4.88,4.8635,4.9129,4.849,4.7994,4.847,4.8923,4.9231,4.9046,4.9842,4.9863,4.8573,4.8429,4.8429,4.8429,4.8429,4.7601,4.5798,4.5798,4.5479,4.497,4.497,4.497,4.497,4.497,4.427,4.3052,4.3052,4.2344,4.1095,4.0397,3.9854,2.1081,2.1689,2.215,2.1285,2.1948,2.2301,2.0651,2.1068,2.162,2.097,2.1425,2.1802,2.1303,2.2687,2.4251,2.5147,2.5277,2.6396,2.9687,3.0069,3.0904,3.3612,3.5972,3.7491,3.7491,3.901,4.0129,3.9978,3.9978,3.9978,3.9978,4.0129,4.0129,4.0129,4.0129,4.0967,4.2682,4.2701,4.3357,4.497,4.497,4.497,4.497,4.6787,4.7621,4.7767,4.9394,5.0188,5.0188,5.0188,5.0491,5.0749,5.0771,5.0749,5.0749,5.0749,5.0469,5.0512,5.2344,5.2843,5.2843,5.2843,5.316,5.316,5.1544,5.2481,5.4372,5.6143,5.535,5.3723,5.2437,5.2119,5.23,5.2596,5.2618,5.2618,5.2618,5.2618,5.2618,5.2618,5.1318,5.0674,5.2437,5.0997,5.0188,5.1799,5.1799,5.1297,5.0771,5.0749,5.061,5.0188,5.0188,5.0188,5.0209,5.0188,4.9394,4.7787,4.7621,4.6787,4.497,4.497,4.497,4.497,4.497,4.497,4.497,4.497,4.497,4.48,4.3052,4.1112,2.3466,2.3876,2.393,2.3212,2.3339,2.3653,2.3298,2.3073,2.3015,2.3541,2.3273,2.3106,2.3662,2.4328,2.5073,2.5919,2.5606,2.6763,3.1036,3.0618,3.1583,3.6004,3.8065,3.9119,3.884,4.056,4.129,4.0129,3.9978,3.9978,3.9978,4.1141,4.2142,4.3318,4.231,4.3024,4.5903,4.5924,4.6807,4.8573,4.8573,4.8573,4.8573,4.9231,4.9537,4.9821,5.0308,5.0814,5.1158,5.1158,5.1937,5.2912,5.1777,5.2732,5.466,5.3206,5.3386,5.4215,5.4597,5.4908,5.504,5.504,5.535,5.5527,5.504,5.5481,5.6401,5.6882,5.6906,5.6625,5.6296,5.5326,5.4193,5.2935,5.2618,5.2618,5.2618,5.2618,5.2618,5.2618,5.2278,5.2141,5.2618,5.2119,5.1959,5.2459,5.3251,5.3723,5.3543,5.4036,5.3857,5.2596,5.3273,5.3296,5.2185,5.2025,5.134,4.9558,4.9394,4.8573,4.6954,4.6807,4.6303,4.497,4.497,4.497,4.497,4.497,4.497,4.48,4.4289,4.3739,2.5931,2.5859,2.5561,2.5132,2.5557,2.5883,2.5377,2.5247,2.5246,2.5115,2.4865,2.4751,2.5069,2.6349,2.7272,2.7092,2.7649,2.9328,3.285,3.2546,3.3563,3.7752,3.9703,4.0618,4.0461,4.2104,4.2879,4.2014,4.1866,4.1866,4.1866,4.2732,4.3756,4.4626,4.3756,4.463,4.7428,4.7449,4.8383,5.0188,5.0329,5.0329,5.0491,5.1318,5.1777,5.2074,5.271,5.3228,5.3566,5.3566,5.4193,5.5148,5.417,5.4993,5.6601,5.5172,5.5326,5.6143,5.5705,5.5859,5.6143,5.6143,5.6625,5.7106,5.7106,5.7258,5.7536,5.7536,5.7735,5.791,5.791,5.7106,5.6143,5.5017,5.4683,5.4683,5.4683,5.4683,5.4683,5.4683,5.4215,5.4059,5.4706,5.4215,5.4059,5.4683,5.5504,5.5812,5.5635,5.5966,5.5812,5.4527,5.5195,5.5063,5.3971,5.3814,5.316,5.134,5.1179,5.0371,4.8738,4.8573,4.7767,4.5967,4.5967,4.5629,4.497,4.497,4.497,4.497,4.497,4.497,2.8156,2.7539,2.6946,2.6875,2.7998,2.8716,2.7044,2.7631,2.7959,2.6289,2.6418,2.6692,2.5951,2.8493,3.0247,2.8635,3.0666,3.3104,3.5058,3.5167,3.6239,3.9227,4.1004,4.198,4.2065,4.3846,4.4914,4.477,4.477,4.477,4.5058,4.5036,4.5036,4.5201,4.5122,4.6065,4.804,4.8147,4.9072,5.0674,5.1114,5.1253,5.1414,5.3386,5.4372,5.4372,5.5966,5.6625,5.6625,5.6625,5.693,5.7185,5.7185,5.7185,5.7185,5.6754,5.6625,5.6473,5.6143,5.6296,5.6625,5.6625,5.7258,5.791,5.791,5.791,5.791,5.791,5.791,5.791,5.791,5.791,5.791,5.791,5.791,5.791,5.791,5.791,5.791,5.791,5.6625,5.6119,5.7584,5.6601,5.6143,5.7735,5.791,5.7735,5.7361,5.6906,5.6473,5.6119,5.5966,5.5836,5.5574,5.542,5.4775,5.3318,5.316,5.2344,5.0512,5.0371,4.9558,4.7933,4.7933,4.7121,4.546,4.531,4.514,4.514,4.497,4.497,2.9461,2.8729,2.7854,2.7534,2.8782,3.0107,2.9917,3.0037,3.0041,2.9691,2.9038,2.859,2.8427,2.9667,3.0884,3.129,3.1938,3.3748,3.728,3.6864,3.7978,4.2932,4.3552,4.3897,4.4671,4.5776,4.5894,4.477,4.477,4.5752,4.805,4.7026,4.7048,4.8628,4.8402,4.9543,5.2118,5.2934,5.396,5.5172,5.5326,5.5326,5.5326,5.5812,5.6119,5.6554,5.6882,5.7233,5.7584,5.7584,5.7735,5.7735,5.7735,5.756,5.7185,5.7034,5.6906,5.6625,5.6473,5.6754,5.7034,5.7034,5.7385,5.791,5.791,5.791,5.791,5.791,5.791,5.791,5.791,5.791,5.791,5.791,5.791,5.791,5.791,5.791,5.791,5.791,5.7584,5.7433,5.791,5.7584,5.7433,5.791,5.791,5.791,5.7735,5.7385,5.7034,5.6882,5.6425,5.6143,5.632,5.5729,5.5396,5.535,5.5063,5.4261,5.2754,5.2481,5.1661,5.0124,4.9679,4.9394,4.9067,4.7767,4.7121,4.6954,4.5986,4.5329,3.1543,3.0755,2.9791,2.9191,3.053,3.2054,3.1668,3.2287,3.2864,3.2259,3.1746,3.1385,3.132,3.2219,3.3096,3.3578,3.4613,3.6275,3.8832,3.9071,4.0406,4.424,4.5022,4.5491,4.6473,4.7456,4.7609,4.6907,4.6907,4.7771,4.9637,4.8904,4.9041,5.007,4.9879,5.0886,5.3472,5.4045,5.5096,5.6625,5.6754,5.6906,5.6906,5.7106,5.7258,5.7536,5.7536,5.7711,5.791,5.791,5.791,5.791,5.791,5.7735,5.7536,5.7209,5.7233,5.7106,5.6906,5.7082,5.7536,5.7536,5.7735,5.791,5.791,5.791,5.791,5.791,5.791,5.791,5.791,5.791,5.791,5.791,5.791,5.791,5.791,5.791,5.791,5.791,5.791,5.791,5.791,5.791,5.791,5.791,5.791,5.791,5.791,5.7735,5.7385,5.7185,5.673,5.6601,5.6625,5.6166,5.6013,5.6296,5.6013,5.5682,5.5017,5.4729,5.3902,5.2074,5.1937,5.1457,5.0469,4.9863,4.9046,4.8223,4.7415,4.6619,3.3455,3.2517,3.1663,3.078,3.2119,3.3401,3.2906,3.3987,3.4921,3.4434,3.4057,3.3916,3.4206,3.4741,3.538,3.6354,3.766,3.9088,4.0468,4.1438,4.2753,4.4691,4.5696,4.6654,4.7823,4.8847,4.9339,4.9339,4.9339,4.9637,5.0365,5.0365,5.0365,5.0365,5.0365,5.1507,5.3615,5.3831,5.4885,5.6778,5.7058,5.7361,5.7361,5.7735,5.791,5.791,5.791,5.791,5.791,5.791,5.791,5.791,5.791,5.791,5.791,5.7385,5.756,5.791,5.7385,5.7536,5.791,5.791,5.791,5.791,5.791,5.791,5.791,5.791,5.791,5.791,5.791,5.791,5.791,5.791,5.791,5.791,5.791,5.791,5.791,5.791,5.791,5.791,5.791,5.791,5.791,5.791,5.791,5.791,5.791,5.791,5.7735,5.7361,5.7185,5.7058,5.6778,5.6625,5.6625,5.6625,5.6625,5.6625,5.6625,5.6625,5.5812,5.4193,5.4349,5.3543,5.1733,5.1937,5.1136,4.9658,4.9495,4.8553,3.4126,3.2796,3.1663,3.0867,3.1583,3.2906,3.4533,3.4479,3.4553,3.6151,3.5123,3.4435,3.6501,3.5288,3.5696,4.0787,4.0038,3.9841,4.278,4.3242,4.3906,4.587,4.6117,4.7089,4.9236,4.9543,4.9774,5.0206,5.0206,5.0206,5.0365,5.0365,5.0365,5.0365,5.066,5.2082,5.4474,5.5399,5.6494,5.776,5.7735,5.791,5.791,5.791,5.791,5.791,5.791,5.791,5.791,5.791,5.791,5.791,5.791,5.791,5.791,5.791,5.791,5.791,5.791,5.791,5.791,5.791,5.791,5.791,5.791,5.791,5.791,5.791,5.791,5.791,5.791,5.791,5.791,5.791,5.791,5.791,5.791,5.791,5.791,5.791,5.791,5.791,5.791,5.791,5.791,5.791,5.791,5.791,5.791,5.791,5.791,5.7886,5.7385,5.7361,5.7735,5.6954,5.6778,5.7034,5.6754,5.6754,5.7034,5.6754,5.6601,5.6706,5.6425,5.6143,5.5812,5.4372,5.3566,5.3386,5.2119,5.1318,3.6103,3.5098,3.4315,3.2838,3.3285,3.4435,3.5905,3.6368,3.6488,3.6827,3.7092,3.7327,3.7232,3.7262,3.8412,4.1808,4.1391,4.1372,4.331,4.3629,4.4027,4.5308,4.586,4.6902,4.8757,4.9443,4.991,5.0365,5.0771,5.1041,5.1041,5.1041,5.1041,5.1041,5.1175,5.1772,5.2834,5.4494,5.6202,5.791,5.791,5.791,5.791,5.791,5.791,5.791,5.791,5.791,5.791,5.791,5.791,5.791,5.791,5.791,5.791,5.791,5.791,5.791,5.791,5.791,5.791,5.791,5.791,5.791,5.791,5.791,5.791,5.791,5.791,5.791,5.791,5.791,5.791,5.791,5.791,5.791,5.791,5.791,5.791,5.791,5.791,5.791,5.791,5.791,5.791,5.791,5.791,5.791,5.791,5.791,5.791,5.791,5.7711,5.7711,5.791,5.7584,5.7409,5.756,5.7409,5.7409,5.756,5.7409,5.7233,5.7185,5.7233,5.7258,5.6906,5.6449,5.5658,5.4838,5.4193,5.3228,3.7959,3.7351,3.6915,3.5092,3.498,3.5718,3.7017,3.7289,3.741,3.7653,3.8066,3.84,3.8341,3.8932,4.0235,4.2834,4.2705,4.2724,4.3985,4.3915,4.3983,4.4776,4.5683,4.6844,4.8275,4.9452,5.0206,5.0636,5.1528,5.1819,5.1577,5.1577,5.1577,5.1577,5.1577,5.1577,5.1577,5.3566,5.5738,5.791,5.791,5.791,5.791,5.791,5.791,5.791,5.791,5.791,5.791,5.791,5.791,5.791,5.791,5.791,5.791,5.791,5.791,5.791,5.791,5.791,5.791,5.791,5.791,5.791,5.791,5.791,5.791,5.791,5.791,5.791,5.791,5.791,5.791,5.791,5.791,5.791,5.791,5.791,5.791,5.791,5.791,5.791,5.791,5.791,5.791,5.791,5.791,5.791,5.791,5.791,5.791,5.791,5.791,5.791,5.791,5.791,5.791,5.791,5.791,5.791,5.791,5.791,5.7735,5.7361,5.7735,5.7735,5.7361,5.7735,5.7258,5.5966,5.5966,5.5326,3.8996,3.8411,3.8131,3.7014,3.6066,3.5907,3.7971,3.6142,3.5194,3.9072,3.6825,3.5696,4.0776,3.9424,3.9353,4.5128,4.4272,4.3528,4.5451,4.4859,4.4344,4.4999,4.6039,4.7337,4.8907,5.0169,5.1065,5.1443,5.2668,5.2799,5.1552,5.1577,5.1577,5.1577,5.1577,5.1577,5.1577,5.3566,5.5738,5.791,5.791,5.791,5.791,5.791,5.791,5.791,5.791,5.791,5.791,5.791,5.791,5.791,5.791,5.791,5.791,5.791,5.791,5.791,5.791,5.791,5.791,5.791,5.791,5.791,5.791,5.791,5.791,5.791,5.791,5.791,5.791,5.791,5.791,5.791,5.791,5.791,5.791,5.791,5.791,5.791,5.791,5.791,5.791,5.791,5.791,5.791,5.791,5.791,5.791,5.791,5.791,5.791,5.791,5.791,5.791,5.791,5.791,5.791,5.791,5.791,5.791,5.791,5.791,5.791,5.791,5.791,5.791,5.791,5.791,5.776,5.776,5.7735,4.0836,4.0545,4.0253,3.9158,3.8679,3.8686,4.0159,3.9078,3.803,3.8722,3.8807,3.9115,3.9954,4.0803,4.2494,4.5942,4.5676,4.5268,4.5985,4.5624,4.5308,4.5582,4.5638,4.6692,4.9141,5.1371,5.3044,5.3991,5.44,5.4145,5.2799,5.2799,5.2431,5.1577,5.1577,5.1577,5.1577,5.3566,5.5031,5.5836,5.7251,5.791,5.791,5.791,5.791,5.791,5.791,5.791,5.791,5.791,5.791,5.791,5.791,5.791,5.791,5.791,5.791,5.791,5.791,5.791,5.791,5.791,5.791,5.791,5.791,5.791,5.791,5.791,5.791,5.791,5.791,5.791,5.791,5.791,5.791,5.791,5.791,5.791,5.791,5.791,5.791,5.791,5.791,5.791,5.791,5.791,5.791,5.791,5.791,5.791,5.791,5.791,5.871,5.9252,5.9252,5.9252,5.9252,5.9252,5.8436,5.791,5.791,5.791,5.791,5.791,5.791,5.791,5.791,5.791,5.791,5.791,5.791,5.791,4.1423,4.1181,4.0975,4.0089,3.991,4.0194,4.0877,4.0289,3.9482,3.9407,3.9972,4.0571,4.0545,4.2003,4.394,4.61,4.6446,4.651,4.6755,4.6692,4.6579,4.6579,4.6634,4.7632,5.0091,5.2455,5.4126,5.4751,5.5572,5.5535,5.4145,5.3657,5.3035,5.2192,5.2192,5.1927,5.1577,5.3727,5.4927,5.5488,5.6764,5.7818,5.8586,5.8186,5.791,5.791,5.791,5.791,5.791,5.791,5.791,5.791,5.791,5.791,5.791,5.791,5.791,5.791,5.791,5.791,5.791,5.791,5.791,5.791,5.791,5.791,5.791,5.791,5.791,5.791,5.791,5.791,5.791,5.791,5.791,5.791,5.791,5.791,5.791,5.791,5.791,5.791,5.791,5.791,5.791,5.791,5.791,5.791,5.791,5.8312,5.8858,5.9449,6.0251,6.0897,6.0897,6.0897,6.0897,6.0897,5.9985,5.9154,5.8734,5.8586,5.8436,5.791,5.791,5.791,5.791,5.791,5.791,5.791,5.791,5.791,4.0528,4.0475,4.0341,3.9794,3.9785,3.9876,3.9876,3.9098,3.9038,4.1087,3.99,3.9542,4.2883,4.2886,4.324,4.5838,4.6574,4.7049,4.7882,4.8066,4.8092,4.8092,4.8975,5.0125,5.1797,5.3231,5.4003,5.379,5.6149,5.6893,5.5509,5.4299,5.3528,5.3554,5.3425,5.2799,5.1552,5.3903,5.5635,5.6915,5.6504,5.7545,5.9953,5.866,5.8036,5.8061,5.791,5.791,5.791,5.791,5.791,5.791,5.791,5.791,5.791,5.791,5.791,5.791,5.791,5.791,5.791,5.791,5.791,5.791,5.791,5.791,5.791,5.791,5.791,5.791,5.791,5.791,5.791,5.791,5.791,5.791,5.791,5.791,5.791,5.791,5.791,5.791,5.791,5.791,5.791,5.791,5.791,5.8061,5.8061,5.9252,6.0779,6.2231,6.2487,6.2487,6.2487,6.2487,6.2487,6.2487,6.2346,6.1638,6.02,6.0055,5.9374,5.791,5.791,5.791,5.791,5.791,5.791,5.791,5.791,5.791,4.0251,4.0475,4.0341,3.9794,3.9704,3.9694,3.9694,3.8951,3.8567,4.0018,3.9978,4.0442,4.2484,4.3353,4.4396,4.6141,4.7239,4.8043,4.8263,4.8912,4.9369,4.9638,4.8984,4.9731,5.3012,5.3614,5.4587,5.6362,5.718,5.7387,5.7015,5.6553,5.5935,5.4907,5.3915,5.3295,5.293,5.4277,5.5228,5.5584,5.7249,5.8354,5.9076,5.9491,5.9631,5.9374,5.8312,5.791,5.791,5.791,5.791,5.791,5.791,5.791,5.791,5.791,5.791,5.791,5.791,5.791,5.791,5.791,5.791,5.791,5.791,5.791,5.791,5.791,5.791,5.791,5.791,5.791,5.791,5.791,5.791,5.791,5.791,5.791,5.791,5.791,5.791,5.791,5.791,5.791,5.791,5.791,5.8858,5.996,6.0949,6.1496,6.1922,6.2346,6.3325,6.4015,6.4015,6.4015,6.4015,6.4015,6.1896,6.049,6.0055,5.9129,5.8312,5.791,5.791,5.791,5.791,5.791,5.791,5.791,5.791,5.791,3.9731,3.9828,3.9448,3.8627,3.9015,3.9484,3.9107,3.9135,3.9351,3.9877,4.0501,4.1275,4.2338,4.346,4.4758,4.6169,4.7508,4.8503,4.9102,5.0032,5.0832,5.1069,5.0278,5.063,5.2938,5.3607,5.4402,5.5948,5.6541,5.6992,5.7498,5.7053,5.6553,5.628,5.5561,5.4933,5.4273,5.5459,5.6291,5.6762,5.7574,5.8575,5.9606,5.9738,5.9604,5.9557,5.9098,5.8626,5.809,5.8684,5.8461,5.791,5.791,5.791,5.7861,5.7398,5.7495,5.791,5.791,5.791,5.791,5.791,5.791,5.791,5.791,5.791,5.791,5.791,5.791,5.791,5.791,5.791,5.791,5.791,5.791,5.791,5.791,5.791,5.791,5.791,5.791,5.791,5.791,5.791,5.8186,5.871,6.0106,6.1353,6.2231,6.2907,6.3325,6.3325,6.4589,6.5455,6.5455,6.5455,6.5455,6.5455,6.3904,6.2601,6.2038,6.1092,6.0131,5.8858,5.8858,5.8586,5.791,5.791,5.791,5.791,5.791,5.791,3.8819,3.8521,3.7779,3.675,3.7643,3.8717,0.0,3.9104,4.0182,4.0251,4.1038,4.1846,4.2239,4.3333,4.4539,4.5848,4.7174,4.85,4.9741,5.1039,5.1857,5.1857,5.197,5.2055,5.2055,5.3042,5.3748,5.3783,5.4904,5.6061,5.7331,5.6191,5.6276,5.7455,5.739,5.6812,5.5633,5.692,5.8102,5.9045,5.7833,5.8497,6.0629,5.9444,5.8866,5.8786,5.9946,5.9623,5.8494,5.9436,5.9169,5.7967,5.7818,5.7694,5.7422,5.6422,5.669,5.7544,5.7544,5.7544,5.7569,5.7691,5.7715,5.7739,5.7886,5.791,5.791,5.791,5.791,5.791,5.791,5.791,5.791,5.791,5.791,5.791,5.791,5.791,5.791,5.791,5.791,5.791,5.791,5.8061,5.8734,6.0345,6.178,6.2654,6.2934,6.4042,6.4725,6.4725,6.6018,6.6895,6.6895,6.6895,6.6895,6.6895,6.6764,6.6018,6.4561,6.4425,6.302,6.02,6.0055,5.9399,5.791,5.791,5.791,5.791,5.791,5.7914,0.0,0.0,0.0,0.0,0.0,0.0,0.0,3.7071,3.7994,4.0208,4.0434,4.0601,4.184,4.2649,4.3111,4.3449,4.534,4.7258,4.8528,4.9741,5.0503,5.0503,5.1434,5.2055,5.2055,5.228,5.2845,5.3726,5.4114,5.4792,5.6033,5.5868,5.6319,5.7553,5.6511,5.6358,5.7069,5.7461,5.7691,5.791,5.8634,5.9278,5.9796,6.0414,6.0091,5.9141,6.0332,5.99,5.8614,5.8822,5.879,5.838,5.7274,5.62,5.525,5.5031,5.5079,5.5275,5.5275,5.5275,5.5421,5.6275,5.6544,5.6739,5.7642,5.791,5.791,5.791,5.791,5.791,5.791,5.791,5.791,5.791,5.791,5.791,5.791,5.791,5.791,5.791,5.791,5.791,5.791,5.8833,6.049,6.3298,6.3877,6.4589,6.5884,6.6178,6.6444,6.6444,6.6764,6.6895,6.6895,6.6895,6.6895,6.6895,6.5723,6.486,6.4561,6.3463,6.1922,6.0055,6.0055,5.9399,5.791,5.791,5.791,5.791,5.791,5.823,0.0,0.0,0.0,0.0,0.0,0.0,0.0,0.0,0.0,0.0,0.0,3.977,4.0862,0.0,4.2474,4.2743,4.4296,4.5961,4.723,4.8979,4.9882,4.9262,5.0305,5.1095,5.1095,5.1688,5.2337,5.2929,5.2986,5.3522,5.4763,5.482,5.5384,5.6625,5.6066,5.631,5.7532,5.7532,5.7837,5.8567,5.9185,5.9419,5.9447,6.0068,5.9965,5.9392,5.9853,6.0091,5.9856,5.9216,5.8364,5.7579,5.7207,5.6998,5.6722,5.6049,5.5747,5.5554,5.5554,5.5157,5.4713,5.525,5.5421,5.5543,5.6104,5.6641,5.7081,5.7081,5.7471,5.791,5.791,5.8061,5.8186,5.791,5.8061,5.8186,5.791,5.8436,5.8981,5.8981,5.9546,6.0131,6.0131,6.1638,6.3437,6.4833,6.5589,6.6283,6.7027,6.7027,6.6895,6.7157,6.7186,6.7186,6.7186,6.7186,6.7027,6.6895,6.6178,6.5723,6.5723,6.505,6.3634,6.1449,6.1449,6.0377,5.8338,5.8338,5.8338,5.8338,5.7172,5.6736,0.0,0.0,0.0,0.0,0.0,0.0,0.0,0.0,0.0,0.0,0.0,0.0,0.0,0.0,0.0,4.2168,4.3139,4.4381,4.5876,4.7794,4.8697,4.7588,4.8867,4.9769,4.9769,5.0729,5.1434,5.1688,5.1688,5.2224,5.3465,5.355,5.4114,5.5356,5.5412,5.5976,5.7218,5.7246,5.7726,5.8713,5.8967,0.0,5.908,5.9306,5.9419,5.9419,5.9419,6.0011,6.0794,5.9402,5.8161,5.7097,5.743,5.8034,5.8632,5.691,5.6078,5.5956,5.5708,5.5046,5.4426,5.4391,5.458,5.4886,5.5083,5.5631,0.0,5.6319,5.6984,5.7598,5.8091,5.8412,5.8757,5.8957,5.9302,5.9424,5.9006,5.996,6.0753,6.0609,6.1612,6.2627,6.2487,6.4561,6.6095,6.6095,6.6839,6.7447,6.7447,6.7027,6.7027,6.7316,6.7447,6.7447,6.7447,6.7447,6.7447,6.7027,6.7027,6.7027,6.7027,6.6772,6.5471,6.2946,6.2699,6.1202,5.831,5.831,5.8205,5.7942,5.5855,5.482,0.0,0.0,0.0,0.0,0.0,0.0,0.0,0.0,0.0,0.0,0.0,0.0,0.0,0.0,0.0,0.0,4.0825,4.2067,4.4378,4.4941,4.5082,4.4941,4.6968,4.85,4.8584,4.8669,4.9149,5.0277,5.0334,5.0898,5.2196,5.228,0.0,0.0,0.0,5.4707,5.5948,5.5948,5.6033,5.6174,5.7274,5.7782,5.7839,5.8939,5.9419,5.9419,5.9419,5.9503,5.9616,5.8283,5.8218,5.9048,5.7933,5.7664,5.7408,5.4862,5.3809,5.3675,5.243,0.0,0.0,5.3864,5.4656,5.5941,5.6967,5.644,5.5868,5.7043,5.6616,5.6408,5.875,5.9402,5.9915,6.217,6.2827,6.2827,6.2827,6.2827,6.2967,6.2548,6.2967,6.3106,6.2827,6.5506,6.7621,6.7621,6.7548,6.7447,6.7447,6.7027,6.6895,6.6895,6.7186,0.0,6.7447,6.7678,6.7678,6.7447,6.7447,6.7447,6.7447,6.6309,6.4962,6.334,6.2165,6.0088,5.6919,5.6919,5.6448,5.54,5.373,5.3024,0.0,0.0,0.0,0.0,0.0,0.0,0.0,0.0,0.0,0.0,0.0,0.0,0.0,0.0,0.0,0.0,3.9736,4.0716,4.1805,4.1605,4.1926,4.3365,4.4997,4.6412,4.7174,4.7879,4.8404,4.9008,4.9064,4.96,5.087,5.0926,5.1519,5.2788,5.2845,5.3437,5.465,5.4679,5.5017,5.5751,5.6287,5.6513,5.6541,5.7049,5.7303,5.7303,5.7303,5.7698,5.8375,5.777,5.8306,5.9161,0.0,0.0,0.0,0.0,5.4792,5.4977,5.5199,5.5285,5.5364,5.5226,5.5125,5.5203,5.5538,5.5761,5.5897,5.6542,5.7274,5.814,5.915,5.9685,6.0218,6.1796,6.2363,6.2687,6.3222,6.4098,6.467,6.4534,6.5238,0.0,6.3982,6.5115,6.6226,6.6226,6.595,6.5988,6.6831,6.6565,6.6722,6.7722,6.7936,6.7965,6.7965,6.8065,0.0,0.0,0.0,6.7548,6.7447,6.6451,0.0,0.0,0.0,5.8971,5.5464,5.5464,0.0,0.0,4.8653,4.8159,0.0,0.0,0.0,0.0,0.0,0.0,0.0,0.0,0.0,0.0,0.0,0.0,0.0,0.0,0.0,0.0,3.8618,3.9088,3.9302,3.9391,4.0085,4.212,4.3024,4.3987,4.5126,4.5857,4.6293,4.6722,4.6968,4.7794,4.9036,4.9431,5.0052,5.0983,5.1349,5.197,5.2845,5.3212,5.386,5.4735,5.5074,5.5243,5.5243,5.5581,5.5751,5.5751,5.5751,5.6259,5.7077,5.657,5.7244,5.8234,5.5449,5.5005,5.5941,5.5941,5.5786,5.5684,5.6241,5.6277,5.5891,5.553,5.5167,5.468,5.468,5.5041,5.5474,5.5826,5.7026,5.8497,5.9203,5.9937,6.0738,6.2042,6.2604,6.2982,6.3704,6.4771,6.548,6.535,6.6309,6.6525,6.4898,6.4969,6.5118,6.5118,6.485,6.4927,6.5822,6.5749,6.6142,6.7659,6.7803,6.8074,6.842,6.8478,6.8305,6.752,6.7491,6.722,6.6551,6.6017,6.3989,6.0515,5.9395,5.6905,0.0,0.0,0.0,0.0,0.0,0.0,0.0,0.0,0.0,0.0,0.0,0.0,0.0,0.0,0.0,0.0,0.0,0.0,0.0,0.0,0.0,0.0,0.0,0.0,3.7456,3.8985,4.0384,4.1305,4.1157,4.131,4.2248,4.1554,4.1559,4.2829,4.4042,4.5166,4.6468,4.7682,4.8264,4.8292,4.9544,5.0193,5.0249,5.149,5.2139,5.2196,5.3381,5.3945,5.4002,5.5187,5.5751,5.5751,5.5751,5.5779,5.5697,5.4335,5.4615,5.5973,5.5998,5.6295,5.659,5.659,5.5775,5.442,5.3143,5.3742,5.4838,5.3568,5.425,5.5531,5.5531,5.467,5.3933,5.5256,5.5527,5.6131,5.8642,6.0203,6.1804,6.435,6.5027,6.5027,6.5085,6.5085,6.4966,6.4696,6.4966,6.5205,6.5118,6.5118,6.5118,6.5118,6.485,0.0,6.4638,6.4304,6.4699,6.6084,6.642,6.7034,6.8334,6.8732,6.8337,6.663,6.6544,6.5872,6.4326,6.4426,6.3455,6.0858,5.7055,5.318,4.9161,0.0,0.0,0.0,0.0,0.0,0.0,0.0,0.0,0.0,0.0,0.0,0.0,0.0,0.0,0.0,0.0,0.0,0.0,0.0,0.0,0.0,0.0,0.0,0.0,3.7824,3.8563,4.1047,4.0823,4.1066,4.2741,4.2226,4.1889,4.2222,4.2168,4.2631,4.3929,4.5082,4.6124,4.7033,4.8302,4.8951,4.8895,4.9318,4.9967,5.0785,5.1208,5.1857,5.2704,5.3127,5.3296,5.3296,5.3296,5.3776,5.443,5.3943,5.27,5.1012,5.1338,5.1535,5.1506,5.1506,5.1822,5.21,5.184,5.2581,5.3702,5.3467,5.3288,5.2974,5.2974,5.2658,5.2641,5.3986,5.495,5.5896,5.7616,5.91,6.034,6.2153,6.3227,6.4071,6.4914,6.5118,6.5118,6.4969,6.224,6.0057,6.0057,6.0057,6.0057,6.0057,5.9947,6.0445,6.2097,6.2213,6.3052,6.5164,6.5487,6.5782,6.6247,6.6426,6.6223,6.5637,6.5608,6.4788,6.316,6.2647,6.1028,5.8265,5.4636,5.1723,4.9487,0.0,0.0,0.0,0.0,0.0,0.0,0.0,0.0,0.0,0.0,0.0,0.0,0.0,0.0,0.0,0.0,0.0,0.0,0.0,0.0,0.0,0.0,0.0,0.0,0.0,0.0,3.9715,3.9409,0.0,4.1887,4.1652,4.1291,4.1248,4.1095,4.1273,4.1789,4.2962,4.3847,4.4409,4.5707,4.6356,4.6299,4.7174,4.802,4.881,4.9262,4.991,5.07,5.0729,5.0729,5.07,5.07,5.118,5.1885,5.1406,4.9903,4.783,4.8067,4.8246,4.8306,4.8306,4.8649,4.9188,4.928,4.9892,5.0529,5.0838,5.0341,4.9675,5.0028,4.9838,4.9931,5.1644,5.2784,5.3921,5.5666,5.7032,5.8312,5.9621,6.0581,6.1395,6.2238,6.2384,6.2122,6.1191,5.837,5.6307,5.6684,5.6583,5.6759,5.7272,5.7258,5.8122,6.0261,6.0581,6.1569,6.4158,6.442,6.4623,6.5059,6.5118,6.4914,6.4449,6.4012,6.3053,6.149,6.0034,5.8254,5.6175,5.2643,5.0186,0.0,0.0,0.0,0.0,0.0,0.0,0.0,0.0,0.0,0.0,0.0,0.0,0.0,0.0,0.0,0.0,0.0,0.0,0.0,0.0,0.0,0.0,0.0,0.0,0.0,0.0,0.0,3.7292,3.6907,0.0,0.0,0.0,0.0,3.9664,4.0579,4.0817,4.0004,4.1199,4.1465,4.0708,4.2036,4.2743,4.266,4.4973,4.6186,4.6271,4.7512,4.8038,4.8095,4.8331,4.8331,4.8179,4.8179,4.8274,4.8161,4.6968,4.6306,4.6129,4.6463,4.6737,4.695,4.695,4.6434,4.5744,4.5773,4.5773,4.5773,4.5661,4.5773,4.594,4.681,4.6486,0.0,0.0,4.9271,5.0144,5.2737,5.4299,5.5636,5.6916,5.7236,5.7294,5.7294,5.7294,5.6583,5.3844,5.3291,5.3648,5.4722,0.0,5.5073,5.6394,5.6567,5.7086,5.8875,5.9068,6.0115,6.2733,6.3053,6.3605,6.4827,6.4856,6.4303,6.3082,6.1802,6.0464,5.9068,5.6683,5.5075,5.4438,5.0686,0.0,0.0,0.0,0.0,0.0,0.0,0.0,0.0,0.0,0.0,0.0,0.0,0.0,0.0,0.0,0.0,0.0,0.0,0.0,0.0,0.0,0.0,0.0,0.0,0.0,0.0,3.1428,3.2598,3.5345,3.5434,3.6101,0.0,0.0,0.0,0.0,0.0,0.0,3.6762,3.8879,3.9714,3.8945,4.1129,4.1999,4.1305,4.1926,4.2744,4.3703,4.4856,4.6017,4.6948,4.7879,4.8207,4.8179,4.8331,4.7823,4.6786,4.4682,4.3748,4.3885,4.4606,4.5107,4.5283,4.5076,4.487,4.4606,4.4021,4.3851,4.3774,4.3386,4.359,4.4096,4.4503,0.0,0.0,0.0,0.0,4.7056,4.9128,5.0589,5.1811,5.297,5.3891,5.4689,5.4689,5.4689,5.3543,4.9652,4.8847,4.9154,5.0001,5.0957,0.0,5.2141,5.2433,5.3582,5.5926,5.6377,5.7498,6.0028,6.1191,6.1918,6.2238,6.1366,6.0639,6.0319,5.9156,5.744,5.5142,5.3971,5.2052,4.9135,0.0,0.0,0.0,0.0,0.0,0.0,0.0,0.0,0.0,0.0,0.0,0.0,0.0,0.0,0.0,0.0,0.0,0.0,0.0,0.0,0.0,0.0,0.0,0.0,0.0,0.0,0.0,2.7792,2.9362,3.2179,3.2803,3.3666,0.0,0.0,0.0,0.0,0.0,0.0,0.0,0.0,0.0,3.7088,3.9143,3.9967,3.9495,4.018,4.0945,4.1719,4.2598,4.345,4.4215,4.4894,4.5206,4.5206,4.5322,4.4785,4.3804,4.2618,4.1716,4.1317,0.0,0.0,0.0,0.0,4.1174,4.0854,4.0393,4.029,4.0224,3.9955,0.0,0.0,0.0,0.0,0.0,0.0,0.0,4.4188,4.6359,4.7246,4.7783,4.886,4.9674,5.0198,5.0198,4.9922,4.9034,4.6556,4.6133,4.6402,4.7259,4.7987,0.0,0.0,0.0,5.1339,5.4725,5.49,5.5898,5.8952,5.997,6.0435,6.0435,5.9737,5.9068,5.8545,5.68,5.5052,5.3296,5.1312,4.9268,0.0,0.0,0.0,0.0,0.0,0.0,0.0,0.0,0.0,0.0,0.0,0.0,0.0,0.0,0.0,0.0,0.0,0.0,0.0,0.0,0.0,0.0,0.0,0.0,0.0,0.0,0.0,0.0,0.0,2.5726,2.8175,0.0,0.0,0.0,0.0,0.0,0.0,0.0,0.0,0.0,0.0,0.0,0.0,0.0,3.7203,3.6899,3.8728,3.9695,3.9942,4.0601,4.1039,4.1289,4.156,4.1618,4.1511,4.1004,0.0,3.999,4.0517,0.0,0.0,0.0,0.0,0.0,0.0,0.0,0.0,0.0,0.0,0.0,0.0,0.0,0.0,0.0,0.0,0.0,0.0,0.0,0.0,0.0,0.0,4.4177,4.5378,4.5589,4.5531,4.5232,4.4562,4.3958,4.4026,4.3939,4.4113,0.0,0.0,0.0,0.0,0.0,0.0,5.3973,5.4076,5.5145,5.8561,5.9235,5.944,5.944,5.9041,5.8292,5.7241,5.4555,5.2709,5.1906,4.8509,0.0,0.0,0.0,0.0,0.0,0.0,0.0,0.0,0.0,0.0,0.0,0.0,0.0,0.0,0.0,0.0,0.0,0.0,0.0,0.0,0.0,0.0,0.0,0.0,0.0,0.0,0.0,0.0,0.0,0.0,0.0,0.0,0.0,0.0,0.0,0.0,0.0,0.0,0.0,0.0,0.0,0.0,0.0,0.0,0.0,0.0,0.0,0.0,0.0,0.0,3.9244,4.037,4.1544,4.2692,4.283,4.1992,3.879,3.6991,3.6381,3.767,0.0,0.0,0.0,0.0,0.0,0.0,0.0,0.0,0.0,0.0,0.0,0.0,0.0,0.0,0.0,0.0,0.0,0.0,0.0,0.0,0.0,0.0,4.265,4.4497,4.4364,4.3394,4.2001,0.0,0.0,0.0,0.0,0.0,0.0,0.0,0.0,0.0,0.0,0.0,5.0749,5.3254,5.5383,5.6826,5.902,6.036,6.0065,5.7389,5.5658,5.545,5.1907,4.9293,0.0,0.0,0.0,0.0,0.0,0.0,0.0,0.0,0.0,0.0,0.0,0.0,0.0,0.0,0.0,0.0,0.0,0.0,0.0,0.0,0.0,0.0,0.0,0.0,0.0,0.0,0.0,0.0,0.0,0.0,0.0,0.0,0.0,0.0,0.0,0.0,0.0,0.0,0.0,0.0,0.0,0.0,0.0,0.0,0.0,0.0,0.0,0.0,0.0,0.0,0.0,0.0,0.0,0.0,0.0,0.0,0.0,0.0,3.6891,3.5726,0.0,0.0,0.0,0.0,0.0,0.0,0.0,0.0,0.0,0.0,0.0,0.0,0.0,0.0,0.0,0.0,0.0,0.0,0.0,0.0,0.0,0.0,0.0,0.0,0.0,0.0,0.0,0.0,0.0,0.0,0.0,0.0,0.0,0.0,0.0,0.0,0.0,0.0,0.0,0.0,4.9831,5.2063,5.4267,5.6505,5.8174,5.9085,5.8989,5.6724,5.5027,5.4336,5.0885,0.0,0.0,0.0,0.0,0.0,0.0,0.0,0.0,0.0,0.0,0.0,0.0,0.0,0.0,0.0,0.0,0.0,0.0,0.0,0.0,0.0,0.0,0.0,0.0,0.0,0.0,0.0,0.0,0.0,0.0,0.0,0.0,0.0,0.0,0.0,0.0,0.0,0.0,0.0,0.0,0.0,0.0,0.0,0.0,0.0,0.0,0.0,0.0,0.0,0.0,0.0,0.0,0.0,0.0,0.0,0.0,0.0,0.0,0.0,3.448,3.4197,0.0,0.0,0.0,0.0,0.0,0.0,0.0,0.0,0.0,0.0,0.0,0.0,0.0,0.0,0.0,0.0,0.0,0.0,0.0,0.0,0.0,0.0,0.0,0.0,0.0,0.0,0.0,0.0,0.0,0.0,0.0,0.0,0.0,0.0,0.0,0.0,0.0,0.0,0.0,0.0,4.9251,5.0933,5.3192,5.6382,5.7358,5.7772,5.7681,5.6213,5.4598,5.2981,4.987,0.0,0.0,0.0,0.0,0.0,0.0,0.0,0.0,0.0,0.0,0.0,0.0,0.0,0.0,0.0,0.0,0.0,0.0,0.0,0.0,0.0,0.0,0.0,0.0,0.0,0.0,0.0,0.0,0.0,0.0,0.0,0.0,0.0,0.0,0.0,0.0,0.0,0.0,0.0,0.0,0.0,0.0,0.0,0.0,0.0,0.0,0.0,0.0,0.0,0.0,0.0,0.0,0.0,0.0,0.0,0.0,0.0,0.0,0.0,0.0,0.0,0.0,0.0,0.0,0.0,0.0,0.0,0.0,0.0,0.0,0.0,0.0,0.0,0.0,0.0,0.0,0.0,0.0,0.0,0.0,0.0,0.0,0.0,0.0,0.0,0.0,0.0,0.0,0.0,0.0,0.0,0.0,0.0,0.0,0.0,0.0,0.0,0.0,0.0,0.0,0.0,4.7806,5.0311,5.2988,5.5779,5.7265,5.8001,5.777,5.5672,5.3237,5.0654,0.0,0.0,0.0,0.0,0.0,0.0,0.0,0.0,0.0,0.0,0.0,0.0,0.0,0.0,0.0,0.0,0.0,0.0,0.0,0.0,0.0,0.0,0.0,0.0,0.0,0.0,0.0,0.0,0.0,0.0,0.0,0.0,0.0,0.0,0.0,0.0,0.0,0.0,0.0,0.0,0.0,0.0,0.0,0.0,0.0,0.0,0.0,0.0,0.0,0.0,0.0,0.0,0.0,0.0,0.0,0.0,0.0,0.0,0.0,0.0,0.0,0.0,0.0,0.0,0.0,0.0,0.0,0.0,0.0,0.0,0.0,0.0,0.0,0.0,0.0,0.0,0.0,0.0,0.0,0.0,0.0,0.0,0.0,0.0,0.0,0.0,0.0,0.0,0.0,0.0,0.0,0.0,0.0,0.0,0.0,0.0,0.0,0.0,0.0,0.0,0.0,0.0,4.7564,4.9789,5.2495,5.5852,5.6202,5.6585,5.7317,5.4028,5.1536,5.0489,0.0,0.0,0.0,0.0,0.0,0.0,0.0,0.0,0.0,0.0,0.0,0.0,0.0,0.0,0.0,0.0,0.0,0.0,0.0,0.0,0.0,0.0,0.0,0.0,0.0,0.0,0.0,0.0,0.0,0.0,0.0,0.0,0.0,0.0,0.0,0.0,0.0,0.0,0.0,0.0,0.0,0.0,0.0,0.0,0.0,0.0,0.0,0.0,0.0,0.0,0.0,0.0,0.0,0.0,0.0,0.0,0.0,0.0,0.0,0.0,0.0,0.0,0.0,0.0,0.0,0.0,0.0,0.0,0.0,0.0,0.0,0.0,0.0,0.0,0.0,0.0,0.0,0.0,0.0,0.0,0.0,0.0,0.0,0.0,0.0,0.0,0.0,0.0,0.0,0.0,0.0,0.0,0.0,0.0,0.0,0.0,0.0,0.0,0.0,0.0,0.0,0.0,4.7708,4.9131,5.1617,5.6035,5.5467,5.5396,5.6898,5.3244,5.0589,4.9785,0.0,0.0,0.0,0.0,0.0,0.0,0.0,0.0,0.0,0.0,0.0,0.0,0.0,0.0,0.0,0.0,0.0,0.0,0.0,0.0,0.0,0.0,0.0,0.0,0.0,0.0,0.0,0.0,0.0,0.0,0.0,0.0,0.0,0.0,0.0,0.0,0.0,0.0,0.0,0.0,0.0,0.0,0.0,0.0,0.0,0.0,0.0,0.0,0.0,0.0,0.0,0.0,0.0,0.0,0.0,0.0,0.0,0.0,0.0,0.0,0.0,0.0,0.0,0.0,0.0,0.0,0.0,0.0,0.0,0.0,0.0,0.0,0.0,0.0,0.0,0.0,0.0,0.0,0.0,0.0,0.0,0.0,0.0,0.0,0.0,0.0,0.0,0.0,0.0,0.0,0.0,0.0,0.0,0.0,0.0,0.0,0.0,0.0,0.0,0.0,0.0,0.0,4.8069,4.8173,5.0306,5.615,5.5385,5.4985,5.6405,5.3558,5.0573,0.0,0.0,0.0,0.0,0.0,0.0,0.0,0.0,0.0,0.0,0.0,0.0,0.0,0.0,0.0,0.0,0.0,0.0,0.0,0.0,0.0,0.0,0.0,0.0,0.0,0.0,0.0,0.0,0.0,0.0,0.0,0.0,0.0,0.0,0.0,0.0,0.0,0.0,0.0,0.0,0.0,0.0,0.0,0.0,0.0,0.0,0.0,0.0,0.0,0.0,0.0,0.0,0.0,0.0,0.0,0.0,0.0,0.0,0.0,0.0,0.0,0.0,0.0,0.0,0.0,0.0,0.0,0.0,0.0,0.0,0.0,0.0,0.0,0.0,0.0,0.0,0.0,0.0,0.0,0.0,0.0,0.0,0.0,0.0,0.0,0.0,0.0,0.0,0.0,0.0,0.0,0.0,0.0,0.0,0.0,0.0,0.0,0.0,0.0,0.0,0.0,0.0,0.0,4.8025,4.8359,5.0055,5.4789,5.3993,5.3629,5.5019,5.1418,4.8717,4.7887,0.0,0.0,0.0,0.0,0.0,0.0,0.0,0.0,0.0,0.0,0.0,0.0,0.0,0.0,0.0,0.0,0.0,0.0,0.0,0.0,0.0,0.0,0.0,0.0,0.0,0.0,0.0,0.0,0.0,0.0,0.0,0.0,0.0,0.0,0.0,0.0,0.0,0.0,0.0,0.0,0.0,0.0,0.0,0.0,0.0,0.0,0.0,0.0,0.0,0.0,0.0,0.0,0.0,0.0,0.0,0.0,0.0,0.0,0.0,0.0,0.0,0.0,0.0,0.0,0.0,0.0,0.0,0.0,0.0,0.0,0.0,0.0,0.0,0.0,0.0,0.0,0.0,0.0,0.0,0.0,0.0,0.0,0.0,0.0,0.0,0.0,0.0,0.0,0.0,0.0,0.0,0.0,0.0,0.0,0.0,0.0,0.0,0.0,0.0,0.0,0.0,0.0,0.0,4.8193,4.9898,5.362,5.3157,5.3126,5.4557,5.0544,4.7932,4.7998,0.0,0.0,0.0,0.0,0.0,0.0,0.0,0.0,0.0,0.0,0.0,0.0,0.0,0.0,0.0,0.0,0.0,0.0,0.0,0.0,0.0,0.0,0.0,0.0,0.0,0.0,0.0,0.0,0.0,0.0,0.0,0.0,0.0,0.0,0.0,0.0,0.0,0.0,0.0,0.0,0.0,0.0,0.0,0.0,0.0,0.0,0.0,0.0,0.0,0.0,0.0,0.0,0.0,0.0,0.0,0.0,0.0,0.0,0.0,0.0,0.0,0.0,0.0,0.0,0.0,0.0,0.0,0.0,0.0,0.0,0.0,0.0,0.0,0.0,0.0,0.0,0.0,0.0,0.0,0.0,0.0,0.0,0.0,0.0,0.0,0.0,0.0,0.0,0.0,0.0,0.0,0.0,0.0,0.0,0.0,0.0,0.0,0.0,0.0,0.0,0.0,0.0,0.0,4.7799,4.9713,5.2595,5.2774,5.328,5.4616,5.0594,4.8131,4.8269,4.3007,0.0,0.0,0.0,0.0,0.0,0.0,0.0,0.0,0.0,0.0,0.0,0.0,0.0,0.0,0.0,0.0,0.0,0.0,0.0,0.0,0.0,0.0,0.0,0.0,0.0,0.0,0.0,0.0,0.0,0.0,0.0,0.0,0.0,0.0,0.0,0.0,0.0,0.0,0.0,0.0,0.0,0.0,0.0,0.0,0.0,0.0,0.0,0.0,0.0,0.0,0.0,0.0,0.0,0.0,0.0,0.0,0.0,0.0,0.0,0.0,0.0,0.0,0.0,0.0,0.0,0.0,0.0,0.0,0.0,0.0,0.0,0.0,0.0,0.0,0.0,0.0,0.0,0.0,0.0,0.0,0.0,0.0,0.0,0.0,0.0,0.0,0.0,0.0,0.0,0.0,0.0,0.0,0.0,0.0,0.0,0.0,0.0,0.0,0.0,0.0,0.0,0.0,4.8069,4.9504,5.1087,5.2327,5.2635,5.171,4.958,4.8014,4.7272,4.2657,0.0,0.0,0.0,0.0,0.0,0.0,0.0,0.0,0.0,0.0,0.0,0.0,0.0,0.0,0.0,0.0,0.0,0.0,0.0,0.0,0.0,0.0,0.0,0.0,0.0,0.0,0.0,0.0,0.0,0.0,0.0,0.0,0.0,0.0,0.0,0.0,0.0,0.0,0.0,0.0,0.0,0.0,0.0,0.0,0.0,0.0,0.0,0.0,0.0,0.0,0.0,0.0,0.0,0.0,0.0,0.0,0.0,0.0,0.0,0.0,0.0,0.0,0.0,0.0,0.0,0.0,0.0,0.0,0.0,0.0,0.0,0.0,0.0,0.0,0.0,0.0,0.0,0.0,0.0,0.0,0.0,0.0,0.0,0.0,0.0,0.0,0.0,0.0,0.0,0.0,0.0,0.0,0.0,0.0,0.0,0.0,0.0,0.0,0.0,0.0,0.0,0.0,4.611,4.8009,4.9908,5.207,5.2721,5.1037,4.9525,4.8177,4.7092,4.2915,0.0,0.0,0.0,0.0,0.0,0.0,0.0,0.0,0.0,0.0,0.0,0.0,0.0,0.0,0.0,0.0,0.0,0.0,0.0,0.0,0.0,0.0,0.0,0.0,0.0,0.0,0.0,0.0,0.0,0.0,0.0,0.0,0.0,0.0,0.0,0.0,0.0,0.0,0.0,0.0,0.0,0.0,0.0,0.0,0.0,0.0,0.0,0.0,0.0,0.0,0.0,0.0,0.0,0.0,0.0,0.0,0.0,0.0,0.0,0.0,0.0,0.0,0.0,0.0,0.0,0.0,0.0,0.0,0.0,0.0,0.0,0.0,0.0,0.0,0.0,0.0,0.0,0.0,0.0,0.0,0.0,0.0,0.0,0.0,0.0,0.0,0.0,0.0,0.0,0.0,0.0,0.0,0.0,0.0,0.0,0.0,0.0,0.0,0.0,0.0,0.0,0.0,0.0,4.6107,4.8848,5.1547,5.2574,5.1125,4.9545,4.8197,4.7126,0.0,0.0,0.0,0.0,0.0,0.0,0.0,0.0,0.0,0.0,0.0,0.0,0.0,0.0,0.0,0.0,0.0,0.0,0.0,0.0,0.0,0.0,0.0,0.0,0.0,0.0,0.0,0.0,0.0,0.0,0.0,0.0,0.0,0.0,0.0,0.0,0.0,0.0,0.0,0.0,0.0,0.0,0.0,0.0,0.0,0.0,0.0,0.0,0.0,0.0,0.0,0.0,0.0,0.0,0.0,0.0,0.0,0.0,0.0,0.0,0.0,0.0,0.0,0.0,0.0,0.0,0.0,0.0,0.0,0.0,0.0,0.0,0.0,0.0,0.0,0.0,0.0,0.0,0.0,0.0,0.0,0.0,0.0,0.0,0.0,0.0,0.0,0.0,0.0,0.0,0.0,0.0,0.0,0.0,0.0,0.0,0.0,0.0,0.0,0.0,0.0,0.0,0.0,0.0,4.4914,4.7759,4.9259,4.9971,4.9733,4.804,4.6783,4.6297,0.0,0.0,0.0,0.0,0.0,0.0,0.0,0.0,0.0,0.0,0.0,0.0,0.0,0.0]}],[{"header":{"parameterUnit":"kt","parameterCategory":2,"dx":1,"dy":1,"la1":29.285339999999998,"la2":30.599998999999997,"lo1":-89.70041500000002,"lo2":-87.6738589999976,"nx":112,"ny":82,"refTime":"2022-09-18T18:00:00:Z","depth":0,"parameterNumber":2,"parameterNumberName":"V-component_of_WINDS"},"data":[-5.1165,-5.064,-4.9873,-4.8151,-4.7739,-4.746,-4.6377,-4.5649,-4.5237,-4.522,-4.3857,-4.2698,-4.2698,-4.1389,-3.9744,-3.8099,-3.6814,-3.5043,0.0,-3.2762,-3.267,-3.0405,-3.8248,-4.3657,-4.3175,-4.71,-5.0388,-5.2001,-5.5123,-5.7476,-5.8638,-6.2834,-6.4951,-6.4468,-6.7068,-6.8962,-7.0038,-7.067,-7.2007,-7.4123,-7.5275,-7.6389,-7.7466,-7.806,-7.8357,-7.8357,-7.8357,-7.8357,-7.8357,-7.8357,-7.8356,-7.8425,-7.8425,-7.8457,-7.8524,-7.8422,-7.852,-7.8696,-7.8841,-7.8896,-7.8961,-7.904,-7.904,-7.9065,-7.9102,-7.9126,-7.9301,-8.0054,-7.9812,-7.9531,-8.0216,-7.9933,-7.9518,-7.9518,-7.9518,-7.9518,-7.9499,-7.9422,-7.9322,-7.9301,-7.9286,-7.929,-7.929,-7.929,-7.929,-7.929,-7.929,-7.929,-7.929,-7.929,-7.929,-7.929,-7.929,-7.929,-7.929,-7.929,-7.929,-7.929,-7.929,-7.929,-7.929,-7.929,-7.929,-7.929,-7.929,-7.929,-7.929,-7.929,-7.929,-7.929,-7.929,-7.929,-5.1017,-4.9818,-4.8264,-4.7106,-4.6415,-4.5703,-4.4585,-4.3857,-4.3446,-4.3446,-4.2175,-4.1016,-4.1016,-4.0156,-3.8735,-3.6468,-3.6552,-3.6351,0.0,-3.4404,-3.4831,-3.5869,-4.2708,-4.7339,-4.7418,-5.0388,-5.293,-5.4528,-5.7179,-5.9195,-6.0309,-6.3985,-6.5805,-6.5248,-6.7885,-6.9853,-7.0897,-7.2044,-7.3678,-7.5832,-7.6389,-7.7243,-7.8357,-7.8357,-7.8357,-7.8357,-7.8357,-7.8357,-7.8357,-7.8357,-7.8357,-7.8357,-7.8357,-7.8357,-7.8357,-7.8357,-7.839,-7.852,-7.868,-7.8741,-7.8704,-7.8755,-7.8841,-7.8961,-7.9014,-7.904,-7.9091,-7.9316,-7.9354,-7.9354,-7.948,-7.9518,-7.9518,-7.9518,-7.9518,-7.9518,-7.9499,-7.9422,-7.9322,-7.9301,-7.9286,-7.929,-7.929,-7.929,-7.929,-7.929,-7.929,-7.929,-7.929,-7.929,-7.929,-7.929,-7.929,-7.929,-7.929,-7.929,-7.929,-7.929,-7.929,-7.929,-7.929,-7.929,-7.929,-7.929,-7.929,-7.929,-7.929,-7.929,-7.929,-7.9328,-8.0418,-8.0944,-4.9278,-4.8062,-4.6754,-4.6679,-4.5445,-4.4231,-4.4194,-4.2885,-4.1726,-4.1726,-4.053,-3.9483,-3.952,-3.9557,-3.8473,-3.522,-3.6094,0.0,0.0,-3.4726,-3.7103,-4.3565,-4.7206,-4.9154,-4.9154,-5.2028,-5.459,-5.6123,-5.7858,-6.0272,-6.3473,-6.5248,-6.6882,-6.8479,-7.0113,-7.1041,-7.1115,-7.4235,-7.5832,-7.5906,-7.7577,-7.8357,-7.8357,-7.8357,-7.8357,-7.8357,-7.8357,-7.8357,-7.8357,-7.8357,-7.8357,-7.8357,-7.8357,-7.8357,-7.8357,-7.8357,-7.8357,-7.8357,-7.8357,-7.8357,-7.8356,-7.8482,-7.8696,-7.8961,-7.9202,-7.9286,-7.9332,-7.9461,-7.9401,-7.9354,-7.948,-7.9518,-7.9518,-7.9518,-7.9518,-7.9499,-7.9479,-7.9401,-7.9301,-7.9309,-7.9301,-7.929,-7.929,-7.929,-7.929,-7.929,-7.929,-7.929,-7.929,-7.929,-7.929,-7.929,-7.929,-7.929,-7.929,-7.929,-7.929,-7.929,-7.929,-7.929,-7.929,-7.929,-7.929,-7.929,-7.929,-7.929,-7.929,-7.9365,-7.9365,-7.9441,-8.2674,-8.4178,-4.752,-4.6305,-4.4717,-4.3483,-4.281,-4.2175,-4.1053,-4.0455,-4.0118,-4.0118,-3.9744,0.0,0.0,0.0,-4.124,-4.1539,0.0,-4.2016,-4.166,-4.1444,-4.3303,-4.8708,-5.1234,-5.251,-5.251,-5.4367,-5.6198,-5.7895,-6.0643,-6.3168,-6.5285,-6.6919,-6.8553,-7.0224,-7.0744,-7.2081,-7.4458,-7.5386,-7.6426,-7.7651,-7.8134,-7.8357,-7.8357,-7.8357,-7.8357,-7.8357,-7.8357,-7.8357,-7.8357,-7.8357,-7.8357,-7.8357,-7.8357,-7.8357,-7.8357,-7.8357,-7.8357,-7.8357,-7.8357,-7.8357,-7.8356,-7.8482,-7.8574,-7.8696,-7.8923,-7.9014,-7.9065,-7.9294,-7.9332,-7.9354,-7.948,-7.9518,-7.9518,-7.9518,-7.9518,-7.9518,-7.9499,-7.9499,-7.9439,-7.9439,-7.9354,-7.9324,-7.9324,-7.9314,-7.929,-7.929,-7.929,-7.929,-7.929,-7.929,-7.929,-7.929,-7.929,-7.929,-7.929,-7.929,-7.929,-7.929,-7.929,-7.929,-7.929,-7.929,-7.929,-7.929,-7.929,-7.929,-7.929,-8.0456,-8.0982,-8.1057,-8.3163,-8.4178,-4.5781,-4.453,-4.2997,-4.2062,-4.1315,-4.0567,-3.967,-3.9483,-3.967,-4.0305,0.0,0.0,0.0,0.0,0.0,0.0,-4.3752,-4.4163,-4.4237,-4.5277,-4.7652,-5.1922,-5.3299,-5.4466,-5.5741,-5.7969,-5.965,-6.068,-6.3168,-6.5062,-6.6028,-6.8256,-6.9964,-7.0897,-7.2267,-7.3901,-7.5795,-7.65,-7.7391,-7.8357,-7.8357,-7.8357,-7.8357,-7.8357,-7.8357,-7.8357,-7.8357,-7.8357,-7.8357,-7.8357,-7.8357,-7.8357,-7.8357,-7.8357,-7.8357,-7.8357,-7.8357,-7.8357,-7.8357,-7.8357,-7.8357,-7.8422,-7.8482,-7.8574,-7.8726,-7.8755,-7.8813,-7.9065,-7.9153,-7.9202,-7.9381,-7.9461,-7.9518,-7.9518,-7.9518,-7.9518,-7.9518,-7.9461,-7.9439,-7.9439,-7.9354,-7.9324,-7.9309,-7.9301,-7.9516,-8.0193,-8.0268,-8.0531,-8.1245,-8.1358,-8.1358,-8.1358,-8.1358,-8.1358,-8.1358,-8.1358,-8.1358,-8.1358,-8.1358,-8.1358,-8.1358,-8.1358,-8.1358,-8.1358,-8.1358,-8.1358,-8.1358,-8.226,-8.305,-8.3802,-8.5456,-8.6208,-4.3521,-4.2362,-4.124,-4.124,-4.0343,-3.9505,-3.9692,0.0,-4.0177,-4.1747,0.0,-4.2569,-4.4289,0.0,0.0,-4.3096,-4.4106,-4.5076,-4.5279,-4.8109,-5.1318,-5.4508,-5.5068,-5.6247,-5.9053,-6.1869,-6.3651,-6.3866,-6.5278,-6.6207,-6.6386,-6.9296,-7.1041,-7.1227,-7.4198,-7.5906,-7.6092,-7.7577,-7.8357,-7.8357,-7.8357,-7.8357,-7.8357,-7.8357,-7.8357,-7.8357,-7.8357,-7.8357,-7.8357,-7.8357,-7.8357,-7.8357,-7.8357,-7.8357,-7.8357,-7.8357,-7.8357,-7.8357,-7.8357,-7.8357,-7.8357,-7.8357,-7.8422,-7.8542,-7.8542,-7.8574,-7.8636,-7.8841,-7.8896,-7.8988,-7.9202,-7.936,-7.9423,-7.9423,-7.9443,-7.9443,-7.9443,-7.9384,-7.9322,-7.9322,-7.9309,-7.9427,-7.9728,-7.9841,-8.0343,-8.1734,-8.1922,-8.2486,-8.399,-8.4178,-8.4178,-8.4178,-8.4178,-8.4178,-8.4178,-8.4178,-8.4178,-8.4178,-8.4178,-8.4178,-8.4178,-8.4178,-8.4178,-8.4178,-8.4178,-8.4178,-8.4178,-8.4366,-8.5306,-8.6997,-8.8389,-8.9028,-3.8712,-3.8114,-3.7889,-3.786,-3.8645,-3.9804,0.0,0.0,0.0,-4.3361,-4.3678,-4.42,-4.5896,-4.6307,-4.7126,-4.9409,-5.0118,-5.0865,-5.2253,-5.5253,-5.8027,-5.9922,-6.1289,-6.2291,-6.2875,-6.332,-6.4156,-6.5619,-6.5962,-6.6713,-6.8192,-6.9986,-7.1561,-7.2787,-7.4755,-7.6463,-7.7837,-7.8208,-7.8357,-7.8357,-7.8357,-7.8357,-7.8357,-7.8357,-7.8357,-7.8357,-7.8357,-7.8357,-7.8357,-7.8357,-7.8357,-7.8357,-7.8357,-7.8357,-7.8357,-7.8357,-7.8357,-7.8357,-7.8357,-7.8357,-7.8357,-7.8357,-7.8422,-7.8542,-7.8542,-7.8696,-7.8841,-7.8896,-7.8896,-7.8961,-7.8988,-7.904,-7.9028,-7.9028,-7.9102,-7.9173,-7.9173,-7.9241,-7.9322,-7.9322,-7.9294,-8.0055,-8.2341,-8.3003,-8.3351,-8.3651,-8.3689,-8.3802,-8.414,-8.4178,-8.4178,-8.4178,-8.4178,-8.4178,-8.4178,-8.4178,-8.4178,-8.4178,-8.4178,-8.4178,-8.4178,-8.4178,-8.4178,-8.4178,-8.4178,-8.4178,-8.4178,-8.5569,-8.7035,-8.8577,-8.8877,-8.9028,-3.5983,-3.637,-3.7021,-3.7021,-3.895,0.0,0.0,-4.2634,-4.3711,-4.5276,-4.556,-4.6348,-4.8808,-4.933,-5.019,-5.2666,-5.3076,-5.461,-5.8979,-6.0975,-6.2258,-6.2898,-6.3634,-6.4382,-6.5243,-6.5077,-6.5657,-6.7501,-6.8395,-6.9536,-7.1151,-7.271,-7.3886,-7.4532,-7.6203,-7.7503,-7.8357,-7.8357,-7.8357,-7.8357,-7.8357,-7.8357,-7.8357,-7.8357,-7.8357,-7.8357,-7.8357,-7.8357,-7.8357,-7.8357,-7.8357,-7.8357,-7.8357,-7.8357,-7.8357,-7.8357,-7.8357,-7.8357,-7.8357,-7.8357,-7.8357,-7.8357,-7.8355,-7.8457,-7.8457,-7.8557,-7.8803,-7.9587,-8.0467,-8.1158,-8.1158,-8.1256,-8.1343,-8.1343,-8.1305,-8.1268,-8.1268,-8.1239,-8.1143,-8.1143,-8.1121,-8.1582,-8.3307,-8.3764,-8.4212,-8.5279,-8.5456,-8.5719,-8.6509,-8.6584,-8.6584,-8.6584,-8.6584,-8.6584,-8.6584,-8.6584,-8.6584,-8.6584,-8.6584,-8.6584,-8.6584,-8.6584,-8.6584,-8.6584,-8.6584,-8.6584,-8.6584,-8.7449,-8.8276,-8.9028,-8.9028,-8.9028,-3.4167,-3.5392,-3.6796,-3.7447,-3.991,0.0,-4.2958,-4.4176,-4.5714,-4.758,-4.7944,-4.8745,-5.1432,-5.2167,-5.2957,-5.4648,-5.5137,-5.7611,-6.4249,-6.517,-6.5252,-6.5342,-6.5267,-6.5688,-6.7077,-6.6964,-6.755,-6.9372,-7.0807,-7.2196,-7.3665,-7.5287,-7.6096,-7.5795,-7.7466,-7.8357,-7.8357,-7.8357,-7.8357,-7.8357,-7.8357,-7.8357,-7.8357,-7.8357,-7.8357,-7.8357,-7.8357,-7.8357,-7.8357,-7.8357,-7.8357,-7.8357,-7.8357,-7.8357,-7.8357,-7.8357,-7.8357,-7.8357,-7.8357,-7.8357,-7.8357,-7.8357,-7.858,-7.8803,-7.8803,-7.9025,-7.9545,-8.0808,-8.2256,-8.3329,-8.3329,-8.3466,-8.3564,-8.3564,-8.3428,-8.3252,-8.3252,-8.3075,-8.311,-8.3583,-8.3654,-8.3774,-8.419,-8.4334,-8.4989,-8.6658,-8.6913,-8.7393,-8.8756,-8.8906,-8.8935,-8.9028,-8.9028,-8.9028,-8.9028,-8.9028,-8.9028,-8.9028,-8.9028,-8.9028,-8.9028,-8.9028,-8.9028,-8.9028,-8.9028,-8.9028,-8.9028,-8.9028,-8.9028,-8.9028,-8.9028,-8.9028,-3.2509,-3.3755,-3.5756,-3.8643,-4.0797,0.0,-4.5822,-4.6638,-4.7616,-5.0578,-5.1182,-5.1333,-5.1803,-5.3123,-5.4692,-5.6386,-5.8024,-6.0889,-6.6076,-6.6793,-6.736,-6.8854,-6.8884,-6.89,-6.9089,-6.8864,-6.9423,-7.1134,-7.1523,-7.241,-7.3921,-7.5376,-7.6096,-7.5795,-7.7466,-7.8357,-7.8357,-7.8357,-7.8357,-7.8357,-7.8357,-7.8357,-7.8357,-7.8357,-7.8357,-7.8357,-7.8357,-7.8357,-7.8357,-7.8357,-7.8357,-7.8357,-7.8357,-7.8357,-7.8357,-7.8357,-7.8357,-7.8357,-7.8357,-7.8357,-7.8357,-7.8357,-7.9285,-8.0399,-8.0399,-8.1476,-8.2702,-8.285,-8.3074,-8.3223,-8.3223,-8.307,-8.295,-8.295,-8.2835,-8.2683,-8.2683,-8.2768,-8.3497,-8.5689,-8.6402,-8.6662,-8.6672,-8.7062,-8.7461,-8.7687,-8.7724,-8.7915,-8.8458,-8.8492,-8.8659,-8.8963,-8.9028,-8.9028,-8.9028,-8.9028,-8.9028,-8.9028,-8.9028,-8.9028,-8.9028,-8.9028,-8.9028,-8.9028,-8.9028,-8.9028,-8.9028,-8.9028,-8.9028,-8.9028,-8.9028,-8.9028,-3.213,-3.3608,-3.5692,-3.907,0.0,0.0,-4.6727,-4.8742,-5.0176,-5.0509,-5.2872,-5.4895,-5.4964,-5.7142,-5.9525,-6.1222,-6.2875,-6.5019,-6.8115,-6.853,-6.8794,-6.9512,-6.9468,-6.9449,-6.9486,-7.0163,-7.0928,-7.1822,-7.3727,-7.5179,-7.5814,-7.7074,-7.764,-7.728,-7.7986,-7.8357,-7.8357,-7.8357,-7.8357,-7.8357,-7.8357,-7.8357,-7.8357,-7.8357,-7.8357,-7.8357,-7.8357,-7.8357,-7.8357,-7.8357,-7.8357,-7.8357,-7.8357,-7.8357,-7.8357,-7.8357,-7.8357,-7.8468,-7.9397,-7.9694,-7.9842,-8.0845,-8.1588,-8.2145,-8.2145,-8.2628,-8.3407,-8.4299,-8.4559,-8.4742,-8.5585,-8.5723,-8.5594,-8.5462,-8.5243,-8.5065,-8.5065,-8.5028,-8.5239,-8.6291,-8.6617,-8.6803,-8.7074,-8.7225,-8.7531,-8.7823,-8.7864,-8.7944,-8.8063,-8.8139,-8.8176,-8.8321,-8.8356,-8.8356,-8.8356,-8.8356,-8.8356,-8.8356,-8.8356,-8.8425,-8.869,-8.869,-8.8781,-8.9028,-8.9028,-8.9028,-8.9028,-8.9028,-8.9028,-8.9028,-8.9028,-8.9028,-3.2706,0.0,0.0,0.0,0.0,0.0,-4.8271,-5.022,-5.1625,-5.1767,-5.4668,-5.7291,-5.7782,-6.0601,-6.3622,-6.5736,-6.702,-6.819,-6.9436,-6.9587,-6.9587,-6.9587,-6.9503,-6.9656,-7.0213,-7.1238,-7.2313,-7.3439,-7.578,-7.7365,-7.7781,-7.8525,-7.8771,-7.8357,-7.8357,-7.8357,-7.8357,-7.8357,-7.8357,-7.8357,-7.8357,-7.8357,-7.8357,-7.8357,-7.8357,-7.8357,-7.8357,-7.8357,-7.8357,-7.8357,-7.8617,-7.8988,-7.8988,-7.9285,-7.9694,-7.9694,-7.9694,-7.9842,-8.0994,-8.1365,-8.1551,-8.2813,-8.3482,-8.3853,-8.3853,-8.4187,-8.4781,-8.5933,-8.623,-8.6449,-8.7507,-8.7672,-8.7456,-8.7221,-8.6977,-8.681,-8.681,-8.66,-8.6529,-8.6529,-8.6529,-8.66,-8.6867,-8.6916,-8.7063,-8.7435,-8.748,-8.7524,-8.7618,-8.766,-8.7703,-8.7864,-8.7864,-8.7864,-8.7864,-8.7864,-8.7864,-8.7864,-8.7864,-8.8023,-8.8249,-8.8285,-8.8458,-8.8878,-8.8878,-8.8906,-8.9028,-8.9028,-8.9028,-8.9028,-8.9028,-8.9028,0.0,0.0,0.0,-4.3942,-4.606,-4.8209,-5.1418,-5.0945,-5.1162,-5.5932,-5.7052,-5.7656,-5.9317,-6.2376,-6.5698,-6.8945,-6.9512,-6.955,-6.9587,-6.9587,-6.9587,-6.9587,-6.9571,-7.0213,-7.1891,-7.2079,-7.3476,-7.6799,-7.7101,-7.7819,-7.9367,-7.9126,-7.8771,-7.8357,-7.8357,-7.8357,-7.8357,-7.8357,-7.8357,-7.8357,-7.8357,-7.8357,-7.8357,-7.8357,-7.8357,-7.8357,-7.8357,-7.8357,-7.8357,-7.8357,-7.9248,-8.0585,-8.0585,-8.1588,-8.3073,-8.3073,-8.3073,-8.3073,-8.311,-8.311,-8.3147,-8.3185,-8.4224,-8.5487,-8.5487,-8.6638,-8.7901,-8.7938,-8.7975,-8.7975,-8.8049,-8.7672,-8.7221,-8.6963,-8.6706,-8.6529,-8.6529,-8.6529,-8.6529,-8.6529,-8.6529,-8.6529,-8.6529,-8.6529,-8.6493,-8.6547,-8.6547,-8.6669,-8.7074,-8.7085,-8.7271,-8.7823,-8.7864,-8.7864,-8.7864,-8.7864,-8.7864,-8.7864,-8.7864,-8.7864,-8.7904,-8.7904,-8.8063,-8.8425,-8.8458,-8.8659,-8.9028,-8.9028,-8.9028,-8.9028,-8.9028,-8.9028,-3.5894,-3.8271,-4.0989,-4.5453,-4.781,-4.9279,-5.0349,-5.2729,-5.4811,-5.5353,-5.9053,-6.2376,-6.2904,-6.5736,-6.8341,-6.9436,-6.9587,-6.9587,-6.9587,-6.9587,-6.9587,-6.9587,-7.0569,-7.1513,-7.2042,-7.4156,-7.5968,-7.7101,-7.8158,-7.8951,-7.948,-7.9126,-7.8878,-7.8704,-7.846,-7.8357,-7.8357,-7.8357,-7.8357,-7.8357,-7.8357,-7.8357,-7.8357,-7.8357,-7.8357,-7.8357,-7.8357,-7.8914,-7.988,-7.988,-8.0845,-8.233,-8.233,-8.2702,-8.3185,-8.3185,-8.3185,-8.337,-8.441,-8.4781,-8.493,-8.6044,-8.6668,-8.6988,-8.7155,-8.7358,-8.7546,-8.776,-8.7672,-8.7501,-8.7501,-8.7269,-8.6926,-8.6706,-8.6547,-8.6529,-8.6529,-8.6529,-8.6529,-8.6529,-8.6529,-8.6529,-8.6529,-8.6529,-8.6529,-8.6529,-8.6529,-8.6547,-8.6685,-8.6685,-8.6737,-8.694,-8.694,-8.694,-8.694,-8.694,-8.694,-8.694,-8.694,-8.7063,-8.7353,-8.7316,-8.7538,-8.8062,-8.8321,-8.8356,-8.8249,-8.8249,-8.8249,-8.8249,-8.8249,-8.8249,-3.7626,-4.042,-4.3471,-4.7318,-4.9014,-5.0066,-5.1217,-5.3942,-5.6297,-5.641,-6.0865,-6.4905,-6.5472,-6.7775,-6.9587,-6.9587,-6.9587,-6.9587,-6.9587,-6.9587,-6.9587,-6.9587,-7.1098,-7.2344,-7.2986,-7.5553,-7.7403,-7.797,-7.8951,-7.9499,-7.9442,-7.9115,-7.8869,-7.8784,-7.849,-7.8357,-7.8357,-7.8357,-7.8357,-7.8357,-7.8357,-7.8357,-7.8357,-7.8357,-7.8357,-7.8394,-7.8914,-8.0102,-8.1588,-8.1588,-8.2515,-8.3883,-8.3883,-8.4213,-8.4649,-8.4649,-8.4649,-8.4798,-8.5797,-8.6168,-8.6316,-8.739,-8.7672,-8.7546,-8.7716,-8.7583,-8.7316,-8.7456,-8.7409,-8.7269,-8.7269,-8.7076,-8.6862,-8.6653,-8.6547,-8.6529,-8.6529,-8.6529,-8.6529,-8.6529,-8.6529,-8.6529,-8.6529,-8.6529,-8.6529,-8.6529,-8.6529,-8.6529,-8.6529,-8.6529,-8.6529,-8.6529,-8.6529,-8.6529,-8.6529,-8.6529,-8.6529,-8.6529,-8.6529,-8.6617,-8.6903,-8.6867,-8.7111,-8.7575,-8.783,-8.783,-8.7575,-8.7744,-8.7864,-8.7864,-8.7864,-8.7864,-3.9463,-4.3628,-4.7823,-4.9488,-4.9886,-5.0708,-5.3892,-5.4736,-5.5844,-5.9128,-6.2489,-6.5321,-6.6907,-6.8492,-6.9587,-6.9587,-6.9587,-6.9587,-6.9587,-6.9587,-6.9625,-6.9701,-7.1211,-7.291,-7.4609,-7.6308,-7.7932,-7.9404,-7.9518,-7.9442,-7.9309,-7.904,-7.8813,-7.8542,-7.8388,-7.8357,-7.8357,-7.8357,-7.8357,-7.8357,-7.8357,-7.8357,-7.8357,-7.8357,-7.8431,-7.8691,-8.0139,-8.1736,-8.3296,-8.3257,-8.4065,-8.5268,-8.5268,-8.6053,-8.7269,-8.7269,-8.7269,-8.7269,-8.7269,-8.7269,-8.7269,-8.7269,-8.7221,-8.7221,-8.7221,-8.7221,-8.7221,-8.7221,-8.7221,-8.7221,-8.7221,-8.7026,-8.6862,-8.6862,-8.6653,-8.6529,-8.6529,-8.6529,-8.6529,-8.6529,-8.6529,-8.6529,-8.6529,-8.6529,-8.6529,-8.6529,-8.6529,-8.6529,-8.6529,-8.6529,-8.6529,-8.6529,-8.6529,-8.6529,-8.6529,-8.6529,-8.6529,-8.6529,-8.6529,-8.6529,-8.6529,-8.6529,-8.6669,-8.7074,-8.7037,-8.7037,-8.7037,-8.7531,-8.7781,-8.7781,-8.7781,-8.7781,-3.9923,-4.4526,-4.8099,-5.0955,-5.1633,-5.2167,-5.4182,-5.6599,-5.8977,-6.113,-6.4188,-6.6982,-6.8643,-6.9285,-6.9587,-6.9587,-6.9587,-6.9587,-6.9587,-6.9587,-7.0078,-7.1324,-7.2986,-7.4647,-7.6384,-7.797,-7.9065,-7.948,-7.9518,-7.9442,-7.9309,-7.904,-7.8813,-7.8542,-7.8388,-7.8357,-7.8357,-7.8357,-7.8357,-7.8357,-7.8357,-7.8357,-7.8357,-7.8357,-7.9657,-8.1996,-8.2172,-8.3205,-8.4649,-8.4435,-8.5306,-8.6736,-8.6736,-8.6948,-8.7269,-8.7269,-8.7269,-8.7269,-8.7269,-8.7269,-8.7221,-8.6816,-8.6575,-8.6454,-8.6627,-8.6454,-8.6256,-8.6825,-8.6862,-8.6706,-8.6706,-8.6653,-8.66,-8.66,-8.6547,-8.6529,-8.6529,-8.6529,-8.6529,-8.6529,-8.6529,-8.6529,-8.6529,-8.6529,-8.6529,-8.6529,-8.6529,-8.6529,-8.6529,-8.6529,-8.6529,-8.6529,-8.6529,-8.6529,-8.6529,-8.6529,-8.6529,-8.6529,-8.6529,-8.6529,-8.6529,-8.6529,-8.6547,-8.6669,-8.6669,-8.6669,-8.6669,-8.6737,-8.6876,-8.6876,-8.6876,-8.6876,-4.0732,-4.5897,-5.0015,-5.1833,-5.2809,-5.3767,-5.5353,-5.8373,-6.1281,-6.298,-6.5887,-6.8455,-6.9436,-6.9587,-6.9587,-6.9587,-6.9587,-6.9587,-6.9587,-6.9587,-7.0229,-7.1928,-7.3627,-7.5289,-7.7026,-7.8574,-7.948,-7.9422,-7.9422,-7.9316,-7.8988,-7.8813,-7.8636,-7.8453,-7.8392,-7.8357,-7.8357,-7.8357,-7.8357,-7.8357,-7.8357,-7.8728,-7.936,-7.936,-8.1028,-8.3904,-8.3697,-8.4576,-8.6053,-8.5916,-8.6327,-8.7076,-8.6853,-8.67,-8.6544,-8.6383,-8.6238,-8.6238,-8.6238,-8.6238,-8.6183,-8.5922,-8.575,-8.5633,-8.5808,-8.5574,-8.5527,-8.62,-8.6256,-8.6181,-8.6439,-8.6529,-8.6529,-8.6529,-8.6529,-8.642,-8.5953,-8.58,-8.58,-8.58,-8.6011,-8.6237,-8.6475,-8.6529,-8.6529,-8.6529,-8.6529,-8.6529,-8.6529,-8.6529,-8.6529,-8.6529,-8.6529,-8.6529,-8.6529,-8.6529,-8.6529,-8.6529,-8.6529,-8.6529,-8.6529,-8.6529,-8.6529,-8.6529,-8.6529,-8.6529,-8.6529,-8.6529,-8.6529,-8.6529,-8.6529,-8.6529,-4.1506,-4.6932,-5.1748,-5.2178,-5.3465,-5.5113,-5.7052,-5.9921,-6.2753,-6.4641,-6.7473,-6.9587,-6.9587,-6.9587,-6.9587,-6.9587,-6.9587,-6.9587,-6.9587,-6.9571,-7.0272,-7.2159,-7.3686,-7.5347,-7.7254,-7.8688,-7.9422,-7.9309,-7.9286,-7.904,-7.8574,-7.8542,-7.8487,-7.8357,-7.8357,-7.8357,-7.8357,-7.8357,-7.8357,-7.8357,-7.8506,-7.9397,-8.0918,-8.1065,-8.2526,-8.4965,-8.4918,-8.5764,-8.7039,-8.7076,-8.689,-8.658,-8.6128,-8.5844,-8.5587,-8.5096,-8.4969,-8.4969,-8.4969,-8.4969,-8.4905,-8.484,-8.484,-8.484,-8.484,-8.484,-8.4969,-8.5466,-8.5587,-8.5742,-8.6181,-8.6273,-8.6273,-8.6273,-8.6273,-8.6068,-8.5158,-8.4969,-8.4969,-8.4969,-8.5283,-8.5742,-8.6181,-8.6273,-8.6273,-8.6273,-8.6273,-8.6329,-8.6384,-8.6384,-8.6384,-8.6529,-8.6529,-8.6529,-8.6529,-8.6529,-8.6529,-8.6529,-8.6529,-8.6529,-8.6529,-8.6529,-8.6529,-8.6529,-8.6529,-8.6529,-8.6529,-8.6529,-8.6529,-8.6529,-8.6529,-8.6529,-4.162,-4.5339,-4.8909,-5.1611,-5.3465,-5.5415,-5.8524,-6.079,-6.3055,-6.6038,-6.8228,-6.9587,-6.9587,-6.9587,-6.9587,-6.9587,-6.9587,-6.9587,-6.9587,-6.9486,-7.0541,-7.3533,-7.4157,-7.555,-7.8638,-7.9203,-7.9332,-7.9309,-7.9128,-7.8841,-7.8542,-7.8542,-7.8487,-7.8357,-7.8357,-7.8357,-7.8357,-7.8357,-7.8357,-7.8357,-7.943,-8.071,-8.2119,-8.3022,-8.4406,-8.6187,-8.5963,-8.5836,-8.5655,-8.5902,-8.5705,-8.5283,-8.5221,-8.5158,-8.5032,-8.4969,-8.4969,-8.4969,-8.4969,-8.4969,-8.484,-8.4445,-8.431,-8.431,-8.431,-8.431,-8.4445,-8.4905,-8.5096,-8.5096,-8.5194,-8.5221,-8.5221,-8.5221,-8.5221,-8.5158,-8.4969,-8.4969,-8.4969,-8.4969,-8.5032,-8.5096,-8.5158,-8.5221,-8.5221,-8.5221,-8.5221,-8.5344,-8.58,-8.5859,-8.5974,-8.6475,-8.6529,-8.6529,-8.6529,-8.6529,-8.6529,-8.6529,-8.6529,-8.6529,-8.6529,-8.6529,-8.6529,-8.6529,-8.6529,-8.6529,-8.6529,-8.6529,-8.6529,-8.6529,-8.6529,-8.6529,-4.3103,-4.6179,-4.9455,-5.277,-5.4785,-5.6372,-5.7996,-6.0374,-6.3131,-6.6378,-6.8417,-6.9587,-6.9587,-6.9587,-6.9587,-6.9587,-6.9521,-6.9486,-6.9486,-6.9314,-7.0411,-7.3755,-7.4169,-7.5446,-7.879,-7.9128,-7.904,-7.8934,-7.8784,-7.8605,-7.8419,-7.8422,-7.8425,-7.8357,-7.8357,-7.8357,-7.8357,-7.8357,-7.8692,-7.9356,-8.0018,-8.1032,-8.2463,-8.4137,-8.5196,-8.5655,-8.561,-8.5333,-8.5122,-8.5283,-8.5158,-8.4905,-8.4644,-8.4512,-8.4512,-8.4242,-8.4105,-8.4105,-8.4105,-8.4105,-8.4105,-8.3825,-8.3755,-8.3755,-8.3755,-8.3755,-8.3825,-8.4378,-8.4512,-8.4578,-8.484,-8.4969,-8.4969,-8.4969,-8.4512,-8.4105,-8.4105,-8.4105,-8.4105,-8.4105,-8.4378,-8.4512,-8.4512,-8.4775,-8.4969,-8.4969,-8.4969,-8.5032,-8.5283,-8.5283,-8.5406,-8.5682,-8.5682,-8.58,-8.6068,-8.6125,-8.6181,-8.6475,-8.6529,-8.6529,-8.6529,-8.6529,-8.6529,-8.6529,-8.6529,-8.6529,-8.6529,-8.6529,-8.6529,-8.6529,-8.6529,-8.6529,-4.3672,-4.6753,-5.0455,-5.3052,-5.4652,-5.5856,-5.6901,-5.9204,-6.2036,-6.5321,-6.7624,-6.9156,-6.95,-6.9538,-6.9521,-6.9466,-6.9354,-6.9311,-6.9311,-6.9104,-7.0222,-7.3595,-7.4007,-7.5281,-7.8504,-7.8841,-7.8755,-7.8542,-7.8515,-7.8457,-7.832,-7.8357,-7.8357,-7.8357,-7.8246,-7.8246,-7.8246,-7.8209,-7.8836,-8.0229,-8.0515,-8.1338,-8.2754,-8.4687,-8.5283,-8.4775,-8.4775,-8.471,-8.4644,-8.471,-8.471,-8.4578,-8.4174,-8.3966,-8.3966,-8.3575,-8.3356,-8.3356,-8.3356,-8.3356,-8.3356,-8.3356,-8.3356,-8.3356,-8.3356,-8.3356,-8.3502,-8.3896,-8.3966,-8.4105,-8.4512,-8.4644,-8.4644,-8.4644,-8.3966,-8.3356,-8.3356,-8.3356,-8.3356,-8.3356,-8.3719,-8.3966,-8.3966,-8.431,-8.4644,-8.4644,-8.4644,-8.4644,-8.4775,-8.4775,-8.484,-8.4905,-8.4969,-8.5096,-8.5527,-8.5527,-8.5742,-8.6125,-8.6273,-8.6329,-8.6329,-8.6329,-8.6329,-8.6329,-8.6439,-8.6529,-8.6529,-8.6529,-8.6529,-8.6529,-8.6529,-8.6529,-4.1243,-4.5136,-4.9958,-5.0182,-5.033,-5.1606,-5.6121,-5.7392,-5.8562,-6.196,-6.5132,-6.7743,-6.9148,-6.9429,-6.9352,-6.9127,-6.9044,-6.902,-6.902,-6.8923,-7.0059,-7.3316,-7.3719,-7.4989,-7.8275,-7.8574,-7.8574,-7.8542,-7.8422,-7.8357,-7.8357,-7.8357,-7.8357,-7.8357,-7.8096,-7.798,-7.798,-7.7742,-7.8397,-7.9938,-8.1259,-8.2426,-8.3507,-8.4515,-8.471,-8.4242,-8.4242,-8.3966,-8.3575,-8.4036,-8.3966,-8.3502,-8.3502,-8.343,-8.343,-8.343,-8.3356,-8.3356,-8.3356,-8.3356,-8.3356,-8.3356,-8.3356,-8.3356,-8.3356,-8.3356,-8.3391,-8.343,-8.343,-8.3502,-8.3502,-8.3502,-8.3502,-8.3502,-8.343,-8.3356,-8.3356,-8.3356,-8.3356,-8.3356,-8.343,-8.343,-8.343,-8.3502,-8.3502,-8.3502,-8.3502,-8.3719,-8.4174,-8.4242,-8.4445,-8.4905,-8.4969,-8.4969,-8.5032,-8.5032,-8.5032,-8.5096,-8.5527,-8.58,-8.58,-8.58,-8.58,-8.58,-8.6273,-8.6529,-8.6529,-8.6529,-8.6529,-8.6529,-8.6529,-8.6529,-4.333,-4.6388,-5.0154,-5.1061,-5.0528,-5.0557,-5.3515,-5.422,-5.5415,-5.9683,-6.3173,-6.5909,-6.7464,-6.8511,-6.9127,-6.902,-6.8936,-6.8897,-6.8897,-6.8743,-6.9756,-7.3063,-7.3435,-7.4738,-7.8087,-7.8388,-7.8388,-7.8388,-7.8209,-7.8096,-7.8096,-7.7943,-7.7864,-7.7864,-7.7783,-7.7742,-7.7742,-7.8538,-7.9569,-8.073,-8.2223,-8.3304,-8.3964,-8.4323,-8.4174,-8.3719,-8.3719,-8.3575,-8.343,-8.3647,-8.3575,-8.3356,-8.3356,-8.3356,-8.3356,-8.3356,-8.3356,-8.3356,-8.3356,-8.3356,-8.3356,-8.3356,-8.3356,-8.3356,-8.3356,-8.3356,-8.3356,-8.3356,-8.3356,-8.3356,-8.3356,-8.3356,-8.3356,-8.3356,-8.3356,-8.3356,-8.3356,-8.3356,-8.3356,-8.3356,-8.3356,-8.3356,-8.3356,-8.3356,-8.3356,-8.3356,-8.3356,-8.343,-8.3719,-8.3719,-8.379,-8.3966,-8.3966,-8.4105,-8.4445,-8.4512,-8.4644,-8.4905,-8.5158,-8.5096,-8.4804,-8.5096,-8.5283,-8.5283,-8.5742,-8.6068,-8.6068,-8.6329,-8.6529,-8.6529,-8.6529,-8.6529,-4.3551,-4.589,-4.8827,-5.0401,-4.9914,-4.9461,-5.1185,-5.1465,-5.253,-5.6353,-6.021,-6.346,-6.5487,-6.7126,-6.8337,-6.8747,-6.8762,-6.8871,-6.9393,-6.9279,-7.041,-7.3641,-7.4049,-7.5163,-7.806,-7.8246,-7.8209,-7.8209,-7.798,-7.7824,-7.7824,-7.7664,-7.7538,-7.7538,-7.7495,-7.7416,-7.7416,-7.8781,-8.0023,-8.1163,-8.2632,-8.3539,-8.3896,-8.3896,-8.3719,-8.3356,-8.3356,-8.3356,-8.3356,-8.3356,-8.3356,-8.3356,-8.3356,-8.3356,-8.3356,-8.3356,-8.3356,-8.3356,-8.3356,-8.3356,-8.3356,-8.3356,-8.3356,-8.3356,-8.3356,-8.3356,-8.3356,-8.3356,-8.3356,-8.3356,-8.3356,-8.3024,-8.2574,-8.2574,-8.2574,-8.2574,-8.2574,-8.2762,-8.2949,-8.2949,-8.3173,-8.3356,-8.3356,-8.3356,-8.3356,-8.3356,-8.3356,-8.3356,-8.3356,-8.3356,-8.3356,-8.3356,-8.3356,-8.3575,-8.3931,-8.3896,-8.4105,-8.4445,-8.4644,-8.4512,-8.3966,-8.4445,-8.471,-8.471,-8.5221,-8.5587,-8.5705,-8.6125,-8.6329,-8.6529,-8.6529,-8.6529,-4.0373,-4.2382,-4.5328,-4.6878,-4.7276,-4.7721,-4.9398,-4.9573,-4.9852,-5.1448,-5.5816,-6.0276,-6.3424,-6.5242,-6.6766,-6.8176,-6.8442,-6.8999,-7.0707,-7.093,-7.2155,-7.5423,-7.5795,-7.6463,-7.8171,-7.8096,-7.798,-7.798,-7.7742,-7.7581,-7.7581,-7.7538,-7.7538,-7.7538,-7.7328,-7.7203,-7.7203,-7.8054,-7.9314,-8.087,-8.2064,-8.2881,-8.3356,-8.3356,-8.3356,-8.3356,-8.3356,-8.3356,-8.3356,-8.3356,-8.3356,-8.3356,-8.3356,-8.3356,-8.3356,-8.3356,-8.3356,-8.3356,-8.3356,-8.3356,-8.3356,-8.3356,-8.3356,-8.3356,-8.3356,-8.3356,-8.3356,-8.3356,-8.3356,-8.3356,-8.3356,-8.2071,-8.0719,-8.0719,-8.0719,-8.0719,-8.0719,-8.1424,-8.2061,-8.2061,-8.2762,-8.3356,-8.3356,-8.3356,-8.3356,-8.3356,-8.3356,-8.3356,-8.3356,-8.3356,-8.3356,-8.3356,-8.3356,-8.3356,-8.3356,-8.3356,-8.3356,-8.343,-8.3896,-8.3966,-8.343,-8.3896,-8.4174,-8.4174,-8.471,-8.5221,-8.5705,-8.5705,-8.5974,-8.6529,-8.6529,-8.6529,-4.1603,-4.3904,-4.686,-4.8335,-4.8762,-4.8937,-4.9394,-4.9414,-4.9498,-5.0023,-5.2161,-5.4897,-5.8063,-6.1832,-6.4594,-6.5025,-6.6993,-6.8999,-7.0744,-7.0934,-7.2155,-7.5423,-7.5832,-7.6463,-7.8208,-7.8096,-7.798,-7.798,-7.7544,-7.7292,-7.7292,-7.7186,-7.7001,-7.6676,-7.6541,-7.6882,-7.7686,-7.9071,-8.0362,-8.1569,-8.2648,-8.3259,-8.3356,-8.3356,-8.3356,-8.3356,-8.3356,-8.3356,-8.3356,-8.3356,-8.3356,-8.3356,-8.3356,-8.3356,-8.3283,-8.2686,-8.2454,-8.2376,-8.1751,-8.1472,-8.1472,-8.1472,-8.1472,-8.1472,-8.1472,-8.1472,-8.1472,-8.1472,-8.1472,-8.1472,-8.1472,-8.1058,-8.0633,-8.0633,-8.0633,-8.0633,-8.0633,-8.0923,-8.1092,-8.1092,-8.1307,-8.1751,-8.2376,-8.2454,-8.2686,-8.3283,-8.3356,-8.3356,-8.3356,-8.3356,-8.3356,-8.3356,-8.3356,-8.3356,-8.3356,-8.3356,-8.3356,-8.3356,-8.3575,-8.3575,-8.3356,-8.3575,-8.3647,-8.3647,-8.4174,-8.4512,-8.4674,-8.5032,-8.5466,-8.5974,-8.5974,-8.6181,-4.0297,-4.2241,-4.4964,-4.771,-4.892,-4.9205,-4.8455,-4.8774,-4.9054,-4.84,-4.9479,-5.1326,-5.3847,-5.7868,-6.1394,-6.325,-6.5255,-6.7625,-7.0558,-7.145,-7.2824,-7.5497,-7.628,-7.706,-7.8209,-7.7904,-7.7706,-7.7783,-7.7365,-7.7057,-7.7057,-7.6846,-7.6513,-7.6219,-7.6096,-7.658,-7.791,-7.927,-8.0813,-8.2444,-8.3044,-8.3356,-8.3356,-8.3356,-8.3356,-8.3356,-8.3356,-8.3356,-8.3356,-8.3024,-8.2873,-8.2873,-8.2532,-8.2342,-8.2263,-8.1751,-8.1507,-8.1424,-8.0889,-8.0633,-8.0633,-8.0633,-8.0633,-8.0633,-8.0633,-8.0633,-8.0633,-8.0633,-8.0633,-8.0461,-7.979,-7.961,-7.961,-7.961,-7.961,-7.961,-7.961,-7.9879,-8.0146,-8.0146,-8.0461,-8.0804,-8.1424,-8.1507,-8.167,-8.2263,-8.2342,-8.2342,-8.2342,-8.2686,-8.2873,-8.2873,-8.3209,-8.3356,-8.3356,-8.3356,-8.3356,-8.3356,-8.3356,-8.3356,-8.3356,-8.3356,-8.3356,-8.3356,-8.3683,-8.3966,-8.4174,-8.4512,-8.4905,-8.5406,-8.5406,-8.5623,-3.6931,-3.8249,-4.074,-4.5485,-4.7913,-4.8693,-4.702,-4.7757,-4.8373,-4.6791,-4.772,-4.9205,-5.0691,-5.3525,-5.7284,-6.2359,-6.3399,-6.5292,-7.0229,-7.2304,-7.3901,-7.5574,-7.7096,-7.8019,-7.8209,-7.7544,-7.7203,-7.7416,-7.7084,-7.6883,-7.6883,-7.6411,-7.6166,-7.6113,-7.5768,-7.631,-7.797,-7.8967,-8.078,-8.3356,-8.3356,-8.3356,-8.3356,-8.3356,-8.3356,-8.3283,-8.3283,-8.3283,-8.3134,-8.2298,-8.1946,-8.1866,-8.0973,-8.0633,-8.0633,-8.0547,-8.0547,-8.0547,-8.0461,-8.0461,-8.0461,-8.0461,-8.0461,-8.0461,-8.0461,-8.0461,-8.0461,-8.0461,-8.0461,-8.0112,-7.844,-7.7891,-7.7891,-7.7891,-7.7891,-7.7891,-7.7891,-7.8597,-7.922,-7.922,-7.9879,-8.0461,-8.0547,-8.0547,-8.0547,-8.0633,-8.0633,-8.0633,-8.0633,-8.1424,-8.1946,-8.1946,-8.2686,-8.3209,-8.3283,-8.3283,-8.3283,-8.3283,-8.3356,-8.3356,-8.3356,-8.3356,-8.3356,-8.3356,-8.3356,-8.3647,-8.4105,-8.4105,-8.4378,-8.4905,-8.4905,-8.4905,-3.5024,-3.8068,-4.1801,-4.4051,-4.686,-4.8938,-4.8485,-4.7683,-4.694,-4.6531,-4.662,-4.692,-4.749,-4.904,-5.2318,-5.8796,-6.1863,-6.5204,-7.0229,-7.2239,-7.3726,-7.5355,-7.6945,-7.7783,-7.7328,-7.6928,-7.6603,-7.6229,-7.6024,-7.5934,-7.5934,-7.5824,-7.56,-7.5181,-7.5098,-7.6146,-7.8522,-7.8775,-8.0435,-8.3356,-8.3356,-8.3356,-8.3356,-8.3356,-8.3024,-8.2376,-8.2376,-8.1946,-8.1307,-8.1092,-8.0973,-8.0973,-8.0719,-8.0633,-8.0547,-7.9879,-7.9644,-7.9553,-7.8848,-7.8597,-7.8597,-7.8597,-7.8597,-7.8597,-7.8597,-7.8597,-7.8597,-7.8597,-7.8597,-7.8502,-7.8086,-7.7891,-7.7891,-7.7891,-7.7891,-7.7891,-7.7891,-7.8086,-7.8247,-7.8247,-7.8407,-7.8753,-7.9462,-7.9644,-7.9913,-8.0581,-8.0633,-8.0633,-8.0633,-8.0838,-8.0973,-8.0973,-8.1141,-8.1588,-8.2263,-8.2376,-8.2376,-8.2376,-8.3024,-8.3356,-8.3356,-8.3356,-8.3356,-8.3356,-8.3356,-8.343,-8.3575,-8.3575,-8.3825,-8.4378,-8.4378,-8.4578,-3.4129,-3.7343,-4.1017,-4.3008,-4.6035,-4.8347,-4.7572,-4.7289,-4.6957,-4.6158,-4.5971,-4.614,-4.7042,-4.7148,-4.8629,-5.3067,-5.7625,-6.2081,-6.6344,-7.006,-7.2695,-7.3539,-7.561,-7.6855,-7.6664,-7.6338,-7.6041,-7.5826,-7.5696,-7.5635,-7.5635,-7.5369,-7.5098,-7.4821,-7.4645,-7.5876,-7.871,-7.8358,-7.9645,-8.2797,-8.2342,-8.2185,-8.2185,-8.2185,-8.1831,-8.1424,-8.1424,-8.1141,-8.0633,-8.0233,-8.0057,-7.9968,-7.961,-7.9462,-7.937,-7.8848,-7.8692,-7.8597,-7.8086,-7.7891,-7.7891,-7.7891,-7.7891,-7.7891,-7.7891,-7.7891,-7.7891,-7.7891,-7.7891,-7.7891,-7.7891,-7.7891,-7.7891,-7.7891,-7.7891,-7.7891,-7.7891,-7.7891,-7.7891,-7.7891,-7.7891,-7.8086,-7.8597,-7.8692,-7.8848,-7.937,-7.9462,-7.9462,-7.9462,-7.979,-8.0057,-8.0057,-8.0374,-8.0889,-8.1342,-8.1424,-8.1588,-8.2061,-8.2106,-8.2342,-8.2797,-8.2797,-8.2949,-8.3391,-8.3356,-8.3356,-8.3356,-8.3356,-8.3502,-8.3861,-8.3861,-8.3966,-3.3783,-3.6862,-4.0297,-4.2752,-4.567,-4.7662,-4.621,-4.6794,-4.7195,-4.5809,-4.5554,-4.5918,-4.7078,-4.6531,-4.6312,-4.748,-5.2742,-5.7953,-6.1672,-6.7329,-7.1186,-7.144,-7.385,-7.559,-7.5913,-7.566,-7.5507,-7.5588,-7.5471,-7.5369,-7.5369,-7.5014,-7.4734,-7.4734,-7.4427,-7.5548,-7.8323,-7.7598,-7.8742,-8.1785,-8.1058,-8.0633,-8.0633,-8.0633,-8.0547,-8.0461,-8.0461,-8.0374,-8.02,-7.937,-7.9127,-7.9035,-7.828,-7.7891,-7.7891,-7.7891,-7.7891,-7.7891,-7.7891,-7.7891,-7.7891,-7.7891,-7.7891,-7.7891,-7.7891,-7.7891,-7.7891,-7.7891,-7.7924,-7.7924,-7.7924,-7.7924,-7.7891,-7.7793,-7.7825,-7.7825,-7.7825,-7.7891,-7.7924,-7.7924,-7.7924,-7.7891,-7.7891,-7.7891,-7.7891,-7.7891,-7.7891,-7.7891,-7.7891,-7.8631,-7.9127,-7.9127,-7.979,-8.0287,-8.0461,-8.0461,-8.0804,-8.1541,-8.0923,-8.0889,-8.1785,-8.1866,-8.2263,-8.3173,-8.3283,-8.3356,-8.3356,-8.3356,-8.3356,-8.3356,-8.3356,-8.3356,-3.376,-3.8116,-4.2945,-4.4678,-4.6575,-4.7954,-4.7699,-4.6721,-4.5809,-4.5525,-4.5317,-4.4904,-4.4039,-4.5674,-4.6918,-4.6166,-5.0279,-5.558,-6.1382,-6.6252,-6.9713,-7.1037,-7.2772,-7.4132,-7.4943,-7.5003,-7.4795,-7.4519,-7.4427,-7.4463,-7.4463,-7.4399,-7.4334,-7.4334,-7.4304,-7.4998,-7.6564,-7.6439,-7.7911,-8.0923,-8.0719,-8.0633,-8.0633,-8.0633,-8.02,-7.9495,-7.9495,-7.9035,-7.8344,-7.828,-7.8183,-7.8183,-7.7989,-7.7891,-7.7891,-7.7891,-7.7891,-7.7891,-7.7891,-7.7891,-7.7891,-7.7891,-7.7891,-7.7891,-7.7891,-7.7891,-7.7891,-7.7891,-7.7825,-7.766,-7.766,-7.766,-7.7528,-7.7328,-7.7328,-7.7328,-7.7328,-7.7428,-7.766,-7.766,-7.7825,-7.7891,-7.7891,-7.7891,-7.7891,-7.7891,-7.7891,-7.7891,-7.7891,-7.8086,-7.8183,-7.8183,-7.8247,-7.8692,-7.9462,-7.9495,-7.9553,-7.9734,-7.9553,-7.9879,-8.0804,-8.0923,-8.1342,-8.2219,-8.3024,-8.3356,-8.3356,-8.3356,-8.3356,-8.3356,-8.3356,-8.3356,-3.6787,-4.0056,-4.2907,-4.3623,-4.503,-4.6221,-4.6221,-4.6296,-4.6116,-4.525,-4.4941,-4.4694,-4.4036,-4.4979,-4.595,-4.6161,-4.8065,-5.1663,-5.7866,-6.4032,-6.855,-7.0098,-7.1687,-7.3138,-7.4378,-7.4555,-7.4427,-7.4304,-7.4239,-7.4239,-7.4239,-7.4239,-7.4037,-7.3565,-7.3565,-7.443,-7.6163,-7.5704,-7.6973,-7.9879,-7.9462,-7.9187,-7.9187,-7.9187,-7.8941,-7.8631,-7.8631,-7.8344,-7.7891,-7.7891,-7.7891,-7.7891,-7.7891,-7.7891,-7.7891,-7.7891,-7.7891,-7.7891,-7.7891,-7.7891,-7.7891,-7.7891,-7.7891,-7.7891,-7.7891,-7.7727,-7.7495,-7.7495,-7.7428,-7.7328,-7.7328,-7.7328,-7.7361,-7.7228,-7.7127,-7.7127,-7.7127,-7.7228,-7.7328,-7.7328,-7.7428,-7.7495,-7.7495,-7.7628,-7.7727,-7.7727,-7.7825,-7.7891,-7.7891,-7.7891,-7.7891,-7.7891,-7.7891,-7.8086,-7.8502,-7.8631,-7.8631,-7.8631,-7.8631,-7.8787,-7.9187,-7.9734,-8.0146,-8.0495,-8.1946,-8.2609,-8.2609,-8.3134,-8.3356,-8.3356,-8.3356,-8.3356,-4.0224,0.0,-4.2639,-4.2745,-4.3562,-4.4413,0.0,-4.5373,-4.5832,-4.4589,-4.434,-4.4197,-4.3696,-4.3625,-4.412,-4.552,-4.5766,-4.7909,-5.3946,-6.0205,-6.5402,-6.8637,-7.0135,-7.1569,-7.3493,-7.3668,-7.3668,-7.3668,-7.3668,-7.3668,-7.3668,-7.3668,-7.3359,-7.269,-7.2473,-7.3392,-7.5621,-7.4954,-7.6105,-7.8975,-7.8247,-7.7891,-7.7891,-7.7891,-7.7891,-7.7891,-7.7891,-7.7891,-7.7891,-7.7891,-7.7891,-7.7891,-7.7891,-7.7891,-7.7891,-7.7891,-7.7891,-7.7891,-7.7694,-7.7595,-7.7595,-7.7595,-7.7694,-7.7825,-7.7825,-7.7195,-7.6584,-7.7228,-7.7094,-7.6891,-7.7127,-7.7127,-7.7127,-7.7025,-7.7025,-7.7025,-7.7025,-7.7025,-7.7025,-7.7025,-7.7127,-7.7127,-7.7127,-7.7328,-7.7561,-7.7561,-7.7825,-7.7891,-7.7891,-7.7891,-7.7891,-7.7891,-7.7891,-7.7891,-7.7891,-7.7891,-7.7891,-7.7891,-7.7891,-7.7891,-7.7891,-7.8597,-7.9068,-7.9312,-8.0667,-8.1541,-8.1704,-8.2454,-8.2873,-8.3059,-8.3059,-8.3209,0.0,-4.3489,-4.3359,-4.3748,-4.3625,-4.3533,-4.3888,-4.38,0.0,-4.3327,-4.325,-4.2758,-4.118,-4.102,-4.1539,-4.2813,-4.3132,-4.5281,-5.1165,-5.3705,-5.8109,-6.6408,-6.7536,-6.8733,-7.1606,-7.1879,-7.1879,-7.1879,-7.1879,-7.1879,-7.1879,-7.1879,-7.1879,-7.1803,-7.106,-7.1752,-7.3801,-7.3742,-7.519,-7.8086,-7.8022,-7.7891,-7.7891,-7.7891,-7.7891,-7.7891,-7.7891,-7.7891,-7.7891,-7.7891,-7.7891,-7.7891,-7.7891,-7.7891,-7.7891,-7.7891,-7.7891,-7.7793,-7.6724,-7.6313,-7.6313,-7.6313,-7.6891,-7.7561,-7.7328,-7.5823,-7.4828,-7.7162,-7.696,-7.6105,-7.6993,-7.7127,-7.7025,-7.6546,-7.6442,-7.6442,-7.6442,-7.6649,-7.6752,-7.6752,-7.7025,-7.7127,-7.7127,-7.7328,-7.7561,-7.7561,-7.7825,-7.7891,-7.7891,-7.7891,-7.7891,-7.7891,-7.7891,-7.7891,-7.7891,-7.7891,-7.7891,-7.7891,-7.7891,-7.7891,-7.7891,-7.7989,-7.844,-7.9312,-7.9404,-7.9879,-8.0719,-8.0804,-8.1342,-8.2106,-8.2106,-8.2609,-4.171,-4.1903,-4.1822,-4.1944,-4.1944,-4.1944,-4.2098,-4.2098,-4.1944,-4.174,-4.2466,-4.2873,-4.1987,-4.1927,-4.2486,-4.3851,-4.3348,-4.4822,-5.0868,-5.3003,-5.6192,-6.2409,-6.5585,-6.8451,-7.1454,-7.1727,-7.1727,-7.1727,-7.1727,-7.1727,-7.1727,-7.1727,-7.1263,-7.0166,-6.9864,-7.1011,-7.3649,-7.3682,-7.5096,-7.7891,-7.7891,-7.7891,-7.7891,-7.7891,-7.7891,-7.7891,-7.7891,-7.7891,0.0,-7.7891,-7.7463,-7.696,-7.7694,-7.6895,-7.5526,-7.6487,-7.6249,-7.542,-7.5164,-7.5089,-7.5089,-7.5089,-7.5303,-7.5654,-7.5516,-7.4548,-7.3663,-7.4407,-7.4297,-7.4077,-7.5196,-7.5442,-7.5686,-7.6202,-7.6338,-7.6338,-7.6338,-7.6442,-7.6578,-7.6578,-7.6649,-7.6649,-7.6649,-7.6854,-7.7058,-7.7058,-7.6789,-7.6622,-7.6622,-7.6177,-7.6041,-7.6724,-7.6826,-7.6826,-7.6826,-7.6826,-7.7162,-7.7924,-7.7891,-7.7891,-7.7891,-7.7891,-7.8086,-7.844,-7.844,-7.8975,-7.979,-7.979,-8.0321,-8.1141,-8.1141,-8.1342,-4.1248,-4.1301,-4.1215,-4.1343,-4.1343,-4.1198,-4.0809,-4.0671,-4.0409,-3.9762,-4.0282,-4.0874,-4.0728,-4.0512,-4.1011,-4.3108,-4.257,-4.3948,-4.9928,-5.2223,-5.4915,-5.947,-6.3859,-6.7335,-6.9361,-7.0407,-7.0947,-7.0947,-7.0947,-7.0947,-7.0947,-7.0947,-7.0414,-6.9244,-6.9244,-7.0657,-7.3649,-7.3682,-7.5096,-7.7891,-7.7891,-7.7891,-7.7891,-7.7595,-7.7363,-7.7363,-7.7029,-7.6794,-7.6794,-7.6794,-7.6249,-7.5484,-7.632,-7.5526,-7.3983,-7.5026,-7.481,-7.4014,-7.3966,-7.3886,-7.3886,-7.3886,-7.3886,-7.3886,-7.4218,-7.352,-7.2495,-7.1974,-7.2061,-7.2641,-7.3743,-7.3966,-7.4187,-7.5045,-7.5184,-7.5184,-7.5184,-7.5184,-7.5184,-7.5184,-7.5505,-7.5612,-7.5292,-7.5749,-7.6065,-7.5718,-7.5335,-7.5089,-7.5164,-7.4593,-7.4625,-7.5516,-7.5654,-7.5654,-7.5654,-7.5654,-7.6177,-7.7363,-7.7363,-7.7595,-7.7891,-7.7891,-7.7891,-7.7891,-7.7891,-7.8247,-7.8881,-7.8881,-7.922,-7.979,-8.0146,-8.0374,-4.2051,-4.2339,-4.21,-4.2459,-4.2162,-4.1503,-4.0311,-3.9623,-3.8803,-3.7253,-3.6554,-3.6285,-3.6713,-3.5784,-3.6123,-3.9664,-4.0255,-4.2242,-4.7974,-5.0541,-5.3527,-5.7926,-6.2306,-6.4936,-6.4936,-6.7567,-6.9156,-6.9244,-6.9244,-6.9244,-6.9244,-6.9156,-6.9156,-6.9156,-6.9156,-7.0601,-7.3556,-7.3589,-7.5096,-7.7891,-7.7891,-7.7891,-7.7891,-7.6724,-7.621,-7.6073,-7.4981,-7.4407,-7.4407,-7.4407,-7.4156,-7.3841,-7.3872,-7.3841,-7.3841,-7.3841,-7.4124,-7.4187,-7.3046,-7.2733,-7.2733,-7.2733,-7.2501,-7.2501,-7.3613,-7.2901,-7.1502,-7.0266,-7.0844,-7.1944,-7.2839,-7.3067,-7.2984,-7.2725,-7.2756,-7.2756,-7.2756,-7.2756,-7.2756,-7.2756,-7.3632,-7.4077,-7.2839,-7.3855,-7.4407,-7.3294,-7.3294,-7.36,-7.3872,-7.3841,-7.3983,-7.4407,-7.4407,-7.4407,-7.4438,-7.4407,-7.4981,-7.6105,-7.621,-7.6724,-7.7891,-7.7891,-7.7891,-7.7891,-7.7891,-7.7891,-7.7891,-7.7891,-7.7891,-7.7989,-7.8881,-7.9824,-4.4367,-4.3975,-4.2949,-4.3427,-4.2322,-4.0967,-4.0558,-3.8401,-3.6654,-3.713,-3.6356,-3.5922,-3.6963,-3.6756,-3.7172,-3.9345,-4.0001,-4.201,-4.7113,-5.021,-5.3086,-5.6245,-6.0916,-6.3836,-6.4006,-6.6514,-6.838,-6.9156,-6.9244,-6.9244,-6.9244,-6.847,-6.777,-6.7024,-6.771,-6.9188,-7.1365,-7.1397,-7.277,-7.5516,-7.5516,-7.5516,-7.5516,-7.5089,-7.4842,-7.4562,-7.4234,-7.3935,-7.3743,-7.3743,-7.315,-7.2495,-7.3263,-7.2579,-7.1234,-7.2232,-7.2147,-7.1621,-7.1474,-7.1235,-7.1085,-7.1085,-7.0844,-7.0753,-7.1085,-7.0693,-6.9961,-6.962,-6.9649,-6.9926,-7.0143,-7.0814,-7.159,-7.2525,-7.2756,-7.2756,-7.2756,-7.2756,-7.2756,-7.2756,-7.2954,-7.3098,-7.2756,-7.3067,-7.3181,-7.287,-7.2294,-7.1944,-7.203,-7.1708,-7.1796,-7.2725,-7.2324,-7.2355,-7.316,-7.3274,-7.3663,-7.4874,-7.4981,-7.5516,-7.6622,-7.6757,-7.7062,-7.7891,-7.7891,-7.7891,-7.7891,-7.7891,-7.7891,-7.7989,-7.828,-7.8502,-4.4913,-4.412,-4.2752,-4.3094,-4.2534,-4.1622,-4.0416,-3.8877,-3.7605,-3.7235,-3.6349,-3.6013,-3.6991,-3.7631,-3.8234,-3.8872,-4.0608,-4.3277,-4.7353,-5.0117,-5.2938,-5.6234,-6.0271,-6.2847,-6.2903,-6.5458,-6.7306,-6.7894,-6.7985,-6.7985,-6.7985,-6.7399,-6.6739,-6.616,-6.6739,-6.8072,-7.0315,-7.0346,-7.1731,-7.4407,-7.4266,-7.4266,-7.4156,-7.3632,-7.3263,-7.3006,-7.2548,-7.2263,-7.2061,-7.2061,-7.159,-7.0905,-7.156,-7.1025,-6.9897,-7.0935,-7.0814,-7.0266,-7.0662,-7.054,-7.0266,-7.0266,-6.9926,-6.9584,-6.9584,-6.9459,-6.9179,-6.9179,-6.9112,-6.9015,-6.9015,-6.9584,-7.0266,-7.1055,-7.1264,-7.1264,-7.1264,-7.1264,-7.1264,-7.1264,-7.1621,-7.1739,-7.1294,-7.1621,-7.1739,-7.1264,-7.0723,-7.048,-7.0572,-7.0359,-7.048,-7.1383,-7.0965,-7.1115,-7.1948,-7.2065,-7.2501,-7.3663,-7.3775,-7.4328,-7.541,-7.5516,-7.6073,-7.7263,-7.7263,-7.7463,-7.7891,-7.7891,-7.7891,-7.7891,-7.7891,-7.7891,-4.4409,-4.3227,-4.1893,-4.1984,-4.2704,-4.2774,-4.0284,-4.0391,-4.0303,-3.7719,-3.6697,-3.6404,-3.689,-3.8331,-3.9241,-3.8698,-4.1823,-4.5355,-4.8253,-5.0458,-5.3224,-5.7344,-6.0222,-6.1946,-6.2071,-6.4396,-6.5965,-6.6063,-6.6063,-6.6063,-6.5867,-6.5835,-6.5835,-6.5768,-6.5961,-6.734,-6.9898,-7.0055,-7.14,-7.4077,-7.3681,-7.3538,-7.3426,-7.2147,-7.1502,-7.1502,-7.0359,-6.9926,-6.9926,-6.9926,-6.9679,-6.9371,-6.9371,-6.9371,-6.9371,-6.9773,-6.9926,-7.005,-7.0266,-7.0143,-6.9926,-6.9926,-6.9459,-6.9015,-6.9015,-6.9015,-6.9015,-6.9015,-6.9015,-6.9015,-6.9015,-6.9015,-6.9015,-6.9015,-6.9015,-6.9015,-6.9015,-6.9015,-6.9015,-6.9015,-6.9926,-7.0236,-6.9238,-6.9897,-7.0266,-6.9112,-6.9015,-6.9112,-6.9275,-6.9649,-7.005,-7.0236,-7.0359,-7.051,-7.0813,-7.0934,-7.1385,-7.2385,-7.2501,-7.3046,-7.4187,-7.4328,-7.4874,-7.5969,-7.5969,-7.652,-7.7562,-7.7694,-7.7793,-7.7793,-7.7891,-7.7891,-4.515,-4.3404,-4.1295,-4.16,-4.2272,-4.26,-4.1943,-4.0778,-3.9685,-3.9045,-3.8015,-3.7259,-3.7383,-3.8489,-3.9708,-4.0594,-4.2771,-4.54,-4.8584,-5.1444,-5.4238,-5.6973,-5.9397,-6.1258,-6.2338,-6.3881,-6.524,-6.6063,-6.6063,-6.534,-6.3764,-6.4429,-6.446,-6.3373,-6.5114,-6.6346,-6.7009,-6.8058,-6.9376,-7.0935,-7.0814,-7.0814,-7.0814,-7.048,-7.0236,-6.9838,-6.962,-6.943,-6.9238,-6.9238,-6.9112,-6.9112,-6.9112,-6.9208,-6.9371,-6.9496,-6.9649,-6.9926,-7.005,-6.9773,-6.9496,-6.9496,-6.9305,-6.9015,-6.9015,-6.9015,-6.9015,-6.9015,-6.9015,-6.9015,-6.9015,-6.9015,-6.9015,-6.9015,-6.9015,-6.9015,-6.9015,-6.9015,-6.9015,-6.9015,-6.9238,-6.9363,-6.9015,-6.9238,-6.9363,-6.9015,-6.9015,-6.9015,-6.9112,-6.9305,-6.9496,-6.962,-6.9991,-7.0266,-7.0173,-7.0691,-7.0904,-7.0844,-7.1115,-7.1681,-7.261,-7.2901,-7.3438,-7.4312,-7.4702,-7.4981,-7.5196,-7.6073,-7.652,-7.6622,-7.7295,-7.7727,-4.4839,-4.3117,-4.1192,-4.0736,-4.1829,-4.2731,-4.2024,-4.2078,-4.2064,-4.1476,-4.0817,-3.9991,-3.9024,-4.0687,-4.2171,-4.1837,-4.4503,-4.7488,-4.9927,-5.2085,-5.4358,-5.688,-5.8674,-6.0369,-6.1672,-6.2976,-6.4047,-6.4563,-6.4563,-6.3973,-6.2682,-6.316,-6.3053,-6.2386,-6.3555,-6.484,-6.6032,-6.674,-6.8038,-6.9926,-6.9773,-6.9649,-6.9649,-6.9584,-6.9459,-6.9179,-6.9179,-6.9083,-6.9015,-6.9015,-6.9015,-6.9015,-6.9015,-6.9112,-6.9179,-6.94,-6.943,-6.9584,-6.9649,-6.9554,-6.9179,-6.9179,-6.9112,-6.9015,-6.9015,-6.9015,-6.9015,-6.9015,-6.9015,-6.9015,-6.9015,-6.9015,-6.9015,-6.9015,-6.9015,-6.9015,-6.9015,-6.9015,-6.9015,-6.9015,-6.9015,-6.9015,-6.9015,-6.9015,-6.9015,-6.9015,-6.9015,-6.9015,-6.9015,-6.9112,-6.9305,-6.9371,-6.9744,-6.9897,-6.9926,-7.0296,-7.0418,-7.0143,-7.0418,-7.0632,-7.1055,-7.1325,-7.1857,-7.3006,-7.315,-7.3488,-7.4124,-7.4625,-7.5164,-7.5695,-7.6249,-7.6826,-4.4195,-4.2762,-4.1265,-3.9933,-4.1296,-4.2752,-4.1741,-4.3306,-4.4696,-4.3679,-4.3396,-4.283,-4.1128,-4.3094,-4.4479,-4.2943,-4.63,-4.9582,-5.1104,-5.2564,-5.4476,-5.7202,-5.8488,-5.9715,-6.1211,-6.2241,-6.2868,-6.2868,-6.2868,-6.2682,-6.2196,-6.2196,-6.2196,-6.2196,-6.2196,-6.3323,-6.5915,-6.618,-6.7476,-6.9803,-6.9525,-6.9275,-6.9275,-6.9112,-6.9015,-6.9015,-6.9015,-6.9015,-6.9015,-6.9015,-6.9015,-6.9015,-6.9015,-6.9015,-6.9015,-6.9305,-6.9208,-6.9015,-6.9305,-6.9179,-6.9015,-6.9015,-6.9015,-6.9015,-6.9015,-6.9015,-6.9015,-6.9015,-6.9015,-6.9015,-6.9015,-6.9015,-6.9015,-6.9015,-6.9015,-6.9015,-6.9015,-6.9015,-6.9015,-6.9015,-6.9015,-6.9015,-6.9015,-6.9015,-6.9015,-6.9015,-6.9015,-6.9015,-6.9015,-6.9015,-6.9112,-6.9275,-6.9371,-6.9525,-6.9803,-6.9926,-6.9926,-6.9926,-6.9926,-6.9926,-6.9926,-6.9926,-7.048,-7.159,-7.1472,-7.203,-7.3201,-7.315,-7.3712,-7.467,-7.4779,-7.5484,-4.3679,-4.2549,-4.1265,-3.9865,-4.0607,-4.1741,-4.1892,-4.2769,-4.3634,-4.3855,-4.3567,-4.3291,-4.3117,-4.3384,-4.3884,-4.4707,-4.7087,-4.9419,-5.0983,-5.3162,-5.5695,-5.8448,-5.9027,-6.0001,-6.2176,-6.2563,-6.2574,-6.2276,-6.2276,-6.2276,-6.2196,-6.2196,-6.2196,-6.2196,-6.2005,-6.2901,-6.5208,-6.6315,-6.7626,-6.9141,-6.9112,-6.9015,-6.9015,-6.9015,-6.9015,-6.9015,-6.9015,-6.9015,-6.9015,-6.9015,-6.9015,-6.9015,-6.9015,-6.9015,-6.9015,-6.9015,-6.9015,-6.9015,-6.9015,-6.9015,-6.9015,-6.9015,-6.9015,-6.9015,-6.9015,-6.9015,-6.9015,-6.9015,-6.9015,-6.9015,-6.9015,-6.9015,-6.9015,-6.9015,-6.9015,-6.9015,-6.9015,-6.9015,-6.9015,-6.9015,-6.9015,-6.9015,-6.9015,-6.9015,-6.9015,-6.9015,-6.9015,-6.9015,-6.9015,-6.9015,-6.9015,-6.8986,-6.9305,-6.9275,-6.9112,-6.9708,-6.9803,-6.9496,-6.9773,-6.9773,-6.9496,-6.9773,-6.9897,-6.9714,-6.9991,-7.0266,-7.048,-7.1502,-7.2061,-7.2147,-7.3067,-7.3632,-4.3796,-4.3343,-4.2755,-4.1843,-4.2602,-4.3485,-4.3171,-4.3922,-4.4659,-4.4084,-4.401,-4.3511,-4.2083,-4.4015,-4.5777,-4.5626,-4.8677,-5.1549,-5.3009,-5.4119,-5.5599,-5.7731,-5.8698,-5.9762,-6.1296,-6.2158,-6.2465,-6.2196,-6.1865,-6.1643,-6.1643,-6.1643,-6.1643,-6.1643,-6.1532,-6.1973,-6.2965,-6.4943,-6.6979,-6.9015,-6.9015,-6.9015,-6.9015,-6.9015,-6.9015,-6.9015,-6.9015,-6.9015,-6.9015,-6.9015,-6.9015,-6.9015,-6.9015,-6.9015,-6.9015,-6.9015,-6.9015,-6.9015,-6.9015,-6.9015,-6.9015,-6.9015,-6.9015,-6.9015,-6.9015,-6.9015,-6.9015,-6.9015,-6.9015,-6.9015,-6.9015,-6.9015,-6.9015,-6.9015,-6.9015,-6.9015,-6.9015,-6.9015,-6.9015,-6.9015,-6.9015,-6.9015,-6.9015,-6.9015,-6.9015,-6.9015,-6.9015,-6.9015,-6.9015,-6.9015,-6.9015,-6.9015,-6.9083,-6.9083,-6.9015,-6.9238,-6.9334,-6.9208,-6.9334,-6.9334,-6.9208,-6.9334,-6.943,-6.9371,-6.943,-6.9459,-6.9649,-7.002,-7.0602,-7.1145,-7.159,-7.2263,-4.3667,-4.354,-4.3413,-4.276,-4.3584,-4.4306,-4.3726,-4.4439,-4.4981,-4.4281,-4.4178,-4.3787,-4.221,-4.4984,-4.7318,-4.6745,-5.0002,-5.2996,-5.4075,-5.4473,-5.5294,-5.6798,-5.8209,-5.9421,-6.0419,-6.1616,-6.2276,-6.1976,-6.1137,-6.0941,-6.1195,-6.1195,-6.1195,-6.1195,-6.1195,-6.1195,-6.1195,-6.3838,-6.6426,-6.9015,-6.9015,-6.9015,-6.9015,-6.9015,-6.9015,-6.9015,-6.9015,-6.9015,-6.9015,-6.9015,-6.9015,-6.9015,-6.9015,-6.9015,-6.9015,-6.9015,-6.9015,-6.9015,-6.9015,-6.9015,-6.9015,-6.9015,-6.9015,-6.9015,-6.9015,-6.9015,-6.9015,-6.9015,-6.9015,-6.9015,-6.9015,-6.9015,-6.9015,-6.9015,-6.9015,-6.9015,-6.9015,-6.9015,-6.9015,-6.9015,-6.9015,-6.9015,-6.9015,-6.9015,-6.9015,-6.9015,-6.9015,-6.9015,-6.9015,-6.9015,-6.9015,-6.9015,-6.9015,-6.9015,-6.9015,-6.9015,-6.9015,-6.9015,-6.9015,-6.9015,-6.9015,-6.9015,-6.9112,-6.9275,-6.9112,-6.9112,-6.9275,-6.9112,-6.9459,-7.0359,-7.0359,-7.0814,-4.2744,-4.266,-4.2349,-4.1108,-4.149,-4.2228,-4.2543,-4.3072,-4.3656,-4.4358,-4.3887,-4.3884,-4.5485,-4.6364,-4.7316,-4.8606,-5.0705,-5.2337,-5.2748,-5.3699,-5.5005,-5.6572,-5.7879,-5.8981,-5.9859,-6.1132,-6.1672,-6.1308,-6.0057,-5.9942,-6.1166,-6.1195,-6.1195,-6.1195,-6.1195,-6.1195,-6.1195,-6.3838,-6.6426,-6.9015,-6.9015,-6.9015,-6.9015,-6.9015,-6.9015,-6.9015,-6.9015,-6.9015,-6.9015,-6.9015,-6.9015,-6.9015,-6.9015,-6.9015,-6.9015,-6.9015,-6.9015,-6.9015,-6.9015,-6.9015,-6.9015,-6.9015,-6.9015,-6.9015,-6.9015,-6.9015,-6.9015,-6.9015,-6.9015,-6.9015,-6.9015,-6.9015,-6.9015,-6.9015,-6.9015,-6.9015,-6.9015,-6.9015,-6.9015,-6.9015,-6.9015,-6.9015,-6.9015,-6.9015,-6.9015,-6.9015,-6.9015,-6.9015,-6.9015,-6.9015,-6.9015,-6.9015,-6.9015,-6.9015,-6.9015,-6.9015,-6.9015,-6.9015,-6.9015,-6.9015,-6.9015,-6.9015,-6.9015,-6.9015,-6.9015,-6.9015,-6.9015,-6.9015,-6.9015,-6.9141,-6.9141,-6.9112,-4.2845,-4.2912,-4.2978,-4.311,-4.3337,-4.3534,-4.3066,-4.3591,-4.3556,-4.1706,-4.2351,-4.3251,-4.3411,-4.5716,-4.782,-4.8625,-5.0729,-5.2305,-5.2435,-5.295,-5.352,-5.4083,-5.6107,-5.7403,-5.7536,-5.7809,-5.8142,-5.8664,-5.8337,-5.8574,-5.9942,-5.9942,-6.0315,-6.1195,-6.1195,-6.1195,-6.1195,-6.3838,-6.5583,-6.6543,-6.823,-6.9015,-6.9015,-6.9015,-6.9015,-6.9015,-6.9015,-6.9015,-6.9015,-6.9015,-6.9015,-6.9015,-6.9015,-6.9015,-6.9015,-6.9015,-6.9015,-6.9015,-6.9015,-6.9015,-6.9015,-6.9015,-6.9015,-6.9015,-6.9015,-6.9015,-6.9015,-6.9015,-6.9015,-6.9015,-6.9015,-6.9015,-6.9015,-6.9015,-6.9015,-6.9015,-6.9015,-6.9015,-6.9015,-6.9015,-6.9015,-6.9015,-6.9015,-6.9015,-6.9015,-6.9015,-6.9015,-6.9015,-6.9015,-6.9015,-6.9015,-6.9015,-6.8136,-6.7564,-6.7564,-6.7564,-6.7564,-6.7564,-6.842,-6.9015,-6.9015,-6.9015,-6.9015,-6.9015,-6.9015,-6.9015,-6.9015,-6.9015,-6.9015,-6.9015,-6.9015,-6.9015,-4.0884,-4.1181,-4.1334,-4.2245,-4.2986,-4.3292,-4.2701,-4.3204,-4.3277,-4.1165,-4.1938,-4.294,-4.2912,-4.524,-4.7534,-4.8579,-5.0025,-5.1203,-5.1699,-5.1857,-5.1959,-5.1959,-5.3884,-5.5279,-5.5388,-5.4795,-5.5079,-5.6696,-5.6798,-5.7258,-5.8574,-5.9072,-5.9682,-6.0572,-6.0572,-6.0799,-6.1195,-6.2906,-6.4028,-6.4397,-6.7052,-6.8298,-6.8293,-6.8732,-6.9015,-6.9015,-6.9015,-6.9015,-6.9015,-6.9015,-6.9015,-6.9015,-6.9015,-6.9015,-6.9015,-6.9015,-6.9015,-6.9015,-6.9015,-6.9015,-6.9015,-6.9015,-6.9015,-6.9015,-6.9015,-6.9015,-6.9015,-6.9015,-6.9015,-6.9015,-6.9015,-6.9015,-6.9015,-6.9015,-6.9015,-6.9015,-6.9015,-6.9015,-6.9015,-6.9015,-6.9015,-6.9015,-6.9015,-6.9015,-6.9015,-6.9015,-6.9015,-6.9015,-6.9015,-6.8576,-6.8008,-6.7491,-6.6623,-6.5878,-6.5878,-6.5878,-6.5878,-6.5878,-6.6913,-6.775,-6.8165,-6.8293,-6.842,-6.9015,-6.9015,-6.9015,-6.9015,-6.9015,-6.9015,-6.9015,-6.9015,-6.9015,-3.6975,-3.7089,-3.7291,-3.8094,-3.9785,-4.1293,-4.1293,-4.1927,-4.2603,-4.292,-4.2788,-4.2964,-4.4406,-4.5192,-4.637,-4.8514,-4.8652,-4.8933,-5.0237,-5.043,-5.0457,-5.0457,-5.1609,-5.282,-5.3637,-5.2539,-5.2837,-5.5459,-5.5419,-5.5909,-5.723,-5.8483,-5.9189,-5.9217,-5.9334,-5.9942,-6.1166,-6.1195,-6.1789,-6.2934,-6.5576,-6.6784,-6.6585,-6.8078,-6.8859,-6.8888,-6.9015,-6.9015,-6.9015,-6.9015,-6.9015,-6.9015,-6.9015,-6.9015,-6.9015,-6.9015,-6.9015,-6.9015,-6.9015,-6.9015,-6.9015,-6.9015,-6.9015,-6.9015,-6.9015,-6.9015,-6.9015,-6.9015,-6.9015,-6.9015,-6.9015,-6.9015,-6.9015,-6.9015,-6.9015,-6.9015,-6.9015,-6.9015,-6.9015,-6.9015,-6.9015,-6.9015,-6.9015,-6.9015,-6.9015,-6.9015,-6.9015,-6.8888,-6.8888,-6.7564,-6.6039,-6.4725,-6.4425,-6.4425,-6.4425,-6.4425,-6.4425,-6.4425,-6.4561,-6.5238,-6.6567,-6.6698,-6.7406,-6.9015,-6.9015,-6.9015,-6.9015,-6.9015,-6.9015,-6.9015,-6.9015,-6.9015,-3.6884,-3.7089,-3.7291,-3.8094,-3.8678,-3.9177,-3.9177,-3.981,-4.0287,-3.9497,-4.0504,-4.1696,-4.267,-4.3733,-4.4785,-4.594,-4.6828,-4.7418,-4.7844,-4.8699,-4.9369,-4.9207,-5.0283,-5.0828,-5.0088,-4.9778,-5.046,-5.2788,-5.2857,-5.3749,-5.5784,-5.6307,-5.692,-5.786,-5.8837,-5.945,-5.9826,-6.0813,-6.1337,-6.1732,-6.2476,-6.2852,-6.28,-6.4076,-6.5648,-6.7406,-6.8576,-6.9015,-6.9015,-6.9015,-6.9015,-6.9015,-6.9015,-6.9015,-6.9015,-6.9015,-6.9015,-6.9015,-6.9015,-6.9015,-6.9015,-6.9015,-6.9015,-6.9015,-6.9015,-6.9015,-6.9015,-6.9015,-6.9015,-6.9015,-6.9015,-6.9015,-6.9015,-6.9015,-6.9015,-6.9015,-6.9015,-6.9015,-6.9015,-6.9015,-6.9015,-6.9015,-6.9015,-6.9015,-6.9015,-6.9015,-6.8008,-6.6885,-6.5934,-6.5372,-6.4968,-6.4561,-6.3602,-6.2907,-6.2907,-6.2907,-6.2907,-6.2907,-6.494,-6.6303,-6.6698,-6.7722,-6.8576,-6.9015,-6.9015,-6.9015,-6.9015,-6.9015,-6.9015,-6.9015,-6.9015,-6.9015,-3.4386,-3.4622,-3.5054,-3.6178,-3.6542,-3.6819,-3.7274,-3.7957,-3.8334,-3.7842,-3.9111,-4.0385,-4.0707,-4.1786,-4.2846,-4.3621,-4.4691,-4.5628,-4.5989,-4.7272,-4.8028,-4.7831,-4.8553,-4.868,-4.7875,-4.8268,-4.9199,-5.0376,-5.091,-5.1995,-5.3852,-5.4378,-5.5333,-5.6526,-5.7285,-5.7888,-5.8456,-5.8697,-5.9059,-5.9554,-6.0143,-6.0392,-6.0392,-6.1591,-6.3085,-6.4428,-6.5924,-6.685,-6.7417,-6.7807,-6.8449,-6.9015,-6.9015,-6.9015,-6.8957,-6.8404,-6.852,-6.9015,-6.9015,-6.9015,-6.9015,-6.9015,-6.9015,-6.9015,-6.9015,-6.9015,-6.9015,-6.9015,-6.9015,-6.9015,-6.9015,-6.9015,-6.9015,-6.9015,-6.9015,-6.9015,-6.9015,-6.9015,-6.9015,-6.9015,-6.9015,-6.9015,-6.9015,-6.9015,-6.8732,-6.8136,-6.6754,-6.5506,-6.4725,-6.4015,-6.3602,-6.3602,-6.2372,-6.1574,-6.1574,-6.1574,-6.1574,-6.1574,-6.3073,-6.4261,-6.4805,-6.5801,-6.6782,-6.8008,-6.8008,-6.8293,-6.9015,-6.9015,-6.9015,-6.9015,-6.9015,-6.9015,-3.0603,-3.0916,-3.1701,-3.2945,-3.3598,-3.4104,0.0,-3.5832,-3.6339,-3.6884,-3.7935,-3.8682,-3.8536,-3.9534,-4.0634,-4.1281,-4.2475,-4.3669,-4.4787,-4.5956,-4.6692,-4.6692,-4.6794,-4.687,-4.687,-4.7759,-4.8395,-4.8639,-4.9436,-5.0478,-5.1621,-5.2859,-5.3873,-5.5002,-5.5179,-5.5829,-5.7109,-5.5935,-5.5864,-5.7019,-5.8086,-5.8497,-5.8548,-5.9965,-6.0691,-6.0874,-6.2076,-6.3381,-6.468,-6.5722,-6.6878,-6.8172,-6.8298,-6.8453,-6.8433,-6.7241,-6.7561,-6.8579,-6.8579,-6.8579,-6.8608,-6.8753,-6.8782,-6.8811,-6.8986,-6.9015,-6.9015,-6.9015,-6.9015,-6.9015,-6.9015,-6.9015,-6.9015,-6.9015,-6.9015,-6.9015,-6.9015,-6.9015,-6.9015,-6.9015,-6.9015,-6.9015,-6.9015,-6.8888,-6.8165,-6.6435,-6.5103,-6.4316,-6.4042,-6.2934,-6.2231,-6.2231,-6.1026,-6.0233,-6.0233,-6.0233,-6.0233,-6.0233,-6.0379,-6.1026,-6.2346,-6.2487,-6.385,-6.6567,-6.6698,-6.7434,-6.9015,-6.9015,-6.9015,-6.9015,-6.9015,-6.8714,0.0,0.0,0.0,0.0,0.0,0.0,0.0,-3.1245,-3.174,-3.3293,-3.4382,-3.5294,-3.5893,-3.7567,-3.8988,-3.9122,-4.0824,-4.2552,-4.3695,-4.4787,-4.5473,-4.5473,-4.6311,-4.687,-4.687,-4.7074,-4.7582,-4.8588,-4.8725,-4.9334,-5.0452,-5.0747,-5.1381,-5.2507,-5.3627,-5.4663,-5.5837,-5.5489,-5.5469,-5.5679,-5.4917,-5.4557,-5.4554,-5.5846,-5.7024,-5.8117,-5.9288,-6.0689,-6.2036,-6.2257,-6.2496,-6.2879,-6.3889,-6.4936,-6.5845,-6.5583,-6.5641,-6.5874,-6.5874,-6.5874,-6.6048,-6.7066,-6.7386,-6.7619,-6.8695,-6.9015,-6.9015,-6.9015,-6.9015,-6.9015,-6.9015,-6.9015,-6.9015,-6.9015,-6.9015,-6.9015,-6.9015,-6.9015,-6.9015,-6.9015,-6.9015,-6.9015,-6.9015,-6.7979,-6.6303,-6.3575,-6.3047,-6.2372,-6.117,-6.0907,-6.0618,-6.0618,-6.0379,-6.0233,-6.0233,-6.0233,-6.0233,-6.0233,-6.1288,-6.209,-6.2346,-6.3463,-6.4968,-6.6698,-6.6698,-6.7434,-6.9015,-6.9015,-6.9015,-6.9015,-6.9015,-6.6692,0.0,0.0,0.0,0.0,0.0,0.0,0.0,0.0,0.0,0.0,0.0,-3.293,-3.4287,0.0,-3.7248,-3.8318,-3.9884,-4.1383,-4.2526,-4.4101,-4.4914,-4.4355,-4.5295,-4.6007,-4.6007,-4.654,-4.7124,-4.7658,-4.7709,-4.8191,-4.9309,-4.936,-4.9868,-5.0986,-5.16,-5.251,-5.3649,-5.3649,-5.3934,-5.4376,-5.3759,-5.3501,-5.3526,-5.4085,-5.4707,-5.5384,-5.6059,-5.7024,-5.8309,-5.8958,-6.0437,-6.2017,-6.0021,-6.0063,-6.1362,-6.1977,-6.3011,-6.419,-6.419,-6.4581,-6.5205,-6.5845,-6.6048,-6.6194,-6.6863,-6.7502,-6.8026,-6.8026,-6.8491,-6.9015,-6.9015,-6.8888,-6.8732,-6.9015,-6.8888,-6.8732,-6.9015,-6.842,-6.785,-6.785,-6.7305,-6.6782,-6.6782,-6.5238,-6.3437,-6.2064,-6.1431,-6.0737,-6.0087,-6.0087,-6.0233,-5.994,-5.9966,-5.9966,-5.9966,-5.9966,-6.0087,-6.0233,-6.0907,-6.1288,-6.1288,-6.2001,-6.2807,-6.3633,-6.3633,-6.4183,-6.5076,-6.5076,-6.5076,-6.5076,-6.3776,-6.1917,0.0,0.0,0.0,0.0,0.0,0.0,0.0,0.0,0.0,0.0,0.0,0.0,0.0,0.0,0.0,-3.7308,-3.8672,-3.996,-4.1307,-4.3034,-4.3847,-4.3037,-4.4,-4.4813,-4.4813,-4.5676,-4.6311,-4.654,-4.654,-4.7023,-4.8141,-4.8217,-4.8725,-4.9843,-4.9893,-5.0401,-5.1519,-5.1545,-5.1977,-5.2866,-5.3094,0.0,-5.3196,-5.3399,-5.3501,-5.3501,-5.3501,-5.4034,-5.498,-5.6371,-5.8671,-6.0961,-5.6931,-5.6043,-5.7117,-5.8675,-6.0665,-6.2419,-6.2691,-6.3323,-6.4007,-6.4534,-6.4473,-6.4263,-6.4494,-6.5424,0.0,-6.6234,-6.7015,-6.8037,-6.8016,-6.7791,-6.7592,-6.7822,-6.7621,-6.7463,-6.7879,-6.6885,-6.6011,-6.6143,-6.521,-6.4289,-6.4425,-6.2346,-6.083,-6.083,-6.0182,-5.9672,-5.9672,-6.0087,-6.0087,-5.9819,-5.9672,-5.9672,-5.9672,-5.9672,-5.9672,-6.0087,-6.0087,-6.0087,-6.0087,-5.9859,-5.9993,-6.0521,-6.0284,-6.0406,-6.0911,-6.0911,-6.0801,-6.0527,-5.6839,-5.53,0.0,0.0,0.0,0.0,0.0,0.0,0.0,0.0,0.0,0.0,0.0,0.0,0.0,0.0,0.0,0.0,-3.5961,-3.7877,-4.0134,-4.0643,-4.077,-4.0643,-4.2476,-4.3669,-4.3746,-4.3822,-4.4254,-4.527,-4.5321,-4.5829,-4.6997,-4.7074,0.0,0.0,0.0,-4.9258,-5.0376,-5.0376,-5.0452,-5.0579,-5.157,-5.2027,-5.2078,-5.3069,-5.3501,-5.3501,-5.3501,-5.3577,-5.3679,-5.5068,-5.5247,-5.4583,-5.5217,-5.5443,-5.5925,-5.832,-5.9499,-5.9874,-6.1118,0.0,0.0,-6.2237,-6.205,-6.1049,-6.2168,-6.3514,-6.4269,-6.3075,-6.3712,-6.4604,-6.4396,-6.4261,-6.4251,-6.4098,-6.3934,-6.3934,-6.3934,-6.3934,-6.3796,-6.4207,-6.3796,-6.3659,-6.3934,-6.1353,-5.9302,-5.9302,-5.95,-5.9672,-5.9672,-6.0087,-6.0233,-6.0233,-5.9966,0.0,-5.9672,-5.9352,-5.9352,-5.9672,-5.9672,-5.9672,-5.9672,-5.8666,-5.8749,-6.0108,-5.925,-5.9049,-5.9719,-5.9719,-5.9224,-5.8125,-5.0765,-4.7325,0.0,0.0,0.0,0.0,0.0,0.0,0.0,0.0,0.0,0.0,0.0,0.0,0.0,0.0,0.0,0.0,-3.4088,-3.5394,-3.634,-3.6971,-3.775,-3.9046,-4.0694,-4.179,-4.2475,-4.3111,-4.3775,-4.4127,-4.4177,-4.466,-4.5803,-4.5854,-4.6388,-4.7531,-4.7582,-4.8115,-4.9207,-4.9233,-4.9538,-5.0198,-5.0681,-5.0884,-5.091,-5.1367,-5.1595,-5.1595,-5.1595,-5.1951,-5.2561,-5.3169,-5.3427,-5.3503,0.0,0.0,0.0,0.0,-5.4792,-5.5945,-5.716,-5.7499,-5.7582,-5.8707,-5.9114,-5.9198,-5.9819,-6.0853,-6.1808,-6.1167,-6.1419,-6.1805,-6.1789,-6.1536,-6.1547,-6.2338,-6.2363,-6.2414,-6.3222,-6.2714,-6.2179,-6.232,-6.1638,0.0,-5.9145,-5.7609,-5.6562,-5.6562,-5.6826,-5.7362,-5.7839,-5.8376,-5.8772,-5.9129,-5.9056,-5.9081,-5.9081,-5.8908,0.0,0.0,0.0,-5.95,-5.9672,-5.8276,0.0,0.0,0.0,-5.4274,-5.2633,-5.2633,0.0,0.0,-4.2293,-4.077,0.0,0.0,0.0,0.0,0.0,0.0,0.0,0.0,0.0,0.0,0.0,0.0,0.0,0.0,0.0,0.0,-3.2118,-3.2799,-3.2542,-3.3792,-3.5308,-3.6614,-3.8232,-3.9433,-3.9924,-4.0929,-4.1865,-4.2069,-4.2476,-4.3034,-4.4152,-4.4508,-4.5067,-4.5905,-4.6235,-4.6794,-4.7582,-4.7912,-4.8496,-4.9284,-4.9589,-4.9741,-4.9741,-5.0046,-5.0198,-5.0198,-5.0198,-5.0655,-5.1392,-5.1837,-5.2225,-5.2434,-5.1707,-5.0846,-4.9929,-4.9929,-5.1119,-5.2843,-5.4074,-5.4583,-5.4924,-5.5289,-5.5651,-5.613,-5.613,-5.6996,-5.7949,-5.7557,-5.803,-5.8497,-5.8433,-5.8388,-5.8654,-5.9653,-5.967,-5.9768,-6.0717,-6.0137,-5.9478,-5.962,-5.8666,-5.7322,-5.5428,-5.4758,-5.464,-5.464,-5.4899,-5.5453,-5.6217,-5.6653,-5.7243,-5.8042,-5.8165,-5.8141,-5.8436,-5.8486,-5.8338,-5.8436,-5.8411,-5.8433,-5.8621,-5.7387,-5.538,-5.2374,-5.1405,-4.9467,0.0,0.0,0.0,0.0,0.0,0.0,0.0,0.0,0.0,0.0,0.0,0.0,0.0,0.0,0.0,0.0,0.0,0.0,0.0,0.0,0.0,0.0,0.0,0.0,-2.9264,-3.1852,-3.3438,-3.2416,-3.4997,-3.6387,-3.5293,-3.6282,-3.742,-3.8563,-3.9656,-4.0847,-4.184,-4.2933,-4.3648,-4.3673,-4.4609,-4.5194,-4.5244,-4.6362,-4.6947,-4.6997,-4.8064,-4.8572,-4.8623,-4.969,-5.0198,-5.0198,-5.0198,-5.0224,-5.0371,-5.1562,-5.1376,-5.0178,-4.998,-4.9587,-4.9193,-4.9193,-5.0,-5.1417,-5.2682,-5.2125,-5.1138,-5.2412,-5.1707,-5.0441,-5.0441,-5.1428,-5.231,-5.0855,-5.2235,-5.3969,-5.3735,-5.4445,-5.5162,-5.496,-5.4807,-5.4807,-5.4856,-5.4856,-5.4997,-5.5256,-5.4997,-5.4713,-5.464,-5.464,-5.464,-5.464,-5.4899,0.0,-5.5206,-5.5653,-5.6242,-5.7193,-5.6979,-5.7253,-5.8362,-5.8186,-5.7596,-5.6908,-5.6834,-5.6509,-5.5918,-5.5513,-5.4195,-5.2208,-4.8945,-4.5823,-4.2924,0.0,0.0,0.0,0.0,0.0,0.0,0.0,0.0,0.0,0.0,0.0,0.0,0.0,0.0,0.0,0.0,0.0,0.0,0.0,0.0,0.0,0.0,0.0,0.0,-3.0086,-3.1648,-3.2069,-3.3502,-3.4458,-3.415,-3.4964,-3.5777,-3.6381,-3.7308,-3.8385,-3.9554,-4.077,-4.1712,-4.2348,-4.3492,-4.4076,-4.4025,-4.4406,-4.499,-4.5727,-4.6108,-4.6692,-4.7455,-4.7836,-4.7988,-4.7988,-4.7988,-4.842,-4.9225,-4.9646,-4.808,-4.553,-4.5221,-4.4996,-4.4971,-4.4971,-4.5647,-4.6706,-4.6882,-4.7137,-4.7303,-4.7512,-4.777,-4.8118,-4.8118,-4.8464,-4.8874,-4.9037,-4.9044,-4.9236,-4.9864,-5.07,-5.1763,-5.2384,-5.3054,-5.3762,-5.4469,-5.464,-5.464,-5.4758,-5.2458,-5.0394,-5.0394,-5.0394,-5.0394,-5.0394,-5.0525,-5.1171,-5.2569,-5.2901,-5.3614,-5.541,-5.5439,-5.5443,-5.5834,-5.5738,-5.5568,-5.532,-5.5296,-5.509,-5.4422,-5.327,-5.1893,-4.9983,-4.6457,-4.3787,-4.208,0.0,0.0,0.0,0.0,0.0,0.0,0.0,0.0,0.0,0.0,0.0,0.0,0.0,0.0,0.0,0.0,0.0,0.0,0.0,0.0,0.0,0.0,0.0,0.0,0.0,0.0,-3.0751,-3.1629,0.0,-3.2286,-3.2835,-3.3288,-3.3402,-3.4483,-3.5563,-3.6648,-3.7843,-3.8963,-3.9986,-4.1154,-4.1739,-4.1688,-4.2475,-4.3238,-4.3949,-4.4355,-4.494,-4.5651,-4.5676,-4.5676,-4.5651,-4.5651,-4.6083,-4.6718,-4.6286,-4.415,-4.1213,-4.1053,-4.0843,-4.0713,-4.0713,-4.1367,-4.2196,-4.2089,-4.2424,-4.2965,-4.2658,-4.3185,-4.3949,-4.3489,-4.3707,-4.4175,-4.4696,-4.4883,-4.5245,-4.6709,-4.7856,-4.893,-5.0028,-5.0833,-5.1516,-5.2224,-5.2346,-5.2127,-5.1346,-4.8978,-4.683,-4.6313,-4.6436,-4.6581,-4.6793,-4.699,-4.7912,-5.0565,-5.0833,-5.1663,-5.3835,-5.4054,-5.4225,-5.4591,-5.464,-5.4469,-5.4079,-5.3713,-5.3143,-5.2286,-5.0598,-4.8881,-4.6928,-4.3396,-4.1004,0.0,0.0,0.0,0.0,0.0,0.0,0.0,0.0,0.0,0.0,0.0,0.0,0.0,0.0,0.0,0.0,0.0,0.0,0.0,0.0,0.0,0.0,0.0,0.0,0.0,0.0,0.0,-2.8358,-2.9226,0.0,0.0,0.0,0.0,-2.9753,-3.0997,-3.2177,-3.3123,-3.4417,-3.5572,-3.6493,-3.7684,-3.8318,-3.8411,-4.0494,-4.1586,-4.1662,-4.278,-4.3444,-4.3495,-4.3517,-4.3517,-4.3571,-4.3571,-4.3466,-4.3365,-4.1737,-3.9724,-3.7689,-3.7458,-3.7177,-3.6846,-3.6846,-3.7434,-3.8214,-3.8239,-3.8239,-3.8239,-3.8314,-3.8239,-3.8039,-3.6902,-3.7309,0.0,0.0,-3.9721,-4.189,-4.4056,-4.5562,-4.6685,-4.7758,-4.8027,-4.8076,-4.8076,-4.8076,-4.7269,-4.4981,-4.4518,-4.4028,-4.2562,0.0,-4.3222,-4.406,-4.4394,-4.5816,-4.8966,-4.9564,-5.0443,-5.2639,-5.2908,-5.3371,-5.4396,-5.4421,-5.3957,-5.2932,-5.1858,-5.0736,-4.9564,-4.7563,-4.54,-4.3108,-3.9957,0.0,0.0,0.0,0.0,0.0,0.0,0.0,0.0,0.0,0.0,0.0,0.0,0.0,0.0,0.0,0.0,0.0,0.0,0.0,0.0,0.0,0.0,0.0,0.0,0.0,0.0,-2.2625,-2.3793,-2.4979,-2.5509,-2.5751,0.0,0.0,0.0,0.0,0.0,0.0,-2.8981,-3.065,-3.2159,-3.3262,-3.4972,-3.6348,-3.7191,-3.775,-3.8487,-3.9351,-4.0566,-4.1434,-4.2272,-4.3111,-4.3597,-4.3571,-4.3517,-4.306,-4.1942,-3.7826,-3.5743,-3.4908,-3.3919,-3.3377,-3.3203,-3.3355,-3.3506,-3.3919,-3.4859,-3.5194,-3.5289,-3.5765,-3.5456,-3.4763,-3.4303,0.0,0.0,0.0,0.0,-3.7263,-4.0319,-4.1888,-4.3091,-4.4251,-4.522,-4.5687,-4.5687,-4.5687,-4.4334,-3.9672,-3.8855,-3.8403,-3.7168,-3.7534,0.0,-3.8231,-3.9871,-4.1863,-4.4287,-4.6268,-4.8246,-5.037,-5.1346,-5.1956,-5.2224,-5.1492,-5.0882,-5.0614,-4.9637,-4.8198,-4.627,-4.4293,-4.1776,-3.8735,0.0,0.0,0.0,0.0,0.0,0.0,0.0,0.0,0.0,0.0,0.0,0.0,0.0,0.0,0.0,0.0,0.0,0.0,0.0,0.0,0.0,0.0,0.0,0.0,0.0,0.0,0.0,-2.0008,-2.1529,-2.3272,-2.3183,-2.3138,0.0,0.0,0.0,0.0,0.0,0.0,0.0,0.0,0.0,-3.0033,-3.1415,-3.2509,-3.314,-3.4621,-3.5593,-3.6266,-3.7853,-3.8951,-3.9463,-4.007,-4.0348,-4.0348,-4.0274,-3.9449,-3.7744,-3.4666,-3.2446,-3.0713,0.0,0.0,0.0,0.0,-2.9099,-2.9546,-3.03,-3.0499,-3.0587,-3.0937,0.0,0.0,0.0,0.0,0.0,0.0,0.0,-3.4214,-3.7041,-3.8602,-3.9741,-4.0998,-4.1682,-4.2121,-4.2121,-4.0607,-3.831,-3.5242,-3.4606,-3.418,-3.2785,-3.3135,0.0,0.0,0.0,-3.8863,-4.2372,-4.4656,-4.6904,-4.9467,-5.0321,-5.0711,-5.0711,-5.0125,-4.9564,-4.9125,-4.7661,-4.5786,-4.3739,-4.1182,-3.8319,0.0,0.0,0.0,0.0,0.0,0.0,0.0,0.0,0.0,0.0,0.0,0.0,0.0,0.0,0.0,0.0,0.0,0.0,0.0,0.0,0.0,0.0,0.0,0.0,0.0,0.0,0.0,0.0,0.0,-1.9919,-2.1717,0.0,0.0,0.0,0.0,0.0,0.0,0.0,0.0,0.0,0.0,0.0,0.0,0.0,-2.8035,-2.8059,-3.1083,-3.2722,-3.278,-3.483,-3.5832,-3.5892,-3.5811,-3.586,-3.5926,-3.5176,0.0,-3.2239,-3.1513,0.0,0.0,0.0,0.0,0.0,0.0,0.0,0.0,0.0,0.0,0.0,0.0,0.0,0.0,0.0,0.0,0.0,0.0,0.0,0.0,0.0,0.0,-3.6417,-3.7407,-3.7748,-3.77,-3.7286,-3.4039,-3.1211,-3.1115,-3.0909,-3.046,0.0,0.0,0.0,0.0,0.0,0.0,-4.0856,-4.3014,-4.5256,-4.8274,-4.8829,-4.8999,-4.8999,-4.8886,-4.8481,-4.7607,-4.5373,-4.3257,-4.1473,-3.8241,0.0,0.0,0.0,0.0,0.0,0.0,0.0,0.0,0.0,0.0,0.0,0.0,0.0,0.0,0.0,0.0,0.0,0.0,0.0,0.0,0.0,0.0,0.0,0.0,0.0,0.0,0.0,0.0,0.0,0.0,0.0,0.0,0.0,0.0,0.0,0.0,0.0,0.0,0.0,0.0,0.0,0.0,0.0,0.0,0.0,0.0,0.0,0.0,0.0,0.0,-3.0799,-3.1825,-3.2604,-3.3355,-3.4221,-3.477,-2.9899,-2.8001,-2.8297,-2.6623,0.0,0.0,0.0,0.0,0.0,0.0,0.0,0.0,0.0,0.0,0.0,0.0,0.0,0.0,0.0,0.0,0.0,0.0,0.0,0.0,0.0,0.0,-3.2727,-3.2926,-3.3735,-3.3751,-3.0937,0.0,0.0,0.0,0.0,0.0,0.0,0.0,0.0,0.0,0.0,0.0,-3.407,-3.7462,-4.0423,-4.2241,-4.3872,-4.4868,-4.5262,-4.4636,-4.4075,-4.391,-4.1289,-3.9209,0.0,0.0,0.0,0.0,0.0,0.0,0.0,0.0,0.0,0.0,0.0,0.0,0.0,0.0,0.0,0.0,0.0,0.0,0.0,0.0,0.0,0.0,0.0,0.0,0.0,0.0,0.0,0.0,0.0,0.0,0.0,0.0,0.0,0.0,0.0,0.0,0.0,0.0,0.0,0.0,0.0,0.0,0.0,0.0,0.0,0.0,0.0,0.0,0.0,0.0,0.0,0.0,0.0,0.0,0.0,0.0,0.0,0.0,-2.6926,-2.4899,0.0,0.0,0.0,0.0,0.0,0.0,0.0,0.0,0.0,0.0,0.0,0.0,0.0,0.0,0.0,0.0,0.0,0.0,0.0,0.0,0.0,0.0,0.0,0.0,0.0,0.0,0.0,0.0,0.0,0.0,0.0,0.0,0.0,0.0,0.0,0.0,0.0,0.0,0.0,0.0,-3.236,-3.6118,-3.9246,-4.0491,-4.246,-4.372,-4.3849,-4.3134,-4.2415,-4.1882,-3.8519,0.0,0.0,0.0,0.0,0.0,0.0,0.0,0.0,0.0,0.0,0.0,0.0,0.0,0.0,0.0,0.0,0.0,0.0,0.0,0.0,0.0,0.0,0.0,0.0,0.0,0.0,0.0,0.0,0.0,0.0,0.0,0.0,0.0,0.0,0.0,0.0,0.0,0.0,0.0,0.0,0.0,0.0,0.0,0.0,0.0,0.0,0.0,0.0,0.0,0.0,0.0,0.0,0.0,0.0,0.0,0.0,0.0,0.0,0.0,-2.4031,-2.2208,0.0,0.0,0.0,0.0,0.0,0.0,0.0,0.0,0.0,0.0,0.0,0.0,0.0,0.0,0.0,0.0,0.0,0.0,0.0,0.0,0.0,0.0,0.0,0.0,0.0,0.0,0.0,0.0,0.0,0.0,0.0,0.0,0.0,0.0,0.0,0.0,0.0,0.0,0.0,0.0,-3.1225,-3.4679,-3.7419,-3.875,-4.0537,-4.159,-4.1716,-4.1217,-4.0401,-3.9204,-3.5736,0.0,0.0,0.0,0.0,0.0,0.0,0.0,0.0,0.0,0.0,0.0,0.0,0.0,0.0,0.0,0.0,0.0,0.0,0.0,0.0,0.0,0.0,0.0,0.0,0.0,0.0,0.0,0.0,0.0,0.0,0.0,0.0,0.0,0.0,0.0,0.0,0.0,0.0,0.0,0.0,0.0,0.0,0.0,0.0,0.0,0.0,0.0,0.0,0.0,0.0,0.0,0.0,0.0,0.0,0.0,0.0,0.0,0.0,0.0,0.0,0.0,0.0,0.0,0.0,0.0,0.0,0.0,0.0,0.0,0.0,0.0,0.0,0.0,0.0,0.0,0.0,0.0,0.0,0.0,0.0,0.0,0.0,0.0,0.0,0.0,0.0,0.0,0.0,0.0,0.0,0.0,0.0,0.0,0.0,0.0,0.0,0.0,0.0,0.0,0.0,0.0,-2.7601,-2.9488,-3.1524,-3.3515,-3.4579,-3.5196,-3.5575,-3.5982,-3.5404,-3.3527,0.0,0.0,0.0,0.0,0.0,0.0,0.0,0.0,0.0,0.0,0.0,0.0,0.0,0.0,0.0,0.0,0.0,0.0,0.0,0.0,0.0,0.0,0.0,0.0,0.0,0.0,0.0,0.0,0.0,0.0,0.0,0.0,0.0,0.0,0.0,0.0,0.0,0.0,0.0,0.0,0.0,0.0,0.0,0.0,0.0,0.0,0.0,0.0,0.0,0.0,0.0,0.0,0.0,0.0,0.0,0.0,0.0,0.0,0.0,0.0,0.0,0.0,0.0,0.0,0.0,0.0,0.0,0.0,0.0,0.0,0.0,0.0,0.0,0.0,0.0,0.0,0.0,0.0,0.0,0.0,0.0,0.0,0.0,0.0,0.0,0.0,0.0,0.0,0.0,0.0,0.0,0.0,0.0,0.0,0.0,0.0,0.0,0.0,0.0,0.0,0.0,0.0,-2.7185,-2.9475,-3.1387,-3.2572,-3.3769,-3.4675,-3.5296,-3.4254,-3.3149,-3.232,0.0,0.0,0.0,0.0,0.0,0.0,0.0,0.0,0.0,0.0,0.0,0.0,0.0,0.0,0.0,0.0,0.0,0.0,0.0,0.0,0.0,0.0,0.0,0.0,0.0,0.0,0.0,0.0,0.0,0.0,0.0,0.0,0.0,0.0,0.0,0.0,0.0,0.0,0.0,0.0,0.0,0.0,0.0,0.0,0.0,0.0,0.0,0.0,0.0,0.0,0.0,0.0,0.0,0.0,0.0,0.0,0.0,0.0,0.0,0.0,0.0,0.0,0.0,0.0,0.0,0.0,0.0,0.0,0.0,0.0,0.0,0.0,0.0,0.0,0.0,0.0,0.0,0.0,0.0,0.0,0.0,0.0,0.0,0.0,0.0,0.0,0.0,0.0,0.0,0.0,0.0,0.0,0.0,0.0,0.0,0.0,0.0,0.0,0.0,0.0,0.0,0.0,-2.6854,-2.8796,-3.0709,-3.2027,-3.3,-3.3781,-3.4526,-3.2788,-3.1306,-3.0658,0.0,0.0,0.0,0.0,0.0,0.0,0.0,0.0,0.0,0.0,0.0,0.0,0.0,0.0,0.0,0.0,0.0,0.0,0.0,0.0,0.0,0.0,0.0,0.0,0.0,0.0,0.0,0.0,0.0,0.0,0.0,0.0,0.0,0.0,0.0,0.0,0.0,0.0,0.0,0.0,0.0,0.0,0.0,0.0,0.0,0.0,0.0,0.0,0.0,0.0,0.0,0.0,0.0,0.0,0.0,0.0,0.0,0.0,0.0,0.0,0.0,0.0,0.0,0.0,0.0,0.0,0.0,0.0,0.0,0.0,0.0,0.0,0.0,0.0,0.0,0.0,0.0,0.0,0.0,0.0,0.0,0.0,0.0,0.0,0.0,0.0,0.0,0.0,0.0,0.0,0.0,0.0,0.0,0.0,0.0,0.0,0.0,0.0,0.0,0.0,0.0,0.0,-2.5964,-2.6565,-2.7885,-3.1125,-3.1017,-3.1109,-3.1913,-3.1078,-2.9641,0.0,0.0,0.0,0.0,0.0,0.0,0.0,0.0,0.0,0.0,0.0,0.0,0.0,0.0,0.0,0.0,0.0,0.0,0.0,0.0,0.0,0.0,0.0,0.0,0.0,0.0,0.0,0.0,0.0,0.0,0.0,0.0,0.0,0.0,0.0,0.0,0.0,0.0,0.0,0.0,0.0,0.0,0.0,0.0,0.0,0.0,0.0,0.0,0.0,0.0,0.0,0.0,0.0,0.0,0.0,0.0,0.0,0.0,0.0,0.0,0.0,0.0,0.0,0.0,0.0,0.0,0.0,0.0,0.0,0.0,0.0,0.0,0.0,0.0,0.0,0.0,0.0,0.0,0.0,0.0,0.0,0.0,0.0,0.0,0.0,0.0,0.0,0.0,0.0,0.0,0.0,0.0,0.0,0.0,0.0,0.0,0.0,0.0,0.0,0.0,0.0,0.0,0.0,-2.5401,-2.5984,-2.7319,-3.037,-3.0083,-3.0034,-3.097,-2.9239,-2.7844,-2.7231,0.0,0.0,0.0,0.0,0.0,0.0,0.0,0.0,0.0,0.0,0.0,0.0,0.0,0.0,0.0,0.0,0.0,0.0,0.0,0.0,0.0,0.0,0.0,0.0,0.0,0.0,0.0,0.0,0.0,0.0,0.0,0.0,0.0,0.0,0.0,0.0,0.0,0.0,0.0,0.0,0.0,0.0,0.0,0.0,0.0,0.0,0.0,0.0,0.0,0.0,0.0,0.0,0.0,0.0,0.0,0.0,0.0,0.0,0.0,0.0,0.0,0.0,0.0,0.0,0.0,0.0,0.0,0.0,0.0,0.0,0.0,0.0,0.0,0.0,0.0,0.0,0.0,0.0,0.0,0.0,0.0,0.0,0.0,0.0,0.0,0.0,0.0,0.0,0.0,0.0,0.0,0.0,0.0,0.0,0.0,0.0,0.0,0.0,0.0,0.0,0.0,0.0,0.0,-2.549,-2.6811,-2.9265,-2.9163,-2.9297,-3.0241,-2.8161,-2.6843,-2.688,0.0,0.0,0.0,0.0,0.0,0.0,0.0,0.0,0.0,0.0,0.0,0.0,0.0,0.0,0.0,0.0,0.0,0.0,0.0,0.0,0.0,0.0,0.0,0.0,0.0,0.0,0.0,0.0,0.0,0.0,0.0,0.0,0.0,0.0,0.0,0.0,0.0,0.0,0.0,0.0,0.0,0.0,0.0,0.0,0.0,0.0,0.0,0.0,0.0,0.0,0.0,0.0,0.0,0.0,0.0,0.0,0.0,0.0,0.0,0.0,0.0,0.0,0.0,0.0,0.0,0.0,0.0,0.0,0.0,0.0,0.0,0.0,0.0,0.0,0.0,0.0,0.0,0.0,0.0,0.0,0.0,0.0,0.0,0.0,0.0,0.0,0.0,0.0,0.0,0.0,0.0,0.0,0.0,0.0,0.0,0.0,0.0,0.0,0.0,0.0,0.0,0.0,0.0,-2.5015,-2.6433,-2.7966,-2.8356,-2.8778,-2.95,-2.7757,-2.6405,-2.6072,-2.2627,0.0,0.0,0.0,0.0,0.0,0.0,0.0,0.0,0.0,0.0,0.0,0.0,0.0,0.0,0.0,0.0,0.0,0.0,0.0,0.0,0.0,0.0,0.0,0.0,0.0,0.0,0.0,0.0,0.0,0.0,0.0,0.0,0.0,0.0,0.0,0.0,0.0,0.0,0.0,0.0,0.0,0.0,0.0,0.0,0.0,0.0,0.0,0.0,0.0,0.0,0.0,0.0,0.0,0.0,0.0,0.0,0.0,0.0,0.0,0.0,0.0,0.0,0.0,0.0,0.0,0.0,0.0,0.0,0.0,0.0,0.0,0.0,0.0,0.0,0.0,0.0,0.0,0.0,0.0,0.0,0.0,0.0,0.0,0.0,0.0,0.0,0.0,0.0,0.0,0.0,0.0,0.0,0.0,0.0,0.0,0.0,0.0,0.0,0.0,0.0,0.0,0.0,-2.4492,-2.577,-2.7163,-2.7823,-2.8134,-2.793,-2.692,-2.5664,-2.4216,-2.1735,0.0,0.0,0.0,0.0,0.0,0.0,0.0,0.0,0.0,0.0,0.0,0.0,0.0,0.0,0.0,0.0,0.0,0.0,0.0,0.0,0.0,0.0,0.0,0.0,0.0,0.0,0.0,0.0,0.0,0.0,0.0,0.0,0.0,0.0,0.0,0.0,0.0,0.0,0.0,0.0,0.0,0.0,0.0,0.0,0.0,0.0,0.0,0.0,0.0,0.0,0.0,0.0,0.0,0.0,0.0,0.0,0.0,0.0,0.0,0.0,0.0,0.0,0.0,0.0,0.0,0.0,0.0,0.0,0.0,0.0,0.0,0.0,0.0,0.0,0.0,0.0,0.0,0.0,0.0,0.0,0.0,0.0,0.0,0.0,0.0,0.0,0.0,0.0,0.0,0.0,0.0,0.0,0.0,0.0,0.0,0.0,0.0,0.0,0.0,0.0,0.0,0.0,-2.2117,-2.3936,-2.5567,-2.6674,-2.7153,-2.6852,-2.6056,-2.4946,-2.3223,-2.07,0.0,0.0,0.0,0.0,0.0,0.0,0.0,0.0,0.0,0.0,0.0,0.0,0.0,0.0,0.0,0.0,0.0,0.0,0.0,0.0,0.0,0.0,0.0,0.0,0.0,0.0,0.0,0.0,0.0,0.0,0.0,0.0,0.0,0.0,0.0,0.0,0.0,0.0,0.0,0.0,0.0,0.0,0.0,0.0,0.0,0.0,0.0,0.0,0.0,0.0,0.0,0.0,0.0,0.0,0.0,0.0,0.0,0.0,0.0,0.0,0.0,0.0,0.0,0.0,0.0,0.0,0.0,0.0,0.0,0.0,0.0,0.0,0.0,0.0,0.0,0.0,0.0,0.0,0.0,0.0,0.0,0.0,0.0,0.0,0.0,0.0,0.0,0.0,0.0,0.0,0.0,0.0,0.0,0.0,0.0,0.0,0.0,0.0,0.0,0.0,0.0,0.0,0.0,-2.15,-2.343,-2.5002,-2.5926,-2.5769,-2.5108,-2.3899,-2.2101,0.0,0.0,0.0,0.0,0.0,0.0,0.0,0.0,0.0,0.0,0.0,0.0,0.0,0.0,0.0,0.0,0.0,0.0,0.0,0.0,0.0,0.0,0.0,0.0,0.0,0.0,0.0,0.0,0.0,0.0,0.0,0.0,0.0,0.0,0.0,0.0,0.0,0.0,0.0,0.0,0.0,0.0,0.0,0.0,0.0,0.0,0.0,0.0,0.0,0.0,0.0,0.0,0.0,0.0,0.0,0.0,0.0,0.0,0.0,0.0,0.0,0.0,0.0,0.0,0.0,0.0,0.0,0.0,0.0,0.0,0.0,0.0,0.0,0.0,0.0,0.0,0.0,0.0,0.0,0.0,0.0,0.0,0.0,0.0,0.0,0.0,0.0,0.0,0.0,0.0,0.0,0.0,0.0,0.0,0.0,0.0,0.0,0.0,0.0,0.0,0.0,0.0,0.0,0.0,-1.9529,-2.1264,-2.3363,-2.4508,-2.4391,-2.4214,-2.2818,-1.9771,0.0,0.0,0.0,0.0,0.0,0.0,0.0,0.0,0.0,0.0,0.0,0.0,0.0,0.0]}]]]